[[{"header":{"parameterUnit":"m.s-1","parameterCategory":1,"la1":30.6,"la2":29.2853,"lo1":-89.7004,"lo2":-87.6739,"dy":0.0162,"dx":0.0183,"nx":112,"ny":82,"refTime":"2024-10-10T18:00:00:Z","depth":0,"parameterNumber":2,"parameterNumberName":"U-component_of_WINDS"},"data":[0.0,0.0,0.0,0.0,0.0,0.0,0.0,0.0,0.0,0.0,0.0,0.0,0.0,0.0,0.0,0.0,0.0,0.0,0.0,0.0,0.0,0.0,0.0,0.0,0.0,0.0,0.0,0.0,0.0,0.0,0.0,0.0,0.0,0.0,0.0,0.0,0.0,0.0,0.0,0.0,0.0,0.0,0.0,0.0,0.0,0.0,0.0,0.0,0.0,0.0,0.0,0.0,0.0,0.0,0.0,0.0,0.0,0.0,0.0,0.0,0.0,0.0,0.0,0.0,0.0,0.0,0.0,0.0,0.0,0.0,0.0,0.0,0.0,0.0,0.0,0.0,0.0,0.0,0.0,0.0,0.0,0.0,0.0,0.0,0.0,0.0,0.0,0.0,0.0,0.0,0.0,3.3088,3.656,3.8432,3.7734,3.689,3.4243,2.9202,0.0,0.0,0.0,0.0,0.0,0.0,0.0,0.0,0.0,0.0,0.0,0.0,0.0,0.0,0.0,0.0,0.0,0.0,0.0,0.0,0.0,0.0,0.0,0.0,0.0,0.0,0.0,0.0,0.0,0.0,0.0,0.0,0.0,0.0,0.0,0.0,0.0,0.0,0.0,0.0,0.0,0.0,0.0,0.0,0.0,0.0,0.0,0.0,0.0,0.0,0.0,0.0,0.0,0.0,0.0,0.0,0.0,0.0,0.0,0.0,0.0,0.0,0.0,0.0,0.0,0.0,0.0,0.0,0.0,0.0,0.0,0.0,0.0,0.0,0.0,0.0,0.0,0.0,0.0,0.0,0.0,0.0,0.0,0.0,0.0,0.0,0.0,0.0,0.0,0.0,0.0,0.0,0.0,0.0,0.0,0.0,0.0,0.0,0.0,0.0,0.0,0.0,0.0,0.0,3.1191,3.6221,3.7918,3.8652,3.8542,3.6261,3.3527,3.0413,0.0,0.0,0.0,0.0,0.0,0.0,0.0,0.0,0.0,0.0,0.0,0.0,0.0,0.0,0.0,0.0,0.0,0.0,0.0,0.0,0.0,0.0,0.0,0.0,0.0,0.0,0.0,0.0,0.0,0.0,0.0,0.0,0.0,0.0,0.0,0.0,0.0,0.0,0.0,0.0,0.0,0.0,0.0,0.0,0.0,0.0,0.0,0.0,0.0,0.0,0.0,0.0,0.0,0.0,0.0,0.0,0.0,0.0,0.0,0.0,0.0,0.0,0.0,0.0,0.0,0.0,0.0,0.0,0.0,0.0,0.0,0.0,0.0,0.0,0.0,0.0,0.0,0.0,0.0,0.0,0.0,0.0,0.0,0.0,0.0,0.0,0.0,0.0,0.0,0.0,0.0,0.0,0.0,0.0,0.0,0.0,0.0,0.0,0.0,0.0,0.0,0.0,0.0,3.0597,3.2882,3.7624,3.8469,3.8689,3.8689,3.6266,3.3619,3.0908,2.5979,0.0,0.0,0.0,0.0,0.0,0.0,0.0,0.0,0.0,0.0,0.0,0.0,0.0,0.0,0.0,0.0,0.0,0.0,0.0,0.0,0.0,0.0,0.0,0.0,0.0,0.0,0.0,0.0,0.0,0.0,0.0,0.0,0.0,0.0,0.0,0.0,0.0,0.0,0.0,0.0,0.0,0.0,0.0,0.0,0.0,0.0,0.0,0.0,0.0,0.0,0.0,0.0,0.0,0.0,0.0,0.0,0.0,0.0,0.0,0.0,0.0,0.0,0.0,0.0,0.0,0.0,0.0,0.0,0.0,0.0,0.0,0.0,0.0,0.0,0.0,0.0,0.0,0.0,0.0,0.0,0.0,0.0,0.0,0.0,0.0,0.0,0.0,0.0,0.0,0.0,0.0,0.0,0.0,0.0,0.0,0.0,0.0,0.0,0.0,0.0,0.0,0.0,3.3611,3.4835,3.8322,3.8689,3.8615,3.8432,3.5973,3.3241,3.0442,2.4977,0.0,0.0,0.0,0.0,0.0,0.0,0.0,0.0,0.0,0.0,0.0,0.0,0.0,0.0,0.0,0.0,0.0,0.0,0.0,0.0,0.0,0.0,0.0,0.0,0.0,0.0,0.0,0.0,0.0,0.0,0.0,0.0,0.0,0.0,0.0,0.0,0.0,0.0,0.0,0.0,0.0,0.0,0.0,0.0,0.0,0.0,0.0,0.0,0.0,0.0,0.0,0.0,0.0,0.0,0.0,0.0,0.0,0.0,0.0,0.0,0.0,0.0,0.0,0.0,0.0,0.0,0.0,0.0,0.0,0.0,0.0,0.0,0.0,0.0,0.0,0.0,0.0,0.0,0.0,0.0,0.0,0.0,0.0,0.0,0.0,0.0,0.0,0.0,0.0,0.0,0.0,0.0,0.0,0.0,0.0,0.0,0.0,0.0,0.0,0.0,0.0,0.0,3.4201,3.6707,3.8505,3.8689,3.8395,3.7624,3.4614,3.1508,2.8551,2.3213,0.0,0.0,0.0,0.0,0.0,0.0,0.0,0.0,0.0,0.0,0.0,0.0,0.0,0.0,0.0,0.0,0.0,0.0,0.0,0.0,0.0,0.0,0.0,0.0,0.0,0.0,0.0,0.0,0.0,0.0,0.0,0.0,0.0,0.0,0.0,0.0,0.0,0.0,0.0,0.0,0.0,0.0,0.0,0.0,0.0,0.0,0.0,0.0,0.0,0.0,0.0,0.0,0.0,0.0,0.0,0.0,0.0,0.0,0.0,0.0,0.0,0.0,0.0,0.0,0.0,0.0,0.0,0.0,0.0,0.0,0.0,0.0,0.0,0.0,0.0,0.0,0.0,0.0,0.0,0.0,0.0,0.0,0.0,0.0,0.0,0.0,0.0,0.0,0.0,0.0,0.0,0.0,0.0,0.0,0.0,0.0,0.0,0.0,0.0,0.0,0.0,0.0,3.3434,3.5752,0.0,3.8689,3.8358,3.7551,3.4945,3.1873,2.8443,0.0,0.0,0.0,0.0,0.0,0.0,0.0,0.0,0.0,0.0,0.0,0.0,0.0,0.0,0.0,0.0,0.0,0.0,0.0,0.0,0.0,0.0,0.0,0.0,0.0,0.0,0.0,0.0,0.0,0.0,0.0,0.0,0.0,0.0,0.0,0.0,0.0,0.0,0.0,0.0,0.0,0.0,0.0,0.0,0.0,0.0,0.0,0.0,0.0,0.0,0.0,0.0,0.0,0.0,0.0,0.0,0.0,0.0,0.0,0.0,0.0,0.0,0.0,0.0,0.0,0.0,0.0,0.0,0.0,0.0,0.0,0.0,0.0,0.0,0.0,0.0,0.0,0.0,0.0,0.0,0.0,0.0,0.0,0.0,0.0,0.0,0.0,0.0,0.0,0.0,0.0,0.0,0.0,0.0,0.0,0.0,0.0,0.0,0.0,0.0,0.0,0.0,3.1043,3.3361,3.5642,0.0,3.8689,3.8285,3.7184,3.4357,3.106,2.7297,0.0,0.0,0.0,0.0,0.0,0.0,0.0,0.0,0.0,0.0,0.0,0.0,0.0,0.0,0.0,0.0,0.0,0.0,0.0,0.0,0.0,0.0,0.0,0.0,0.0,0.0,0.0,0.0,0.0,0.0,0.0,0.0,0.0,0.0,0.0,0.0,0.0,0.0,0.0,0.0,0.0,0.0,0.0,0.0,0.0,0.0,0.0,0.0,0.0,0.0,0.0,0.0,0.0,0.0,0.0,0.0,0.0,0.0,0.0,0.0,0.0,0.0,0.0,0.0,0.0,0.0,0.0,0.0,0.0,0.0,0.0,0.0,0.0,0.0,0.0,0.0,0.0,0.0,0.0,0.0,0.0,0.0,0.0,0.0,0.0,0.0,0.0,0.0,0.0,0.0,0.0,0.0,0.0,0.0,0.0,0.0,0.0,0.0,0.0,0.0,0.0,0.0,3.0919,3.4247,3.6927,3.8542,3.8689,3.8028,3.645,3.2559,2.8651,0.0,0.0,0.0,0.0,0.0,0.0,0.0,0.0,0.0,0.0,0.0,0.0,0.0,0.0,0.0,0.0,0.0,0.0,0.0,0.0,0.0,0.0,0.0,0.0,0.0,0.0,0.0,0.0,0.0,0.0,0.0,0.0,0.0,0.0,0.0,0.0,0.0,0.0,0.0,0.0,0.0,0.0,0.0,0.0,0.0,0.0,0.0,0.0,0.0,0.0,0.0,0.0,0.0,0.0,0.0,0.0,0.0,0.0,0.0,0.0,0.0,0.0,0.0,0.0,0.0,0.0,0.0,0.0,0.0,0.0,0.0,0.0,0.0,0.0,0.0,0.0,0.0,0.0,0.0,0.0,0.0,0.0,0.0,0.0,0.0,0.0,0.0,0.0,0.0,0.0,0.0,0.0,0.0,0.0,0.0,0.0,0.0,0.0,0.0,0.0,0.0,0.0,0.0,3.0919,3.4247,3.6927,3.8542,3.8175,3.7404,3.6376,3.3073,2.9503,2.5982,0.0,0.0,0.0,0.0,0.0,0.0,0.0,0.0,0.0,0.0,0.0,0.0,0.0,0.0,0.0,0.0,0.0,0.0,0.0,0.0,0.0,0.0,0.0,0.0,0.0,0.0,0.0,0.0,0.0,0.0,0.0,0.0,0.0,0.0,0.0,0.0,0.0,0.0,0.0,0.0,0.0,0.0,0.0,0.0,0.0,0.0,0.0,0.0,0.0,0.0,0.0,0.0,0.0,0.0,0.0,0.0,0.0,0.0,0.0,0.0,0.0,0.0,0.0,0.0,0.0,0.0,0.0,0.0,0.0,0.0,0.0,0.0,0.0,0.0,0.0,0.0,0.0,0.0,0.0,0.0,0.0,0.0,0.0,0.0,0.0,0.0,0.0,0.0,0.0,0.0,0.0,0.0,0.0,0.0,0.0,0.0,0.0,0.0,0.0,0.0,0.0,0.0,3.0882,3.4247,3.6927,3.8542,3.7955,3.7147,3.6376,3.3293,2.9917,2.6436,0.0,0.0,0.0,0.0,0.0,0.0,0.0,0.0,0.0,0.0,0.0,0.0,0.0,0.0,0.0,0.0,0.0,0.0,0.0,0.0,0.0,0.0,0.0,0.0,0.0,0.0,0.0,0.0,0.0,0.0,0.0,0.0,0.0,0.0,0.0,0.0,0.0,0.0,0.0,0.0,0.0,0.0,0.0,0.0,0.0,0.0,0.0,0.0,0.0,0.0,0.0,0.0,0.0,0.0,0.0,0.0,0.0,0.0,0.0,0.0,0.0,0.0,0.0,0.0,0.0,0.0,0.0,0.0,0.0,0.0,0.0,0.0,0.0,0.0,0.0,0.0,0.0,0.0,0.0,0.0,0.0,0.0,0.0,0.0,0.0,0.0,0.0,0.0,0.0,0.0,0.0,0.0,0.0,0.0,0.0,0.0,0.0,0.0,0.0,0.0,0.0,0.0,3.0809,3.4247,3.6927,3.8542,3.7918,3.7074,3.634,3.322,2.9905,2.6613,0.0,0.0,0.0,0.0,0.0,0.0,0.0,0.0,0.0,0.0,0.0,0.0,0.0,0.0,0.0,0.0,0.0,0.0,0.0,0.0,0.0,0.0,0.0,0.0,0.0,0.0,0.0,0.0,0.0,0.0,0.0,0.0,0.0,0.0,0.0,0.0,0.0,0.0,0.0,0.0,0.0,0.0,0.0,0.0,0.0,0.0,0.0,0.0,0.0,0.0,0.0,0.0,0.0,0.0,0.0,0.0,0.0,0.0,0.0,0.0,1.8329,0.0,0.0,0.0,0.0,0.0,0.0,0.0,0.0,0.0,0.0,0.0,0.0,0.0,0.0,0.0,0.0,0.0,0.0,0.0,0.0,0.0,0.0,0.0,0.0,0.0,0.0,0.0,0.0,0.0,0.0,0.0,0.0,0.0,0.0,0.0,0.0,0.0,0.0,0.0,0.0,0.0,3.0809,3.4247,3.6927,3.8542,3.7404,3.6486,3.6303,3.2706,2.9599,2.7596,0.0,0.0,0.0,0.0,0.0,0.0,0.0,0.0,0.0,0.0,0.0,0.0,0.0,0.0,0.0,0.0,0.0,0.0,0.0,0.0,0.0,0.0,0.0,0.0,0.0,0.0,0.0,0.0,0.0,0.0,0.0,0.0,0.0,0.0,0.0,0.0,0.0,0.0,0.0,0.0,0.0,0.0,0.0,0.0,0.0,0.0,0.0,0.0,0.0,0.0,0.0,0.0,0.0,0.0,0.0,0.0,0.0,0.0,0.0,0.0,0.0,1.9668,0.0,0.0,0.0,0.0,0.0,0.0,0.0,0.0,0.0,0.0,0.0,0.0,0.0,0.0,0.0,0.0,0.0,0.0,0.0,0.0,0.0,0.0,0.0,0.0,0.0,0.0,0.0,0.0,0.0,0.0,0.0,0.0,0.0,0.0,0.0,0.0,0.0,0.0,0.0,0.0,3.0846,3.4247,3.6927,3.8542,3.7257,3.6303,3.6303,3.3256,3.0687,2.9035,2.5548,0.0,0.0,0.0,0.0,0.0,0.0,0.0,0.0,0.0,0.0,0.0,0.0,0.0,0.0,0.0,0.0,0.0,0.0,0.0,0.0,0.0,0.0,0.0,0.0,0.0,0.0,0.0,0.0,0.0,0.0,0.0,0.0,0.0,0.0,0.0,0.0,0.0,0.0,0.0,0.0,0.0,0.0,0.0,0.0,0.0,0.0,0.0,0.0,0.0,0.0,0.0,0.0,0.0,2.52,2.5712,2.6299,2.6072,2.6284,2.6709,2.4076,2.3415,2.408,0.0,0.0,0.0,0.0,0.0,0.0,0.0,0.0,0.0,0.0,0.0,0.0,0.0,0.0,0.0,0.0,0.0,0.0,0.0,0.0,0.0,0.0,0.0,0.0,0.0,2.5107,2.4667,0.0,0.0,0.0,0.0,0.0,0.0,0.0,0.0,0.0,0.0,0.0,0.0,3.1115,3.4357,3.6927,3.8542,3.7257,3.6303,3.6303,3.4027,3.1935,3.032,2.7567,2.4944,0.0,0.0,0.0,0.0,0.0,0.0,0.0,0.0,0.0,0.0,0.0,0.0,0.0,0.0,0.0,0.0,0.0,0.0,0.0,0.0,0.0,0.0,0.0,0.0,0.0,0.0,0.0,0.0,0.0,0.0,0.0,0.0,1.6866,1.9458,0.0,0.0,0.0,0.0,0.0,0.0,0.0,0.0,0.0,0.0,0.0,0.0,0.0,2.3815,2.4683,2.6371,2.7355,2.7576,2.9059,2.9775,2.984,2.9576,2.9756,3.0207,2.9333,0.0,2.4729,2.2937,0.0,0.0,0.0,0.0,0.0,0.0,0.0,0.0,0.0,0.0,0.0,0.0,0.0,0.0,0.0,0.0,0.0,0.0,0.0,0.0,0.0,0.0,2.7016,2.6429,2.6355,2.6282,0.0,2.3602,2.1686,2.1495,2.0653,0.0,0.0,0.0,0.0,0.0,0.0,0.0,3.1985,3.4688,3.6927,3.8542,3.7257,3.6303,3.6303,3.4027,3.1935,3.032,2.9145,2.7457,2.5054,2.3382,0.0,0.0,0.0,0.0,0.0,0.0,0.0,0.0,0.0,0.0,0.0,0.0,0.0,0.0,0.0,0.0,0.0,0.0,0.0,0.0,0.0,0.0,0.0,0.0,0.0,0.0,0.0,0.0,0.0,1.6086,1.8577,2.0196,2.0457,2.0173,0.0,0.0,0.0,0.0,0.0,0.0,0.0,0.0,0.0,2.559,2.6512,2.7659,2.9049,2.9915,3.0564,3.1046,3.1727,3.2027,3.1943,3.1656,3.1559,3.1638,3.1389,3.0341,2.8639,2.6329,2.4931,2.4186,0.0,0.0,0.0,0.0,2.3983,2.3968,2.4203,2.4271,0.0,2.3288,0.0,0.0,0.0,0.0,0.0,0.0,0.0,0.0,0.0,0.0,2.7824,2.7934,2.7948,2.7948,2.7948,2.6507,2.4986,0.0,2.3875,2.3309,2.1639,0.0,0.0,0.0,0.0,0.0,3.2842,3.5055,3.6927,3.8542,3.7257,3.6303,3.6303,3.4431,3.2779,3.1641,3.0393,2.8998,2.7493,2.5438,2.3211,0.0,0.0,0.0,0.0,0.0,0.0,0.0,0.0,0.0,0.0,0.0,0.0,0.0,0.0,0.0,0.0,0.0,0.0,0.0,0.0,0.0,0.0,0.0,0.0,0.0,0.0,0.0,0.0,1.7895,1.9883,2.1211,2.1881,2.1814,0.0,0.0,0.0,0.0,0.0,0.0,2.3822,2.5691,2.7362,2.8713,2.9812,3.1052,3.2396,3.2396,3.2817,3.3672,3.3565,3.3615,3.3749,3.3485,3.3168,3.2845,3.292,3.2656,3.1998,2.9518,2.8107,2.7496,2.6835,2.6627,2.6795,2.7539,2.7687,2.7625,2.8017,2.7919,2.7434,2.6143,0.0,2.4816,2.3064,0.0,0.0,0.0,0.0,2.6358,2.6931,2.7564,2.8264,2.8865,2.9159,2.9329,2.9329,2.8998,2.8272,0.0,2.6839,2.6488,2.4496,0.0,0.0,0.0,0.0,3.0759,3.3733,3.5385,3.6927,3.8542,3.7257,3.6303,3.6303,3.4761,3.3476,3.2669,3.1274,3.0136,2.9365,2.7098,2.4962,2.3115,0.0,0.0,0.0,0.0,0.0,0.0,0.0,0.0,0.0,0.0,0.0,0.0,0.0,0.0,0.0,0.0,0.0,0.0,0.0,0.0,0.0,0.0,0.0,0.0,0.0,0.0,0.0,0.0,0.0,2.3717,2.4096,0.0,0.0,0.0,0.0,2.2824,2.4935,2.6365,2.6691,2.909,3.0466,3.0585,3.2171,3.3083,3.3246,3.3246,3.372,3.4648,3.4506,3.4826,3.5545,3.5416,3.5092,3.4582,3.4849,3.4319,3.3202,3.1524,3.0907,3.0982,3.0233,3.0083,3.0233,3.0304,3.0161,2.991,2.9674,2.8932,2.8163,2.8633,2.7827,2.6712,2.6848,2.6333,0.0,0.0,2.6674,2.7954,2.78,2.8338,2.8938,2.8975,2.9586,3.0136,3.0136,3.0723,3.076,0.0,2.8387,2.8237,2.8869,0.0,2.9533,3.0097,3.0962,3.2366,3.4651,3.5752,3.6927,3.8542,3.7257,3.6303,3.6303,3.4761,3.3476,3.2669,3.1825,3.098,3.0173,2.8203,2.6584,2.545,2.2807,0.0,0.0,0.0,0.0,0.0,0.0,0.0,0.0,0.0,0.0,0.0,0.0,0.0,0.0,0.0,0.0,0.0,0.0,0.0,0.0,0.0,0.0,0.0,0.0,0.0,0.0,0.0,0.0,2.4918,2.6049,0.0,2.5081,2.5915,2.6397,2.6207,2.8049,2.9233,2.929,3.1242,3.2616,3.3203,3.3784,3.439,3.5026,3.4992,3.5126,3.5474,3.53,3.5353,3.5622,3.5545,3.5207,3.4733,3.5174,3.4933,3.4242,3.4056,3.3331,3.23,3.2108,3.2032,3.2061,3.2095,3.1924,3.1618,3.1371,3.0959,3.0485,3.0525,2.9853,2.9097,2.9724,2.9317,2.8778,2.9208,2.9738,3.0217,3.0123,3.032,3.054,3.054,3.076,3.098,3.098,3.1201,3.1384,3.1347,3.0722,3.0175,3.0108,3.0435,3.0857,3.1221,3.2268,3.3729,3.5605,3.656,3.7477,3.8579,3.7257,3.6303,3.6303,3.4761,3.3476,3.2669,3.1618,3.0711,2.9875,2.8416,2.6889,2.5295,2.3868,2.1487,0.0,0.0,0.0,0.0,0.0,0.0,0.0,0.0,0.0,0.0,0.0,0.0,0.0,0.0,0.0,0.0,0.0,0.0,0.0,0.0,0.0,0.0,0.0,0.0,0.0,0.0,2.4674,2.5848,2.7207,2.769,2.6897,2.8033,2.8813,2.8829,3.0464,3.1475,3.1504,3.2898,3.397,3.4579,3.4853,3.5257,3.5884,3.5849,3.5816,3.5815,3.5661,3.5622,3.5584,3.5436,3.5174,3.487,3.5207,3.5174,3.487,3.5377,3.4891,3.3776,3.3916,3.3916,3.3776,3.3878,3.3676,3.3282,3.2656,3.2275,3.1982,3.1532,3.1017,3.0687,3.1237,3.1017,3.0723,3.1237,3.1384,3.1384,3.1384,3.1384,3.1384,3.1384,3.1604,3.1788,3.1788,3.2008,3.2375,3.2889,3.2375,3.1765,3.1639,3.1949,3.2243,3.2416,3.3434,3.4724,3.6119,3.7,3.7808,3.8615,3.7257,3.6303,3.6303,3.4504,3.313,3.2474,3.1202,3.0035,2.9098,2.7926,2.6626,2.5136,2.3991,2.2321,2.0027,0.0,0.0,0.0,0.0,0.0,0.0,0.0,0.0,0.0,0.0,0.0,0.0,0.0,0.0,0.0,0.0,0.0,0.0,0.0,0.0,0.0,0.0,0.0,2.276,2.375,2.5038,2.668,2.7593,2.7774,2.7006,2.9063,3.0456,3.0521,3.2083,3.3102,3.3318,3.4093,3.4558,3.4622,3.5339,3.5677,3.5677,3.5677,3.5688,3.5699,3.5622,3.5622,3.557,3.5261,3.5124,3.5086,3.5124,3.5124,3.5141,3.546,3.5584,3.5545,3.5776,3.5738,3.5493,3.5647,3.5415,3.4884,3.3505,3.2871,3.2522,3.1715,3.1458,3.1458,3.1458,3.1458,3.1458,3.1458,3.1458,3.1458,3.1458,3.1458,3.1458,3.1458,3.2082,3.2632,3.2632,3.3256,3.3807,3.3807,3.3183,3.2889,3.366,3.3807,3.3807,3.3844,3.4541,0.0,3.6229,3.7037,3.7845,3.8615,3.7257,3.6303,3.6303,3.4,3.2437,3.2032,3.0459,2.9062,2.8053,2.6848,2.5883,2.5177,2.3369,2.2395,2.2327,0.0,0.0,0.0,0.0,0.0,0.0,0.0,0.0,0.0,0.0,0.0,0.0,0.0,0.0,0.0,0.0,0.0,0.0,0.0,0.0,0.0,0.0,2.3702,2.3947,2.5801,2.7535,2.8647,2.9433,2.9939,3.0113,3.07,3.1219,3.1627,3.2733,3.3467,3.3665,3.4515,3.5038,3.5034,3.5417,3.557,3.5403,3.557,3.5637,3.5622,3.5622,3.5584,3.5532,3.5489,3.5346,3.5124,3.5324,3.527,3.5141,3.5499,3.5622,3.5507,3.5622,3.5622,3.5479,3.5308,3.4926,3.4345,3.3759,3.3519,3.344,3.322,3.3146,3.3146,3.3146,3.3146,3.3146,3.3146,3.3146,3.3146,3.3146,3.3146,3.3146,3.3146,3.3293,3.3476,3.3476,3.366,3.3807,3.3807,3.3623,3.355,3.377,3.3807,3.399,3.455,3.5422,0.0,3.7037,3.7881,3.8469,3.8689,3.7257,3.615,3.5805,3.3626,3.1787,3.0802,2.9001,2.8092,2.8258,2.7186,2.6482,2.6277,2.5232,2.4188,0.0,0.0,0.0,0.0,0.0,0.0,0.0,0.0,0.0,0.0,0.0,0.0,0.0,0.0,0.0,0.0,0.0,0.0,0.0,0.0,0.0,0.0,2.3291,2.5019,2.5894,2.7464,2.8888,2.986,3.0185,3.0549,3.1051,3.1369,3.1713,3.2083,3.2938,3.3504,3.3646,3.4417,3.4768,3.4486,3.5201,3.5396,3.4958,3.5411,3.5622,3.5622,3.5622,3.5584,3.5493,3.5422,3.5362,0.0,3.5324,3.5324,3.5346,3.558,3.5637,0.0,0.0,0.0,0.0,0.0,3.4735,3.4176,3.4018,3.3902,3.3807,3.3807,3.3807,3.3807,3.3807,3.3807,3.3807,3.3807,3.3662,3.355,3.355,3.355,3.355,3.355,3.3662,3.3807,3.3807,3.3807,3.3807,3.3807,3.3807,0.0,3.4247,3.4321,3.4468,3.4917,3.6046,3.6964,3.747,3.8212,3.8689,3.8689,3.7363,3.623,3.5648,3.3548,0.0,0.0,0.0,2.8243,2.815,2.7233,0.0,0.0,0.0,0.0,0.0,0.0,0.0,0.0,2.7334,2.774,0.0,0.0,0.0,0.0,0.0,0.0,0.0,0.0,0.0,0.0,0.0,0.0,0.0,0.0,0.0,0.0,2.4368,2.6029,2.7846,2.8747,2.955,3.0462,3.027,3.0216,3.0723,3.1366,3.1896,3.2135,3.283,3.3313,3.3529,0.0,0.0,0.0,0.0,3.5271,3.4588,3.5327,3.565,3.5599,3.5597,3.5584,3.5493,3.5239,3.5254,3.5493,3.5277,3.5346,3.5622,3.5699,3.5662,3.565,3.5779,3.5671,3.5383,3.5157,3.4695,3.4152,3.4152,0.0,0.0,3.3807,3.3807,3.3807,3.3807,3.3807,3.3807,3.3807,3.355,3.3262,3.3196,3.3196,3.3196,3.3196,3.3465,3.3716,3.3807,3.3807,3.3807,3.3807,3.388,3.4174,3.488,3.499,3.5064,3.5247,3.656,3.7544,3.7624,3.8248,3.8689,3.8689,0.0,0.0,3.5696,3.3661,3.2021,3.0941,3.0214,2.9316,2.8247,2.7706,2.8044,2.9367,2.957,3.0552,3.2408,3.3322,3.4134,3.4675,3.1292,3.0818,0.0,0.0,0.0,0.0,0.0,0.0,0.0,0.0,0.0,0.0,0.0,0.0,0.0,0.0,0.0,2.3529,2.5517,2.6985,2.7,2.9042,3.0488,3.037,3.0309,3.0451,3.0967,3.1164,3.1571,3.2367,3.2585,3.3045,3.3857,3.4001,3.4295,3.4773,3.5252,3.5371,3.5088,3.5423,3.5638,3.5663,0.0,0.0,3.5584,3.5542,3.5504,3.5493,3.5504,3.5542,3.5622,3.5776,3.5803,3.5689,3.5597,3.5277,3.4851,3.4812,3.4398,3.3876,3.3876,3.3823,3.3807,3.3807,3.3807,3.3807,3.3807,3.3807,0.0,3.3807,3.3716,3.3606,3.3255,3.3196,3.3196,3.3196,3.3291,3.3408,3.3753,3.3807,3.3807,3.3807,3.4321,3.4807,3.4954,3.499,3.5459,3.6817,3.7294,3.7734,3.8395,3.8615,3.8689,3.8689,3.7475,3.6499,3.5972,3.4056,3.2634,3.2032,3.1856,3.1409,3.0581,3.1562,3.1968,3.1664,3.2814,3.3355,3.3186,3.5182,3.6197,3.6299,3.4979,3.4912,0.0,0.0,0.0,0.0,0.0,0.0,0.0,0.0,0.0,0.0,0.0,2.0631,2.154,0.0,1.818,1.8862,1.594,1.5437,2.1041,2.2059,2.4177,2.9402,3.0014,3.0101,3.0192,3.0513,3.0517,2.9949,3.1464,3.2146,3.1537,3.3235,3.4269,3.4301,3.5622,3.6128,3.5651,3.6631,3.7089,3.7038,3.7023,3.6984,3.6867,3.6392,3.6392,3.6738,3.6406,3.6279,3.626,3.594,3.5736,3.5647,3.5392,3.5157,3.4889,3.4753,3.4398,3.3968,3.386,3.3807,3.3807,3.3807,3.3807,3.3807,3.3807,3.3807,3.3807,3.3807,3.3634,3.3465,3.3225,3.3014,3.3028,3.364,3.381,3.4009,3.4861,3.5055,3.5055,3.5055,3.5385,3.5789,3.6193,3.6266,3.6523,3.7367,3.7845,3.8248,3.8652,3.8689,3.8689,3.8689,3.7672,3.6684,3.6041,3.4276,3.31,3.2889,3.2848,3.2679,3.2307,3.3355,3.3964,3.3964,3.5047,3.5656,3.5656,3.7178,3.7889,3.7889,3.7855,3.7855,0.0,0.0,0.0,0.0,0.0,0.0,0.0,0.0,1.9114,2.0133,2.1384,2.2528,2.3355,1.7785,1.2843,1.21,0.4205,0.1452,1.1015,1.2696,1.6376,2.5629,2.8507,2.9544,2.9124,2.9848,2.9744,2.8181,3.0798,3.1742,3.0085,3.2892,3.4338,3.3939,3.6018,3.69,3.6323,3.7797,3.8514,3.8411,3.8332,3.8267,3.8137,3.7315,3.7353,3.7969,3.7411,3.723,3.7253,3.6518,3.6162,3.6108,3.5703,3.5581,3.5508,3.5018,3.478,3.4636,3.4381,3.4284,3.4274,3.4144,3.4081,3.399,3.3923,3.3823,3.3844,3.399,3.3806,3.3544,3.3538,3.3287,3.3336,3.4271,3.4578,3.4914,3.6033,3.6303,3.6303,3.6303,3.6413,3.6743,3.7397,3.7624,3.7734,3.7734,3.8285,3.8689,3.8689,3.8689,3.8658,3.8564,3.7756,3.6849,3.599,3.4644,3.3829,3.3829,3.3829,3.3897,3.4066,3.4607,3.5284,3.6062,3.6806,3.7516,3.8125,3.8836,3.9208,3.9208,3.9817,3.9749,1.6753,1.5874,1.5925,1.8213,1.8247,1.8928,0.0,0.0,2.288,2.4542,2.4806,2.4818,2.5235,1.8998,1.1657,0.513,-0.2384,-0.6615,-0.429,0.4472,1.2038,1.5695,2.3981,2.9129,2.8401,2.9479,3.0384,3.0795,3.2195,3.3164,3.3494,3.4255,3.4915,3.5456,3.6487,3.7035,3.7092,3.7963,3.8404,3.84,3.8336,3.8228,3.8108,3.793,3.7892,3.8022,3.8103,3.8254,3.8392,3.8112,3.8012,3.7954,3.7424,3.7241,3.7072,3.5837,3.585,3.6373,3.6113,3.6009,3.5956,3.5465,3.5114,3.4779,3.4315,3.3968,3.3954,3.466,3.4816,3.479,3.465,3.493,3.5166,3.4833,3.5106,3.5634,3.6179,3.6303,3.6303,3.6303,3.6853,3.7397,3.7507,3.8102,3.8579,3.8579,3.8652,3.8689,3.8689,3.8689,3.8496,3.8032,3.7506,3.679,3.5718,3.5464,3.5351,3.5351,3.5351,3.569,3.6366,3.6468,3.6874,3.7652,3.8362,3.8768,3.887,3.9614,3.9952,3.9952,4.0054,4.0054,1.9673,1.9735,2.0025,0.0,2.1129,2.2115,2.4215,2.4156,2.3964,2.4856,2.42,2.264,1.9967,1.1312,0.2626,0.0,-1.2742,-1.7114,-1.1001,-0.698,-0.0216,1.1768,1.5728,2.0309,2.7569,2.9166,2.9449,2.8798,3.1824,3.3255,3.2169,3.4127,3.5374,3.5636,3.7031,3.7772,3.7848,3.9137,3.978,3.9796,3.9739,3.9689,3.9585,3.9008,3.8777,3.8806,3.8916,3.8974,3.9004,3.844,3.8161,3.8055,3.7509,3.7661,3.8099,3.6691,3.641,3.6682,3.6408,3.6303,3.6258,3.603,3.5864,3.5707,3.5477,3.5349,3.5312,3.5679,3.5752,3.574,3.5665,3.5643,3.572,3.6254,3.6331,3.6576,3.7461,3.7698,3.7698,3.7698,3.7955,3.8212,3.8212,3.8469,3.8689,3.8689,3.8689,3.8689,3.8689,3.8689,3.8401,3.7578,3.702,3.6416,3.5667,3.5622,3.5825,3.6265,3.6299,3.6637,3.7415,3.7855,3.8227,3.8531,3.9242,3.9614,3.9614,3.9918,4.0087,4.0087,4.0087,4.0324,2.1228,2.2046,0.0,2.2201,2.316,2.4217,2.4405,2.4386,2.4185,2.3766,2.3169,2.1425,1.7051,0.6259,-0.4796,-1.3428,-2.1357,-2.4153,-1.7818,-1.583,-0.9806,0.4389,0.7852,1.3599,2.5067,2.769,2.8595,2.8425,3.1793,3.3278,3.2052,3.4389,3.574,3.5623,3.7374,3.8287,3.8287,3.9976,4.0801,4.0762,4.0731,4.0677,4.0639,3.9868,3.9615,3.9769,3.9651,3.9663,3.9715,3.9084,3.8777,3.867,3.8039,3.8277,3.8854,3.7667,3.7299,3.7326,3.7043,3.6964,3.6956,3.6785,3.6683,3.6589,3.6454,3.6352,3.634,3.656,3.6633,3.6641,3.6705,3.6619,3.6635,3.7442,3.7458,3.7576,3.8517,3.8689,3.8689,3.8689,3.8689,3.8689,3.8689,3.8872,3.9019,3.9019,3.9239,3.9203,3.8762,3.8433,3.8034,3.7285,3.662,3.6028,3.5622,3.5825,3.6197,3.6738,3.6975,3.7415,3.8159,3.8734,3.9073,3.9276,3.9817,4.0087,4.0087,4.0087,4.0087,4.0087,4.029,4.0696,2.0427,0.0,2.201,2.2681,2.3477,2.4301,2.5096,2.4893,2.3961,2.182,2.2721,2.2887,1.9761,0.7706,-0.7517,-2.534,-2.6193,-2.5293,-2.7338,-1.984,-1.2993,-0.9974,0.1738,1.2553,0.0,2.4445,2.8311,3.1942,3.279,3.3719,3.5096,3.5638,3.5817,3.5688,3.7382,3.8315,3.8308,3.9985,4.077,4.0693,4.0716,4.0639,4.0508,4.0212,4.0307,4.0639,4.0331,4.0408,4.0754,4.0677,4.0639,4.0553,3.9823,3.9542,3.951,3.8876,3.881,3.8989,3.873,3.8615,3.8529,3.8025,3.7692,3.7382,3.6838,3.6509,3.645,3.7221,3.7441,3.7497,3.7775,3.8227,3.8491,3.8029,3.8263,3.8621,3.8689,3.8689,3.8689,3.8689,3.8689,3.8689,3.8689,3.935,3.9863,3.9863,4.0524,4.0487,3.8909,3.7861,3.721,3.721,3.6249,3.5622,3.5622,3.6332,3.6738,3.6772,3.7483,3.8193,3.8937,3.8971,3.9309,4.002,4.0054,4.0087,4.0087,4.0087,4.0087,4.0087,4.0832,4.117,2.1875,2.2738,2.34,2.364,2.4312,2.4941,2.4846,2.3599,2.2508,2.2623,1.7876,1.2278,0.7397,-0.1798,-1.2415,-2.3915,-2.6242,-2.7403,-2.9652,-2.7253,-2.2303,-1.4311,-0.7596,0.0,0.0,0.0,0.0,3.0421,3.1638,3.2725,3.377,3.486,3.5484,3.557,3.6661,3.7507,3.8108,3.9238,4.0062,4.0562,4.0562,4.0444,4.0251,4.0158,4.0158,4.0289,4.0174,4.03,4.06,4.06,4.0562,4.0515,3.9861,3.958,3.9548,3.8913,3.878,3.8833,3.8719,3.8689,3.8652,3.8508,3.8375,3.8279,3.8103,3.7971,3.7955,3.8212,3.8285,3.8328,3.8392,3.8528,3.8658,3.8465,3.8596,3.8689,3.8689,3.8689,3.8689,3.8689,3.9129,3.9496,3.9496,4.0157,4.0708,4.0708,4.0928,4.0928,4.0377,3.9409,3.873,3.873,3.7767,3.7144,3.7144,3.7381,3.7719,3.8227,3.8497,3.8937,3.9681,3.9715,3.9817,4.0087,4.0087,4.0087,4.0087,4.0087,4.0087,4.0087,4.0865,4.1474,2.2997,2.3755,2.4159,2.4476,2.4894,2.5007,2.3993,2.3027,2.1522,1.8815,1.5732,1.0359,0.0173,-0.8989,-1.6984,-2.314,-2.5374,-2.7458,-3.0461,-3.0625,-2.7762,-2.0605,-1.7132,0.0,0.0,0.0,0.0,2.9186,3.0452,3.1629,3.3141,3.4481,3.5113,3.4975,3.6082,3.7094,3.7824,3.8823,3.97,4.0508,4.0562,4.0394,4.012,3.9982,3.983,3.9643,3.983,3.9891,3.9934,4.0323,4.0438,4.0321,3.9819,3.958,3.9548,3.8913,3.8689,3.8689,3.8689,3.8689,3.8689,3.8689,3.8689,3.8689,3.8689,3.8689,3.8689,3.8689,3.8689,3.8689,3.8689,3.8689,3.8689,3.8689,3.8689,3.8689,3.8689,3.8689,3.8799,3.9056,3.9533,3.9974,4.0267,4.1001,4.1625,4.1919,4.1821,4.1533,4.1152,4.0165,3.9509,3.9509,3.856,3.7922,3.7922,3.8159,3.8497,3.8971,3.9242,3.958,4.0054,4.0087,4.0087,4.0087,4.0087,4.0087,4.0087,4.0087,4.0223,4.0493,4.1238,4.1982,2.3658,2.4111,2.4361,2.5139,2.5152,2.4487,2.2729,2.2959,2.0861,1.124,1.5761,1.6123,-0.1431,0.0,-2.0445,-2.3212,-2.3931,-2.5704,-3.0187,-3.0156,-2.9369,0.0,0.0,0.0,0.0,0.0,0.0,2.7966,0.0,3.0576,3.3342,3.4555,3.4831,3.4106,3.5734,3.6919,3.7542,3.8738,3.9677,4.0462,4.0562,4.0411,4.0043,3.9678,3.9283,3.8899,3.9391,3.9321,3.8937,4.0044,4.0339,4.0062,3.9731,3.958,3.9548,3.8913,3.8689,3.8689,3.8689,3.8689,3.8689,3.8689,3.8689,3.8689,3.8689,3.8689,3.8689,3.8689,3.8689,3.8689,3.8689,3.8689,3.8689,3.8689,3.8689,3.8726,3.8762,3.8762,3.9019,3.979,3.9974,4.0267,4.1075,4.1882,4.2616,4.3387,4.3069,4.2339,4.1306,4.0272,3.9575,3.9575,3.8618,3.8024,3.8024,3.8633,3.9039,3.9039,3.9681,4.0087,4.0087,4.0087,4.0087,4.0087,4.0087,4.0087,4.0087,4.0087,4.046,4.1238,4.1948,4.2692,2.3813,2.4553,2.5039,2.4857,2.4563,2.399,2.2661,2.0665,1.7356,1.1079,0.9963,0.74,-0.1314,0.0,0.0,-1.8768,-2.307,0.0,-2.9563,-3.0312,0.0,0.0,0.0,-1.8114,-0.6209,0.2679,0.0,0.0,2.6558,3.0203,3.3379,3.4357,3.4908,3.5114,3.5575,3.6171,3.6934,3.8569,3.9548,3.982,3.9766,3.9554,3.9188,3.8795,3.9056,3.9757,3.964,3.9683,3.9834,4.0312,4.0339,4.0062,3.9731,3.958,3.9548,3.8913,3.8689,3.8689,3.8689,3.8689,3.8689,3.8689,3.8689,3.8689,3.8689,3.8689,3.8689,3.8689,3.8689,3.8689,3.8689,3.8689,3.8689,3.8689,3.8689,3.8872,3.946,3.957,3.9827,4.0634,4.1295,4.1956,4.2763,4.3057,4.324,4.3461,4.3069,4.2587,4.2303,4.125,4.0558,4.0558,3.9932,3.9512,3.9512,3.9681,3.9817,3.9817,3.9986,4.0087,4.0087,4.0087,4.0087,4.0087,4.0087,4.0087,4.0087,4.0087,4.046,4.1238,4.1948,4.2692,2.4164,2.4864,2.528,2.479,2.2299,1.9759,1.8949,1.8374,1.5824,0.8103,0.7118,0.0,-0.1104,0.0,0.0,0.0,0.0,0.0,-2.9218,-3.016,-3.0076,0.0,-2.6237,0.0,-1.3989,-0.51,0.4565,0.0,2.4262,3.0431,3.2891,3.4106,3.4695,3.4661,3.52,3.5916,3.6762,3.8196,3.8965,3.9015,3.8937,3.8711,3.8362,3.7963,3.8033,3.8442,0.0,3.8841,3.8836,3.9888,4.0139,3.984,3.9687,3.958,3.9548,3.8913,3.8689,3.8689,3.8689,3.8689,3.8689,3.8689,3.8689,3.8689,3.8689,3.8689,3.8689,3.8689,3.8689,3.8689,3.8689,3.8689,3.8799,3.9129,3.9239,3.946,4.0267,4.0414,4.0671,4.1479,4.2286,4.2947,4.3424,4.3497,4.3497,4.3497,4.2846,4.2302,4.2302,4.1473,4.092,4.092,4.0417,4.0087,4.0087,4.0087,4.0087,4.0087,4.0087,4.0087,4.0087,4.0087,4.0087,4.0087,4.0087,4.0087,4.0087,4.0392,4.0967,4.1711,4.2455,4.32,2.3366,2.3297,2.314,2.1993,1.7238,1.2773,1.2659,1.4988,1.4453,0.4877,0.0,0.7975,0.0572,-0.5517,-1.1384,-1.7308,0.0,-2.6354,-2.8604,-2.9582,-2.9801,-2.9078,-2.8387,-2.6009,-2.107,-1.294,-0.307,0.8858,2.2618,3.1111,3.2527,3.3833,3.43,3.3707,3.4867,3.5955,3.6877,3.7734,3.8121,3.8121,3.8143,3.7957,3.757,3.7167,3.6841,3.6764,3.7549,0.0,3.764,3.9333,3.984,3.9618,3.9534,3.951,3.9476,3.8921,3.8689,3.8689,3.8689,3.8689,3.8689,3.8689,3.8689,3.8689,3.8689,3.8689,3.8689,3.8689,3.8689,3.8726,3.8836,3.8872,3.9056,3.9863,4.0047,4.0267,4.1111,4.1368,4.1625,4.2323,4.302,4.3497,4.3497,4.3497,4.3497,4.3497,4.2619,4.1895,4.181,4.1206,4.0827,4.092,4.0417,4.0138,4.0204,4.0104,4.0087,4.0087,4.0087,4.0087,4.0087,4.0087,4.0087,4.0087,4.0087,4.0121,4.0223,4.0899,4.1644,4.2455,4.3098,4.3842,1.7279,1.4524,1.1842,0.6744,0.4203,0.3309,0.4607,0.7386,0.0,0.0,1.0116,1.1576,0.8157,0.1056,0.0,-1.1869,0.0,0.0,0.0,0.0,-2.9051,0.0,0.0,0.0,0.0,0.0,0.0,0.0,0.0,3.2252,3.4018,3.3907,3.3931,3.4266,3.5059,3.593,3.6881,3.7104,3.7247,3.7247,3.7215,3.7172,3.7017,3.6388,3.7091,3.8738,3.8154,0.0,3.9564,3.9662,3.9664,3.9557,3.9289,3.9186,3.9171,3.8833,3.8689,3.8689,3.8689,3.8689,3.8689,3.8689,3.8689,3.8689,3.8689,3.8689,3.8689,3.8689,3.8689,3.8836,3.9533,3.968,3.99,4.0708,4.0891,4.1111,4.1919,4.2616,4.313,4.324,4.3387,4.3497,4.3497,4.3497,4.3497,4.3497,4.2958,4.2342,4.1853,4.0908,4.0417,4.0874,4.0417,4.0303,4.0733,4.0368,4.0087,4.0087,4.0087,4.0087,4.0087,4.0087,4.0087,4.0087,4.0087,4.0392,4.1001,4.1136,4.1914,4.3234,4.3369,4.3842,1.3809,0.9165,0.4419,0.1198,-0.1929,-0.3206,0.0761,0.0,0.0,0.0,1.0167,1.1578,0.7918,0.0,0.0,0.0,0.0,0.0,0.0,0.0,0.0,0.0,0.0,0.0,0.0,0.0,0.0,0.0,0.0,3.1751,3.3556,3.4006,3.4417,3.4971,3.5184,3.5599,3.6213,3.6261,3.6279,3.6313,3.6279,3.625,3.621,3.559,3.6179,3.7725,3.7242,0.0,3.8968,3.9239,3.9339,3.9314,3.916,3.908,3.909,3.8803,3.8689,3.8689,3.8689,3.8689,3.8689,3.8689,3.8689,3.8689,3.8689,3.8689,3.8799,3.9203,3.9313,3.9496,4.0304,4.0524,4.0744,4.1552,4.2029,4.2433,4.2837,4.3204,4.3497,4.3497,4.3497,4.3497,4.3497,4.3497,4.3497,4.3497,4.3069,4.2616,4.2302,4.1508,4.0967,4.092,4.0672,4.0625,4.0874,4.0638,4.0417,4.0138,4.0087,4.0087,4.0087,4.0087,4.0254,4.048,4.0628,4.0985,4.1679,4.2106,4.2726,4.3436,4.3842,4.4451,0.9793,0.3319,-0.3364,-0.4946,-0.8476,-0.9899,-0.3656,-0.2639,0.0,0.0,0.9312,1.0531,0.5935,0.0,-0.6227,0.0,0.0,0.0,0.0,0.0,0.0,0.0,0.0,0.0,0.0,0.0,0.0,0.0,0.0,0.0,3.2775,3.398,3.4718,3.4937,3.5081,3.5293,3.5475,3.5556,3.5596,3.5655,3.5547,3.5513,3.5475,3.487,3.5302,3.6464,3.637,0.0,0.0,3.8803,3.9063,3.908,3.9036,3.9008,3.9017,3.8773,3.8689,3.8689,3.8689,3.8689,3.8689,3.8689,3.8689,3.8689,3.8689,3.8836,3.9093,3.9717,4.001,4.0341,4.1148,4.1368,4.1552,4.2359,4.302,4.3497,4.3497,4.3497,4.3497,4.3497,4.3497,4.3497,4.3497,4.3497,4.3497,4.3497,4.3142,4.2808,4.2693,4.2302,4.181,4.134,4.1024,4.0932,4.107,4.0874,4.0528,4.0138,4.0087,4.0087,4.0087,4.0087,4.0368,4.092,4.1268,4.1797,4.2532,4.3254,4.3688,4.3858,4.4393,4.4993,0.2535,-0.6079,-1.4797,-1.984,-2.1087,-1.923,-1.2358,0.0,0.0,0.4861,0.8875,0.9866,0.5844,0.0768,-0.5456,-1.3601,-1.6218,-1.8534,0.0,0.0,0.0,0.0,0.0,0.0,0.0,0.0,0.0,0.0,0.0,0.0,3.2533,3.3722,3.4054,3.3194,3.4661,3.5369,3.5157,3.546,3.5559,3.5509,3.5321,3.5204,3.5141,3.4513,3.5267,3.6977,3.6488,0.0,0.0,3.8933,3.8884,3.909,3.8826,3.875,3.875,3.8689,3.8689,3.8689,3.8689,3.8689,3.8689,3.8689,3.8689,3.8689,3.8689,3.9203,3.979,3.9863,4.0414,4.1185,4.1992,4.2176,4.2396,4.3204,4.3424,4.3497,4.3497,4.3497,4.3497,4.3497,4.3497,4.3497,4.3497,4.3497,4.3497,4.3497,4.3463,4.325,4.2732,4.2655,4.2616,4.2537,4.1516,4.1115,4.1682,4.0767,4.0154,4.0138,4.0087,4.0087,4.0087,4.0087,4.0368,4.092,4.1717,4.273,4.3915,4.4182,4.4681,4.5321,4.4818,4.4993,-0.1627,-1.1477,-2.1601,-2.3806,-2.3314,-2.0532,-1.3759,0.0,-0.5056,0.1459,0.5274,0.5686,-0.0094,-0.3163,-0.6933,-1.3419,-1.524,-1.7084,-2.0761,0.0,0.0,0.0,0.0,0.0,0.0,0.0,0.0,0.0,0.0,0.0,2.9585,3.1724,3.3149,3.3545,3.3896,3.4312,3.487,3.5001,3.5054,3.5016,3.4927,3.487,3.4851,3.4944,3.5688,3.6881,3.6971,0.0,0.0,3.8773,3.8743,3.8826,3.875,3.8689,3.8689,3.8689,3.8689,3.8689,3.8689,3.8689,3.8799,3.9276,3.9423,3.9423,3.9423,3.9974,4.0708,4.1222,4.1589,4.2029,4.28,4.302,4.3094,4.3424,4.3497,4.3497,4.3497,4.3497,4.3497,4.3497,4.3497,4.3391,4.3069,4.3286,4.3391,4.3069,4.3286,4.3391,4.3214,4.3178,4.3178,4.3178,4.2144,4.1516,4.1768,4.1059,4.0466,4.0138,4.0087,4.0087,4.0087,4.0087,4.0768,4.2176,4.2614,4.3664,4.5387,4.5124,4.5217,4.5528,4.5329,4.5669,-0.3536,-1.3377,-2.3606,-2.3606,-2.2736,-2.0122,0.0,-1.0689,-0.7572,-0.1361,0.1065,0.054,-0.4381,-0.6876,-0.9584,-1.3833,-1.5187,-1.6868,-2.0236,0.0,0.0,0.0,0.0,0.0,0.0,0.0,0.0,0.0,0.0,0.0,2.7261,2.9428,3.1394,3.3029,3.3283,3.3685,3.4383,3.4593,3.4713,3.4713,3.4593,3.4508,3.4383,3.5045,3.5721,3.6427,3.7169,0.0,0.0,3.8689,3.8689,3.8689,3.8689,3.8689,3.8689,3.8689,3.8689,3.8689,3.8689,3.8689,3.8836,3.9643,4.0047,4.0304,4.0524,4.1001,4.1589,4.2139,4.247,4.2729,4.3139,4.3356,4.3391,4.3069,4.3105,4.3214,4.3032,4.2995,4.2995,4.2995,4.3142,4.3142,4.2806,4.3142,4.3356,4.2958,4.325,4.3497,4.3497,4.3497,4.3497,4.3497,4.2657,4.1979,4.181,4.1105,4.0577,4.0319,4.0204,4.0154,4.0319,4.0607,4.1449,4.2987,4.3789,4.4929,4.6472,4.5965,4.58,4.5749,4.5747,4.621,-0.3077,-1.1391,-2.0137,-2.0137,-2.0435,-1.9136,0.0,-1.1184,-0.8993,-0.2763,-0.3405,-0.5135,-0.5269,-0.9419,-1.3325,-1.4859,-1.6222,-1.8053,-2.0797,0.0,0.0,0.0,0.0,0.0,0.0,0.0,0.0,0.0,0.0,0.0,2.6404,2.7077,2.8498,3.0881,3.2915,3.387,3.3613,3.436,3.4713,3.4713,3.4338,3.3994,3.365,3.4578,3.5221,0.0,0.0,0.0,0.0,3.8689,3.8689,3.8689,3.8689,3.8689,3.8689,3.8689,3.8689,3.8689,3.8689,3.8689,3.8836,3.9643,4.0451,4.1258,4.2029,4.2286,4.2286,4.2286,4.2873,4.3356,4.2846,4.3105,4.325,4.2103,4.2262,4.2537,4.1937,4.181,4.181,4.181,4.2302,4.2693,4.2693,4.3142,4.3497,4.3497,4.3497,4.3497,4.3497,4.3497,4.3497,4.3497,4.2995,4.2422,4.1853,4.0767,4.0319,4.0874,4.0417,4.0319,4.0874,4.173,4.2474,4.2987,4.5156,4.6553,4.7094,4.6605,4.6365,4.6401,4.5932,4.6515,-0.3722,-1.131,-1.9076,-1.9287,-1.93,-1.844,-1.5331,-1.4818,-1.3856,-0.9621,-0.9908,-1.0927,-1.0917,-1.221,-1.4271,-1.7164,-1.7653,-1.8536,0.0,0.0,0.0,0.0,0.0,0.0,0.0,0.0,0.0,0.0,0.0,0.0,2.3473,2.4311,2.6404,3.0013,3.0878,3.1913,3.3306,3.3561,3.3802,3.4105,3.3707,3.3449,3.3343,3.4407,3.4932,0.0,0.0,0.0,0.0,3.7826,3.8101,3.8658,3.83,3.8401,3.8689,3.8689,3.8689,3.8689,3.8689,3.9056,3.9643,4.0451,4.1258,4.2066,4.2873,4.313,4.313,4.313,4.3277,4.3463,4.3286,4.3105,4.2846,4.2501,4.2262,4.2021,4.1853,4.181,4.181,4.181,4.1937,4.2062,4.2062,4.2541,4.2921,4.2921,4.325,4.3497,4.3497,4.3497,4.3497,4.3497,4.3032,4.2458,4.1853,4.1464,4.115,4.092,4.115,4.1331,4.1508,4.2335,4.327,4.4402,4.5647,4.6644,4.7275,4.6676,4.649,4.6687,4.7053,4.7733,-0.5269,-1.135,-1.7322,-1.7512,-1.7686,-1.734,-1.5651,-1.5613,-1.5319,-1.2963,-1.2944,-1.3387,-1.3402,-1.3553,-1.4565,-1.7201,-1.7214,-1.7928,0.0,0.0,0.0,0.0,0.0,0.0,0.0,0.0,0.0,0.0,0.0,0.0,2.0772,2.23,2.469,2.8023,2.9111,3.059,3.2663,3.2858,3.3075,3.3314,3.3075,3.2822,3.2699,3.3842,3.4447,0.0,0.0,0.0,0.0,3.7323,3.7578,3.8135,3.7964,3.8099,3.8433,3.8627,3.8596,3.8401,3.8401,3.8776,3.944,4.0482,4.1674,4.2837,4.3351,4.3497,4.3463,4.325,4.3214,4.3069,4.2621,4.2426,4.2262,4.181,4.1595,4.142,4.1196,4.115,4.115,4.115,4.1331,4.1516,4.1768,4.2302,4.277,4.2995,4.3286,4.3497,4.3497,4.3497,4.3497,4.3497,4.3214,4.277,4.2221,4.1937,4.1768,4.1595,4.1725,4.2037,4.2573,4.3364,4.4354,4.5513,4.6549,4.7166,4.7385,4.6779,4.6621,4.6819,4.7564,4.8308,0.0,-1.1487,-1.4888,-1.4891,-1.5551,-1.5736,-1.4186,-1.3984,0.0,-1.3232,-1.3061,-1.3088,-1.3315,-1.3708,-1.4416,-1.5712,-1.5702,0.0,0.0,0.0,0.0,0.0,0.0,0.0,0.0,0.0,0.0,0.0,0.0,0.0,1.8555,2.0991,2.3332,2.5271,2.7506,2.9671,3.1735,3.2161,3.2433,3.2466,3.2502,3.2196,3.1842,3.3073,3.3774,0.0,0.0,0.0,0.0,3.7097,3.7135,3.7248,3.7649,3.7825,3.7893,3.8401,3.8267,3.7859,3.7859,3.8114,3.8593,3.9983,4.176,4.3356,4.3356,4.3391,4.3321,4.2808,4.2655,4.2382,4.1251,4.134,4.1464,4.0417,4.048,4.0685,4.0204,4.0087,4.0087,4.0087,4.048,4.1024,4.1639,4.2262,4.2808,4.3356,4.3497,4.3497,4.3497,4.3497,4.3497,4.3497,4.3497,4.3286,4.277,4.2226,4.2144,4.2655,4.2257,4.2614,4.3927,4.4798,4.5594,4.6354,4.7554,4.7879,4.7342,4.6821,4.6687,4.6819,4.7631,4.8376,-1.0412,0.0,-1.1739,-1.1999,-1.2435,-1.2766,0.0,-1.243,-1.2566,-1.2953,0.0,-1.359,-1.4761,-1.4236,-1.4643,-1.7842,-1.7946,0.0,0.0,0.0,0.0,0.0,0.0,0.0,0.0,0.0,0.0,0.0,0.0,1.8098,1.9336,2.0087,2.178,2.47,2.5348,2.7387,3.1108,3.1223,3.1668,3.2502,3.2127,3.195,3.1912,3.241,3.2969,0.0,0.0,0.0,3.658,3.6122,3.6457,3.7173,3.6865,3.702,3.736,3.7542,3.747,3.736,3.736,3.8209,3.9438,4.0984,4.1782,4.2185,4.2185,4.2541,4.2846,4.2732,4.2382,4.1937,4.1682,4.134,4.1024,4.078,4.048,4.0254,4.0138,4.0087,4.0087,4.0087,4.0204,4.0466,4.1013,4.1639,4.2185,4.2808,4.325,4.3497,4.3497,4.3497,4.3497,4.3497,4.3497,4.3463,4.3321,4.3178,4.2995,4.2693,4.3539,4.4163,4.4492,4.5881,4.6722,4.6905,4.6866,4.6774,4.6635,4.6685,4.6758,4.6819,4.8139,4.8849,-1.0556,-1.1598,-1.2688,-1.2734,-1.282,-1.2762,-1.2326,-1.1974,-1.1836,0.0,0.0,-1.3484,-1.432,-1.3645,-1.3759,-1.6248,-1.5452,0.0,0.0,0.0,0.0,0.0,0.0,0.0,0.0,0.0,0.0,0.0,0.0,1.7938,1.872,1.9399,2.0856,2.3264,2.3606,2.5681,2.9692,3.0054,3.067,3.1479,3.0982,3.0858,3.1201,3.1288,3.1641,0.0,0.0,0.0,3.5135,3.5453,3.5941,3.6457,3.6416,3.658,3.6865,3.7097,3.702,3.6825,3.6825,3.7842,3.9315,4.0508,4.1314,4.181,4.181,4.1853,4.1895,4.1895,4.1639,4.1296,4.1059,4.0767,4.0528,4.0528,4.0319,4.0087,4.0087,4.0087,4.0087,4.0087,4.0087,4.0303,4.0827,4.1385,4.1979,4.2616,4.3178,4.3497,4.3497,4.3497,4.3497,4.3497,4.3497,4.3497,4.3497,4.3497,4.3539,4.3615,4.4309,4.5039,4.5773,4.6654,4.7278,4.7645,4.6829,4.6542,4.6931,4.688,4.6955,4.7327,4.8477,4.9018,-0.9916,-1.2413,-1.4829,-1.4205,-1.4046,-1.3679,-1.2545,0.0,0.0,0.0,0.0,0.0,0.0,0.0,0.0,0.0,0.0,0.0,0.0,0.0,0.0,0.0,0.0,0.0,0.0,0.0,0.0,0.0,0.0,1.7578,1.7578,1.898,2.0374,2.161,2.2346,2.4316,2.7652,2.8653,2.9456,3.0182,2.9629,2.9673,3.0149,3.0149,3.0282,3.0601,0.0,0.0,3.371,3.4834,3.5431,3.5667,3.6114,3.6249,3.6333,3.6786,3.6701,3.6326,3.6429,3.7396,3.8718,3.9433,4.0523,4.1552,4.1552,4.1196,4.078,4.078,4.078,4.0638,4.0204,4.0087,4.0087,4.0087,4.0087,4.0087,4.0087,4.0087,4.0087,4.0087,4.0087,4.0254,4.0685,4.1251,4.1853,4.2462,4.2995,4.3428,4.3497,4.3497,4.3497,4.3497,4.3497,4.3497,4.3497,4.3608,4.4011,4.4856,4.4892,4.5626,4.7241,4.7278,4.7609,4.8306,4.7044,4.679,4.7603,4.7086,4.7192,4.7936,4.868,4.9052,-1.1318,-1.3051,-1.3849,-1.1743,-1.1911,-1.2305,-1.1085,-1.0588,0.0,0.0,0.0,0.0,0.0,0.0,0.0,0.0,0.0,0.0,0.0,0.0,0.0,0.0,0.0,0.0,0.0,0.0,0.0,0.0,0.0,0.0,1.7578,1.898,2.0144,2.0927,2.2078,2.3271,2.4423,2.6642,2.8397,2.954,2.9451,2.9451,2.954,2.954,2.9881,3.0523,0.0,3.1936,3.3598,3.3822,3.4609,3.5622,3.5711,3.5722,3.5722,3.581,3.5766,3.5824,3.6503,3.7284,3.8133,3.888,3.9691,4.0353,4.0353,4.0303,4.0204,4.0204,4.0204,4.0204,4.0138,4.0087,4.0087,4.0087,4.0087,4.0087,4.0087,4.0087,4.0087,4.0087,4.0087,4.0138,4.0204,4.0672,4.1251,4.1853,4.2422,4.2995,4.3463,4.3497,4.3497,4.3497,4.3497,4.3497,4.3497,4.4121,4.4856,4.5663,4.5736,4.6434,4.8049,4.8122,4.8196,4.8306,4.7044,4.679,4.7603,4.7086,4.7192,4.7936,4.868,4.9323,-1.0518,-1.2021,-1.2968,-1.1368,-1.2522,-1.3642,-1.2159,-1.1315,0.0,0.0,0.0,0.0,0.0,0.0,0.0,0.0,0.0,0.0,0.0,0.0,0.0,0.0,0.0,0.0,0.0,0.0,0.0,0.0,0.0,0.0,1.7762,1.9044,1.994,2.0245,2.1529,2.2484,2.3138,2.4997,2.6764,2.8383,2.8389,2.8575,2.8904,2.8904,2.8951,2.9024,0.0,3.1053,3.2063,3.3154,3.4167,3.5098,3.5453,3.5622,3.5622,3.5622,3.5622,3.5656,3.6028,3.6941,3.7956,3.8294,3.9174,4.0087,4.0087,4.0087,4.0087,4.0087,4.0087,4.0087,4.0087,4.0087,4.0087,4.0087,4.0087,4.0087,4.0087,4.0087,4.0087,4.0087,4.0087,4.0087,4.0087,4.0528,4.107,4.1725,4.2302,4.2884,4.3463,4.3497,4.3497,4.3497,4.3497,4.3497,4.3497,4.4232,4.5223,4.6471,4.6948,4.7535,4.8269,4.8306,4.8306,4.8306,4.7428,4.738,4.8204,4.7553,4.7739,4.8511,4.8849,4.939,-0.9932,-1.1101,-1.2155,-1.1726,0.0,-1.4632,-1.3257,-1.2156,0.0,0.0,0.0,0.0,0.0,0.0,0.0,0.0,0.0,0.0,0.0,0.0,0.0,0.0,0.0,0.0,0.0,0.0,0.0,0.0,0.0,0.0,1.7674,1.8902,1.9685,1.9811,2.0917,2.1766,2.2232,2.3652,2.5394,2.7303,2.7327,2.7709,2.8271,2.8271,2.8057,2.769,2.9152,3.0116,3.071,3.2432,3.367,3.4645,3.534,3.5622,3.5622,3.5622,3.5622,3.5622,3.5622,3.6637,3.7922,3.7922,3.8903,4.0087,4.0087,4.0087,4.0087,4.0087,4.0087,4.0087,4.0087,4.0087,4.0087,4.0087,4.0087,4.0087,4.0087,4.0087,4.0087,4.0087,4.0087,4.0087,4.0087,4.0466,4.0967,4.1682,4.2221,4.2732,4.3391,4.3497,4.3497,4.3497,4.3497,4.3644,4.4011,4.4635,4.5663,4.7278,4.7976,4.8306,4.8306,4.8306,4.8306,4.8306,4.7897,4.8012,4.8735,4.8189,4.8301,4.9018,4.9018,4.9492,-1.0917,-1.1235,-1.1424,-1.2383,-1.2986,0.0,-1.2896,-1.2177,0.0,-1.2087,0.0,0.0,0.0,0.0,0.0,0.0,0.0,0.0,0.0,0.0,0.0,0.0,0.0,0.0,0.0,0.0,0.0,0.0,0.0,0.0,1.7051,1.8331,1.9309,1.9786,2.0497,2.0871,2.0947,2.2808,2.471,2.6669,2.6681,2.704,2.766,2.766,2.761,2.761,2.7771,2.8848,3.0558,3.1405,3.2853,3.4597,3.5307,3.5622,3.5622,3.5622,3.5622,3.5622,3.5622,3.6637,3.7922,3.7922,3.8903,4.0087,4.0087,4.0087,4.0087,4.0087,4.0087,4.0087,4.0087,4.0087,4.0087,4.0087,4.0087,4.0087,4.0087,4.0087,4.0087,4.0087,4.0087,4.0087,4.0087,4.0104,4.0514,4.1639,4.1853,4.2266,4.3356,4.3497,4.3497,4.3497,4.3497,4.4085,4.559,4.5773,4.6507,4.8122,4.8269,4.8306,4.8306,4.8306,4.8306,4.8306,4.8442,4.8586,4.8735,4.8765,4.8873,4.9018,4.9018,4.9763,-0.9826,-1.0392,-1.087,-1.1002,-1.1734,0.0,0.0,-1.2232,-1.1908,-1.1722,-1.0669,0.0,0.0,0.0,0.0,0.0,0.0,0.0,0.0,0.0,0.0,0.0,0.0,0.0,0.0,0.0,0.0,0.0,0.0,0.0,1.7132,1.7989,1.883,1.9786,2.0446,2.0795,2.0795,2.1911,2.3236,2.4828,2.6039,2.6931,2.761,2.761,2.761,2.761,2.761,2.8223,2.9366,3.0548,3.1902,3.3477,3.5014,3.5622,3.5622,3.5622,3.5622,3.569,3.6163,3.7043,3.799,3.843,3.9276,4.0087,4.0087,4.0087,4.0087,4.0087,4.0087,4.0087,4.0087,4.0087,4.0087,4.0087,4.0087,4.0087,4.0087,4.0087,4.0087,4.0087,4.0087,4.0087,4.0087,4.0368,4.0874,4.1682,4.2103,4.2619,4.3391,4.3497,4.3497,4.3497,4.3497,4.4158,4.5773,4.5883,4.6581,4.8196,4.8306,4.8306,4.8306,4.8306,4.8306,4.8306,4.8916,4.9053,4.8735,4.9257,4.9361,4.9018,4.9458,5.0236,-0.9111,-0.9654,-1.016,-0.9769,0.0,0.0,-1.164,-1.1978,-1.2096,-1.1654,-1.0451,0.0,0.0,0.0,0.0,0.0,0.0,0.0,0.0,0.0,0.0,0.0,0.0,0.0,0.0,0.0,0.0,0.0,0.0,0.0,0.0,1.7484,1.8412,1.9535,2.0014,2.0315,2.0497,2.1113,2.209,2.3407,2.4936,2.6208,2.726,2.752,2.761,2.761,2.761,2.7981,2.8667,3.0052,3.1634,3.3421,3.4977,3.5622,3.5622,3.5622,3.5622,3.569,3.6231,3.7077,3.799,3.8497,3.9309,4.0087,4.0087,4.0087,4.0087,4.0087,4.0087,4.0087,4.0087,4.0087,4.0087,4.0087,4.0087,4.0087,4.0087,4.0087,4.0087,4.0087,4.0087,4.0087,4.0087,4.0528,4.107,4.1725,4.2302,4.2884,4.3463,4.3497,4.3497,4.3497,4.3497,4.4158,4.5773,4.5883,4.6581,4.8196,4.8306,4.8306,4.8306,4.8306,4.8306,4.8306,4.9407,4.9524,4.8735,4.9761,4.9846,4.9018,4.9763,5.0507,-0.9222,-0.9132,-0.9178,0.0,0.0,0.0,-1.005,-1.126,-1.2167,-1.2187,0.0,0.0,0.0,0.0,0.0,0.0,0.0,0.0,0.0,0.0,0.0,0.0,0.0,0.0,0.0,0.0,0.0,0.0,0.0,0.0,0.0,1.6686,1.7877,1.8958,1.8983,1.9284,1.9786,2.0446,2.1435,2.2699,2.3285,2.4661,2.6602,2.726,2.756,2.761,2.761,2.7959,2.8604,3.0018,3.2137,3.464,3.5316,3.5577,3.5577,3.5622,3.5622,3.5622,3.5622,3.6637,3.7922,3.7922,3.8903,4.0087,4.0087,4.0087,4.0087,4.0087,4.0087,4.0087,4.0087,4.0087,4.0087,4.0087,4.0087,4.0087,4.0087,4.0087,4.0087,4.0087,4.0087,4.0087,4.0087,4.0528,4.107,4.1725,4.2302,4.2884,4.3463,4.3497,4.3497,4.3497,4.3497,4.4158,4.5773,4.592,4.6581,4.8196,4.8306,4.8306,4.8306,4.8306,4.8306,4.8306,4.9958,5.0105,4.8735,5.0342,5.0369,4.9018,4.9763,5.0507,-0.8802,-0.8923,0.0,-0.8418,0.0,0.0,0.0,-0.9787,0.0,0.0,0.0,0.0,0.0,0.0,0.0,0.0,0.0,0.0,0.0,0.0,0.0,0.0,0.0,0.0,0.0,0.0,0.0,0.0,0.0,0.0,0.0,1.6244,1.7407,1.8933,1.8983,1.9284,1.9786,2.0446,2.1193,2.1987,2.311,2.4704,2.6602,2.6755,2.71,2.761,2.761,2.771,2.8,2.9867,3.133,3.2673,3.425,3.4878,3.4925,3.5407,3.5622,3.569,3.6231,3.7077,3.799,3.8497,3.9309,4.0087,4.0087,4.0087,4.0087,4.0087,4.0087,4.0087,4.0087,4.0087,4.0087,4.0087,4.0087,4.0087,4.0087,4.0087,4.0087,4.0087,4.0087,4.0087,4.0087,4.0528,4.107,4.1725,4.2302,4.2884,4.3463,4.3497,4.3497,4.3497,4.4011,4.4782,4.581,4.6434,4.7205,4.8233,4.8306,4.8306,4.8306,4.8306,4.8306,4.8306,4.9958,5.032,4.941,5.0545,5.0608,4.9698,5.0521,5.1014,-0.8786,-0.8969,0.0,0.0,0.0,0.0,0.0,0.0,0.0,0.0,0.0,0.0,0.0,0.0,0.0,0.0,0.0,0.0,0.0,0.0,0.0,0.0,0.0,0.0,0.0,0.0,0.0,0.0,0.0,0.0,0.0,1.5984,1.7036,1.8355,1.8581,1.8957,1.9484,2.0343,2.1113,2.171,2.2491,2.4018,2.6213,2.6423,2.6916,2.761,2.761,2.7739,2.812,2.9889,3.1134,3.2183,3.3909,3.4783,3.5052,3.5453,3.5622,3.569,3.6163,3.7009,3.799,3.843,3.9242,4.0087,4.0087,4.0087,4.0087,4.0087,4.0087,4.0087,4.0087,4.0087,4.0087,4.0087,4.0087,4.0087,4.0087,4.0087,4.0087,4.0087,4.0087,4.0087,4.0087,4.0528,4.107,4.1725,4.2501,4.3142,4.3463,4.3497,4.3608,4.3938,4.4415,4.5149,4.6287,4.6838,4.7462,4.8269,4.8306,4.8306,4.8306,4.8306,4.8306,4.8306,4.9958,5.0441,4.9686,5.0645,5.0716,5.0011,5.085,5.1217,-0.901,0.0,0.0,0.0,0.0,0.0,0.0,0.0,0.0,0.0,0.0,0.0,0.0,0.0,0.0,0.0,0.0,0.0,0.0,0.0,0.0,0.0,0.0,0.0,0.0,0.0,0.0,0.0,0.0,0.0,0.0,1.5888,1.6798,1.7375,1.7928,1.848,1.8958,2.0187,2.1064,2.1615,2.1649,2.3047,2.5521,2.6128,2.6832,2.761,2.761,2.7919,2.8599,2.9879,3.1162,3.246,3.386,3.4844,3.5407,3.5577,3.5622,3.5622,3.5622,3.6637,3.7922,3.7922,3.8903,4.0087,4.0087,4.0087,4.0087,4.0087,4.0087,4.0087,4.0087,4.0087,4.0087,4.0087,4.0087,4.0087,4.0087,4.0087,4.0087,4.0087,4.0087,4.0087,4.0087,4.048,4.1059,4.1725,4.2772,4.3497,4.3497,4.3499,4.3794,4.4564,4.4747,4.5444,4.6909,4.713,4.7535,4.8269,4.8306,4.8306,4.8306,4.8306,4.8343,4.8416,4.9994,5.0519,4.992,5.0731,5.077,5.0124,5.085,5.1217,-0.8871,-0.8759,0.0,0.0,0.0,0.0,0.0,0.0,0.0,0.0,0.0,0.0,0.0,0.0,0.0,0.0,0.0,0.0,0.0,0.0,0.0,0.0,0.0,0.0,0.0,0.0,0.0,0.0,0.0,0.0,1.5353,1.6107,1.6798,1.7375,1.7928,1.848,1.8958,2.0187,2.0845,0.0,2.1971,2.3283,2.4917,2.4924,2.5914,2.761,2.761,2.77,2.788,2.8725,2.9546,3.0448,3.2278,3.3436,3.4153,3.5224,3.5622,3.5622,3.5622,3.6637,3.7922,3.7922,3.8903,4.0087,4.0087,4.0087,4.0087,4.0087,4.0087,4.0087,4.0087,4.0087,4.0087,4.0087,4.0087,4.0087,4.0087,4.0087,4.0087,4.0087,4.0087,4.0087,4.0087,4.0204,4.0625,4.1639,4.2772,4.3497,4.3497,4.3615,4.3785,4.3966,4.5088,4.6033,4.6359,4.7414,4.8122,4.8306,4.8306,4.8306,4.8306,4.8306,4.8636,4.9297,5.0288,5.1055,5.1517,5.1262,5.1034,5.0858,5.1123,5.1217,-0.8789,0.0,0.0,0.0,0.0,0.0,0.0,0.0,0.0,0.0,0.0,0.0,0.0,0.0,0.0,0.0,0.0,0.0,0.0,0.0,0.0,0.0,0.0,0.0,0.0,0.0,0.0,0.0,0.0,1.4971,1.5599,1.6194,1.6647,1.6948,1.7777,1.8355,1.8631,2.0373,2.1259,2.1259,2.2207,2.3403,2.4722,2.5596,2.6594,2.761,2.761,2.761,2.7619,2.8308,2.9177,3.0256,3.1905,3.3208,3.417,3.5224,3.5622,3.5622,3.5622,3.6637,3.7922,3.7922,3.8903,4.0087,4.0087,4.0087,4.0087,4.0087,4.0087,4.0087,4.0087,4.0087,4.0087,4.0087,4.0087,4.0087,4.0087,4.0087,4.0087,4.0087,4.0087,4.0087,4.0087,4.0319,4.0814,4.1682,4.2541,4.3214,4.3615,4.3749,4.3976,4.4443,4.5479,4.6374,4.6735,4.77,4.8306,4.8306,4.8306,4.8306,4.8306,4.871,4.9114,4.9591,5.0398,5.1206,5.1977,5.1382,5.1086,5.1121,5.1184,5.1217,-0.8663,0.0,-0.7413,-0.729,0.0,0.0,0.0,0.0,0.0,0.0,0.0,0.0,0.0,0.0,0.0,0.0,0.0,0.0,0.0,0.0,0.0,0.0,0.0,0.0,0.0,0.0,0.0,0.0,0.0,1.5017,1.5732,1.6238,1.6522,1.6522,1.7626,1.8204,1.8204,2.0332,2.1376,2.1376,2.2273,2.3425,2.4771,2.6594,2.752,2.761,2.761,2.761,2.767,2.8188,2.9213,3.0536,3.1779,3.316,3.4544,3.5191,3.5532,3.5622,3.5622,3.6637,3.7922,3.7922,3.8903,4.0087,4.0087,4.0087,4.0087,4.0087,4.0087,4.0087,4.0087,4.0087,4.0087,4.0087,4.0087,4.0087,4.0087,4.0087,4.0087,4.0087,4.0087,4.0087,4.0087,4.0528,4.107,4.1725,4.2221,4.2865,4.366,4.3755,4.4028,4.4918,4.5784,4.6493,4.7183,4.7879,4.8306,4.8306,4.8306,4.8306,4.8306,4.9114,4.9664,4.9774,5.0582,5.1348,5.2035,5.1405,5.1105,5.1123,5.1192,5.1285,0.0,0.0,-0.7142,0.0,0.0,0.0,0.0,0.0,0.0,0.0,0.0,0.0,0.0,0.0,0.0,0.0,0.0,0.0,0.0,0.0,0.0,0.0,0.0,0.0,0.0,0.0,0.0,0.0,1.4652,1.5197,1.6324,1.6479,1.6522,1.6522,1.7626,1.8204,1.8204,1.9458,2.0042,2.0093,2.1821,2.3392,2.4771,2.612,2.7021,2.761,2.761,2.761,2.764,2.773,2.8531,2.9833,3.0567,3.2013,3.382,3.4496,3.5098,3.5622,3.5622,3.6637,3.7922,3.7922,3.8903,4.0087,4.0087,4.0087,4.0087,4.0087,4.0087,4.0087,4.0087,4.0087,4.0087,4.0087,4.0087,4.0087,4.0087,4.0087,4.0087,4.0087,4.0087,4.0087,4.0087,4.0528,4.107,4.1725,4.1853,4.2388,4.362,4.3491,4.3562,4.4331,4.5598,4.64,4.6507,4.7596,4.8306,4.8306,4.8306,4.8306,4.8306,4.9114,4.9921,5.0618,5.1426,5.1907,5.2108,5.1458,5.1122,5.1188,5.1219,5.1555,-0.7326,-0.7237,0.0,0.0,0.0,0.0,0.0,0.0,0.0,0.0,0.0,0.0,0.0,0.0,0.0,0.0,0.0,0.0,0.0,0.0,0.0,0.0,0.0,0.0,0.0,0.0,0.0,0.0,1.4698,1.5242,1.6436,1.6522,1.6522,1.6522,1.7626,1.8204,1.8204,1.9656,2.0746,2.1452,2.23,2.3569,2.5206,2.5789,2.6602,2.761,2.761,2.761,2.761,2.761,2.8368,2.9672,3.032,3.1848,3.37,3.4317,3.5005,3.5622,3.5622,3.6637,3.7922,3.7922,3.8903,4.0087,4.0087,4.0087,4.0087,4.0087,4.0087,4.0087,4.0087,4.0087,4.0087,4.0087,4.0087,4.0087,4.0087,4.0087,4.0087,4.0087,4.0087,4.0087,4.0087,4.0303,4.0625,4.1206,4.167,4.2321,4.3321,4.3672,4.4009,4.4434,4.5286,4.6014,4.6365,4.7263,4.7955,4.8267,4.8306,4.8306,4.8306,4.9159,4.9792,5.0155,5.0998,5.1629,5.2112,5.1034,5.0697,5.1187,5.1191,5.1623,0.0,0.0,0.0,0.0,0.0,0.0,0.0,0.0,0.0,0.0,0.0,0.0,0.0,0.0,0.0,0.0,0.0,0.0,0.0,0.0,0.0,0.0,0.0,0.0,0.0,0.0,0.0,0.0,1.4698,1.5242,1.6436,1.6522,1.6522,1.6522,1.7476,1.8053,1.8204,1.995,2.1286,2.2235,2.2558,2.3664,2.5396,2.5521,2.6333,2.761,2.761,2.761,2.761,2.761,2.8368,2.9619,3.0143,3.1643,3.3649,3.417,3.4911,3.5622,3.5622,3.6637,3.7922,3.7922,3.8903,4.0087,4.0087,4.0087,4.0087,4.0087,4.0087,4.0087,4.0087,4.0087,4.0087,4.0087,4.0087,4.0087,4.0087,4.0087,4.0087,4.0087,4.0087,4.0087,4.0087,4.0087,4.0303,4.0827,4.1471,4.2216,4.3123,4.3733,4.4213,4.4541,4.5142,4.5699,4.6161,4.691,4.7554,4.8035,4.8229,4.8302,4.8327,4.922,4.9703,4.9744,5.0354,5.0986,5.1593,5.05,5.0437,5.1167,5.1167,5.1725,0.0,0.0,0.0,0.0,0.0,0.0,0.0,0.0,0.0,0.0,0.0,0.0,0.0,0.0,0.0,0.0,0.0,0.0,0.0,0.0,0.0,0.0,0.0,0.0,0.0,0.0,0.0,0.0,1.4698,1.5242,1.6436,1.6522,1.6522,1.6522,1.7099,1.7677,1.8204,1.995,2.0845,2.0894,2.2142,2.3403,2.4791,2.5349,2.6333,2.761,2.761,2.761,2.761,2.761,2.8368,2.9564,2.9619,3.1288,3.3598,3.3649,3.4496,3.5622,3.5622,3.6637,3.7922,3.7922,3.8903,4.0087,4.0087,4.0087,4.0087,4.0087,4.0087,4.0087,4.0087,4.0087,4.0087,4.0087,4.0087,4.0087,4.0087,4.0087,4.0087,4.0087,4.0087,4.0087,4.0087,4.0087,4.0303,4.0827,4.1116,4.1699,4.299,4.3321,4.3762,4.4485,4.5142,4.5494,4.5545,4.6682,4.7428,4.7428,4.7995,4.8364,4.8467,4.9253,4.9769,4.9882,4.999,5.0111,5.0146,5.0033,5.042,5.1214,5.1183,5.1995,0.0,0.0,0.0,0.0,0.0,0.0,0.0,0.0,0.0,0.0,0.0,0.0,0.0,0.0,0.0,0.0,0.0,0.0,0.0,0.0,0.0,0.0,0.0,0.0,0.0,0.0,0.0,0.0,0.0,1.5062,1.5864,1.6281,1.6522,1.6522,1.7426,1.8329,1.9233,1.9864,2.057,2.1376,2.1852,2.3187,2.5301,2.5521,2.6333,2.761,2.761,2.761,2.761,2.761,2.8368,2.9594,2.9594,3.1235,3.3598,3.3598,3.4447,3.569,3.6197,3.7043,3.799,3.8464,3.9276,4.0087,4.0087,4.0087,4.0087,4.0087,4.0087,4.0087,4.0087,4.0087,4.0087,4.0087,4.0087,4.0087,4.0087,4.0087,4.0087,4.0087,4.0087,4.0087,4.0087,4.0087,4.0154,4.0368,4.1257,4.2087,4.2534,4.3532,4.4282,4.4553,4.4831,4.5089,4.5442,4.5915,4.6353,4.6728,4.6955,4.7357,4.7903,4.8261,4.8679,4.9183,4.9286,4.958,4.9976,5.0026,5.0419,5.1217,5.1691,5.2469,-0.4606,0.0,0.0,0.0,0.0,0.0,0.0,0.0,0.0,0.0,0.0,0.0,0.0,0.0,0.0,0.0,0.0,0.0,0.0,0.0,0.0,0.0,0.0,0.0,0.0,0.0,0.0,0.0,0.0,0.0,1.5864,1.6281,1.6597,1.6798,1.7727,1.8631,1.9535,2.0142,2.0841,2.171,2.2132,2.3467,2.5615,2.5615,2.6333,2.761,2.761,2.761,2.764,2.7829,2.8577,2.9594,2.9804,3.1259,3.3235,3.3235,3.4103,3.5371,3.5871,3.688,3.7976,3.8438,3.9295,4.0087,4.0087,4.0087,4.0087,4.0087,4.0087,4.0087,4.0087,4.0087,4.0087,4.0087,4.0087,4.0087,4.0087,4.0087,4.0087,4.0087,4.0087,4.0087,4.0087,4.0087,4.0155,4.0426,4.1508,4.2388,4.2625,4.3775,4.4587,4.4587,4.4587,4.4776,4.5196,4.5372,4.5699,4.6063,4.6552,4.7047,4.7573,4.7873,4.8342,4.885,4.8957,4.9331,5.0042,5.0045,5.0473,5.1251,5.1961,5.2739,0.0,0.0,0.0,0.0,0.0,0.0,0.0,0.0,0.0,0.0,0.0,0.0,0.0,0.0,0.0,0.0,0.0,0.0,0.0,0.0,0.0,0.0,0.0,0.0,0.0,0.0,0.0,0.0,1.5242,1.5864,1.6436,1.6479,1.6798,1.7375,1.7928,1.848,1.9032,2.0818,2.171,2.1758,2.3009,2.4328,2.5615,2.5644,2.6333,2.761,2.761,2.761,2.7619,2.8308,2.8996,2.9654,3.0253,3.1329,3.2602,3.2602,3.3443,3.4627,3.4639,3.6055,3.7831,3.7845,3.8853,4.0087,4.0087,4.0087,4.0087,4.0087,4.0087,4.0087,4.0087,4.0087,4.0087,4.0087,4.0087,4.0087,4.0087,4.0087,4.0087,4.0087,4.0087,4.0087,4.0087,4.0087,4.0324,4.1102,4.1813,4.2557,4.3335,4.4079,4.4587,4.4587,4.4587,4.4587,4.4587,4.5142,4.5477,4.5477,4.6786,4.7608,4.7726,4.8398,4.8815,4.8984,4.9018,4.9357,5.0101,5.0101,5.0507,5.1251,5.1995,5.2739,-0.3014,0.0,0.0,0.0,0.0,0.0,0.0,0.0,0.0,0.0,0.0,0.0,0.0,0.0,0.0,0.0,0.0,0.0,0.0,0.0,0.0,0.0,0.0,0.0,0.0,0.0,0.0,0.0,1.4994,1.5664,1.582,1.6238,1.6974,1.7953,1.8129,1.8897,2.0263,2.0815,2.15,2.2438,2.3293,2.4334,2.5615,2.6093,2.6782,2.761,2.761,2.761,2.7619,2.8308,2.8996,2.9654,3.0253,3.1329,3.2602,3.2602,3.3445,3.4691,3.5219,3.6088,3.7178,3.8274,3.8851,3.9315,3.9901,4.0087,4.0087,4.0087,4.0087,4.0087,4.0087,4.0087,4.0087,4.0087,4.0087,4.0087,4.0087,4.0087,4.0087,4.0087,4.0087,4.0087,4.0087,4.0087,4.0324,4.1102,4.1813,4.2557,4.3335,4.4079,4.4587,4.4587,4.4587,4.4587,4.4587,4.4776,4.509,4.558,4.6041,4.6725,4.7792,4.8065,4.8388,4.8984,4.9018,4.9357,5.0101,5.0642,5.1285,5.2029,5.2807,5.3281,0.0,0.0,0.0,0.0,0.0,0.0,0.0,-0.1027,0.0,0.0,0.0,0.0,0.0,0.0,0.0,0.0,0.0,0.0,0.0,0.0,0.0,0.0,0.0,0.0,0.0,1.3647,1.419,1.419,1.5287,1.5952,1.5952,1.6548,1.7275,1.8179,1.843,1.9154,2.0396,2.0646,2.1307,2.23,2.3234,2.437,2.5644,2.6303,2.6961,2.761,2.761,2.779,2.8068,2.8727,2.9235,2.9684,3.0582,3.1434,3.2104,3.2104,3.3005,3.4179,3.4623,3.5597,3.6918,3.8075,3.8635,3.9016,3.985,4.0087,4.0087,4.0087,4.0087,4.0087,4.0087,4.0087,4.0087,4.0087,4.0087,4.0087,4.0087,4.0087,4.0087,4.0087,4.0087,4.0087,4.0087,4.0358,4.0798,4.1542,4.2286,4.3031,4.3809,4.4282,4.4587,4.4587,4.4587,4.4587,4.4587,4.4587,4.4891,4.5669,4.6007,4.6684,4.7868,4.8206,4.8578,4.8984,4.9289,4.9965,5.1014,5.115,5.1758,5.2807,5.3281,5.3518,0.0,0.0,0.0,0.0,0.0,0.0,-0.1323,-0.1045,0.0,0.0,0.0,0.0,0.0,0.0,0.0,0.0,0.0,0.0,0.0,0.0,0.0,0.0,0.0,0.0,1.2968,1.4025,1.4744,1.4789,1.5888,1.6522,1.6522,1.7074,1.7626,1.8179,1.8731,1.9284,1.9888,2.0597,2.1237,2.1963,2.3273,2.4534,2.5734,2.6393,2.7021,2.761,2.761,2.7949,2.8637,2.9295,2.9624,2.9804,3.1061,3.1482,3.1482,3.1482,3.2334,3.3495,3.3487,3.4816,3.6673,3.7425,3.8133,3.8799,3.9714,3.9952,4.0003,4.0087,4.0087,4.0087,4.0087,4.0087,4.0087,4.0087,4.0087,4.0087,4.0087,4.0087,4.0087,4.0087,4.0087,4.0087,4.0087,4.0696,4.1441,4.2185,4.2929,4.3707,4.4485,4.4587,4.4587,4.4587,4.4587,4.4587,4.4587,4.4654,4.5026,4.5771,4.6515,4.7259,4.8003,4.8646,4.9052,4.912,4.9932,5.098,5.23,5.1725,5.2164,5.3518,5.3518,5.3518,0.0,0.0,0.0,0.0,0.0,0.0,0.0,-0.072,0.0,0.0,0.0,0.0,0.0,0.0,0.0,0.0,0.0,0.0,0.0,0.0,0.0,0.0,0.0,0.0,1.3532,1.4283,1.4926,1.5398,1.6107,1.6522,1.6522,1.7074,1.7626,1.8179,1.8731,1.9533,2.0597,2.121,2.2102,2.3302,2.4582,2.567,2.6422,2.7081,2.749,2.761,2.761,2.7949,2.8637,2.9295,2.9864,3.0402,3.121,3.1482,3.1482,3.1482,3.2347,3.3487,3.3516,3.445,3.5854,3.6569,3.6904,3.7291,3.869,3.9123,3.9262,3.9901,4.0087,4.0087,4.0087,4.0087,4.0087,4.0087,4.0087,4.0087,4.0087,4.0087,4.0087,4.0087,4.0087,4.0087,4.0087,4.0696,4.1441,4.2185,4.2929,4.3707,4.4485,4.4587,4.4587,4.4587,4.4587,4.4587,4.4587,4.5128,4.5805,4.6549,4.7293,4.8037,4.8748,4.8917,4.9289,4.9864,5.1183,5.1995,5.23,5.2807,5.3213,5.3518,5.3518,5.3518,0.0,0.0,0.0,-0.0028,0.0,0.0,0.0,0.0,-0.031,0.0,0.0,0.0,0.0,0.0,0.0,0.0,0.0,0.0,0.0,0.0,0.0,0.0,0.0,0.0,1.3386,1.4198,1.5062,1.5952,1.6324,1.6522,1.6522,1.7325,1.7928,1.8204,1.8982,1.9838,2.0795,2.1113,2.209,2.3692,2.4692,2.5627,2.6602,2.726,2.761,2.761,2.761,2.8158,2.9116,2.9445,3.0133,3.1061,3.139,3.1482,3.1511,3.1898,3.2647,3.3544,3.3873,3.4651,3.5619,3.6384,3.66,3.6843,3.8019,3.8635,3.9069,3.9901,4.0087,4.0087,4.0087,4.0087,4.0087,4.0087,4.0087,4.0087,4.0087,4.0087,4.0087,4.0087,4.0392,4.0629,4.0629,4.1271,4.2016,4.2726,4.3504,4.4147,4.4519,4.4587,4.4587,4.4587,4.4587,4.4722,4.5128,4.55,4.6177,4.7293,4.7699,4.824,4.8984,4.9018,4.9526,5.0642,5.1758,5.2503,5.2909,5.3315,5.3518,5.3518,5.3518,5.3518,0.0,0.0,0.0,0.0,0.0,0.018,0.0,0.0,0.0,0.0192,0.0,0.0,0.0,0.0,0.0,0.0,0.0,0.0,0.0,0.0,0.0,0.0,0.0,0.0,0.0,1.3871,1.5033,1.6411,1.6236,1.6211,1.6454,1.7601,1.8204,1.8204,1.9233,2.0093,2.0795,2.0795,2.1833,2.3865,2.4433,2.5443,2.6811,2.732,2.761,2.764,2.776,2.8457,2.9594,2.9714,3.0462,3.1482,3.1482,3.1482,3.1541,3.2258,3.2916,3.3604,3.4233,3.4921,3.5619,3.6165,3.6508,3.6722,3.7589,3.8302,3.9069,3.9901,4.0003,3.9901,4.0087,4.0003,3.9901,4.0054,4.0087,4.0087,4.0087,4.0087,4.0121,4.0257,4.0798,4.1204,4.1204,4.1914,4.2726,4.3335,4.4079,4.4587,4.4587,4.4587,4.4587,4.4587,4.4722,4.5026,4.5669,4.5974,4.665,4.7834,4.8037,4.8376,4.8984,4.9289,5.0067,5.1386,5.2164,5.2841,5.3518,5.3518,5.3518,5.3518,5.3518,5.3518,0.0,0.0,0.0,0.0,0.1449,0.0,0.0,0.0,0.112,0.1132,0.0,0.0,0.0,0.0,0.0,0.0,0.0,0.0,0.0,0.0,0.0,0.0,0.0,0.0,0.0,1.3087,1.4374,1.6361,1.5307,1.5143,1.6429,1.7601,1.8204,1.8204,1.9233,2.0093,2.0795,2.0795,2.2073,2.4577,2.4635,2.5678,2.752,2.758,2.761,2.764,2.8218,2.8906,2.9624,3.0163,3.0851,3.1482,3.1482,3.1482,3.1541,3.2258,3.2916,3.3604,3.4233,3.4921,3.5489,3.5619,3.607,3.6722,3.7589,3.8302,3.9069,3.9901,3.961,3.9209,3.9901,3.9558,3.9209,3.9952,4.0087,4.0087,4.0087,4.0087,4.0257,4.0933,4.1136,4.1204,4.1204,4.2354,4.3301,4.3403,4.4079,4.4587,4.4587,4.4587,4.4587,4.4587,4.5162,4.5602,4.5703,4.6921,4.7733,4.7902,4.8511,4.8917,4.9018,5.027,5.1352,5.2164,5.2976,5.3416,5.3518,5.3518,5.3518,5.3518,5.3518,5.3518,0.0,0.0,0.0,0.0,0.0,0.0,0.0,0.0,0.1312,0.0,0.0,0.0,0.0,0.0,0.0,0.0,0.0,0.0,0.0,0.0,0.0,0.0,0.0,0.0,0.0,0.0,0.0,0.0,1.4938,1.4955,1.6403,1.7601,1.8204,1.8204,1.9233,2.0093,2.0795,2.1511,2.2853,2.4693,2.5463,2.6436,2.761,2.761,2.7799,2.8188,2.8487,2.9175,3.0133,3.0402,3.0911,3.1482,3.1482,3.1779,3.2168,3.2826,3.3484,3.4173,3.4831,3.525,3.5519,3.5519,3.5718,3.6133,3.6874,3.7322,3.77,3.8525,3.8799,3.8962,3.9315,3.9506,3.9662,4.0003,4.0087,4.0087,4.0087,4.0426,4.0832,4.1136,4.1914,4.2489,4.2489,4.2997,4.3572,4.4012,4.435,4.4587,4.4587,4.4587,4.4756,4.5196,4.5534,4.6041,4.6921,4.7564,4.8105,4.8511,4.8849,4.9187,4.9627,5.0642,5.1555,5.23,5.3078,5.3518,5.3518,5.3518,5.3518,5.3518,5.3518,5.3518,0.4111,0.0,0.0,0.0,0.0,0.0,0.0,0.0,0.0,0.0,0.0,0.0,0.0,0.0,0.0,0.0,0.0,0.0,0.0,0.0,0.0,0.0,0.0,0.0,0.0,0.0,0.0,0.0,0.0,1.4517,1.6403,1.7601,1.8204,1.8204,1.9233,2.0194,2.1015,2.2002,2.3301,2.4936,2.5904,2.6783,2.761,2.761,2.7949,2.8607,2.8786,2.9475,3.0522,3.0702,3.1091,3.1482,3.1661,3.2198,3.2826,3.3335,3.3903,3.4592,3.528,3.5519,3.5519,3.5519,3.5519,3.5619,3.6384,3.66,3.6783,3.7557,3.8019,3.8381,3.8799,3.9209,3.9558,4.0003,4.0087,4.0155,4.0358,4.0832,4.1339,4.1745,4.2692,4.3504,4.3707,4.3741,4.3944,4.4485,4.4587,4.4587,4.4587,4.4756,4.5094,4.5635,4.6075,4.6752,4.7834,4.8105,4.8443,4.8984,4.9187,4.9627,5.0371,5.1116,5.186,5.2604,5.3213,5.3518,5.3518,5.3518,5.3518,5.3518,5.3518,5.3518,0.0,0.0,0.0,0.4794,0.0,0.0,0.0,0.0,0.4609,0.0,0.0,0.0,0.0,0.0,0.0,0.4231,0.0,0.0,0.0,0.0,0.0,0.0,0.0,0.0,0.0,0.0,0.0,0.0,0.0,0.0,1.6353,1.7601,1.8204,1.8204,1.9233,2.0421,2.1663,2.1803,2.3103,2.5568,2.5579,2.6323,2.761,2.761,2.7949,2.8637,2.9265,2.9924,3.0552,3.121,3.1452,3.1541,3.2228,3.2886,3.3455,3.3484,3.3903,3.4592,3.528,3.5519,3.5519,3.5519,3.5519,3.5619,3.6384,3.66,3.6783,3.7557,3.7263,3.7024,3.8492,3.8414,3.8278,3.9747,4.0087,4.029,4.1001,4.117,4.1644,4.3064,4.3403,4.3673,4.4418,4.4553,4.4553,4.4587,4.4587,4.4587,4.4587,4.5229,4.5669,4.5703,4.6989,4.7868,4.7936,4.8578,4.8984,4.9018,4.9661,5.0405,5.115,5.1894,5.2638,5.345,5.3484,5.3518,5.3518,5.3518,5.3518,5.3518,5.3518,5.3518,0.0,0.0,0.7781,0.7155,0.0,0.0,0.0,0.0,0.0,0.0,0.0,0.0,0.0,0.0,0.5604,0.6058,0.5873,0.0,0.0,0.0,0.0,0.0,0.0,0.0,0.0,0.0,0.0,0.0,1.3368,0.0,0.0,1.7601,1.8204,1.8204,1.9233,2.0425,2.1753,2.2624,2.3918,2.5628,2.6503,2.717,2.764,2.8038,2.8607,2.9295,2.9924,3.0582,3.121,3.1392,3.1721,3.2198,3.2437,3.3185,3.4143,3.4143,3.4592,3.519,3.5429,3.5519,3.5519,3.5519,3.5519,3.5554,3.5782,3.591,3.5943,3.6196,3.6415,3.6843,3.7905,3.8358,3.8799,3.985,4.046,4.0899,4.117,4.1982,4.2828,4.3301,4.3842,4.4282,4.4519,4.4587,4.4587,4.4587,4.4587,4.4587,4.4587,4.5229,4.5906,4.638,4.7327,4.8105,4.8612,4.8849,4.9221,4.9695,4.9965,5.0642,5.1894,5.2164,5.2672,5.3484,5.3518,5.3518,5.3518,5.3518,5.3518,5.3518,5.3518,5.3518,0.8008,0.874,0.0,0.8796,0.863,0.0,0.7406,0.0,0.0,0.0,0.0,0.0,0.0,0.0,0.0,0.7412,0.6803,0.0,0.0,0.0,0.0,0.0,0.0,0.0,0.0,0.0,1.0974,1.3472,1.3184,0.0,0.0,0.0,1.8204,1.8204,1.9233,2.0553,2.2099,2.3155,2.4481,2.595,2.708,2.761,2.764,2.8278,2.8966,2.9624,3.0253,3.0881,3.1482,3.1482,3.1928,3.2527,3.2766,3.3514,3.4472,3.4472,3.4921,3.5519,3.5519,3.5519,3.5519,3.5519,3.5519,3.5519,3.5519,3.5519,3.5519,3.5519,3.5846,3.6384,3.7144,3.7962,3.8756,3.984,4.0676,4.1339,4.188,4.2726,4.3504,4.3775,4.4248,4.4587,4.4587,4.4587,4.4587,4.4587,4.4587,4.4688,4.4959,4.5635,4.638,4.7124,4.7868,4.8477,4.8951,4.9018,4.9323,5.0033,5.0338,5.1048,5.2266,5.257,5.2976,5.3484,5.3518,5.3518,5.3518,5.3518,5.3518,5.3518,5.3518,5.3653]},{"header":{"parameterUnit":"m.s-1","parameterCategory":1,"la1":30.6,"la2":29.2853,"lo1":-89.7004,"lo2":-87.6739,"dy":0.0162,"dx":0.0183,"nx":112,"ny":82,"refTime":"2024-10-10T18:00:00:Z","depth":0,"parameterNumber":3,"parameterNumberName":"V-component_of_WINDS"},"data":[0.0,0.0,0.0,0.0,0.0,0.0,0.0,0.0,0.0,0.0,0.0,0.0,0.0,0.0,0.0,0.0,0.0,0.0,0.0,0.0,0.0,0.0,0.0,0.0,0.0,0.0,0.0,0.0,0.0,0.0,0.0,0.0,0.0,0.0,0.0,0.0,0.0,0.0,0.0,0.0,0.0,0.0,0.0,0.0,0.0,0.0,0.0,0.0,0.0,0.0,0.0,0.0,0.0,0.0,0.0,0.0,0.0,0.0,0.0,0.0,0.0,0.0,0.0,0.0,0.0,0.0,0.0,0.0,0.0,0.0,0.0,0.0,0.0,0.0,0.0,0.0,0.0,0.0,0.0,0.0,0.0,0.0,0.0,0.0,0.0,0.0,0.0,0.0,0.0,0.0,0.0,1.188,1.3307,1.3988,1.3734,1.4531,1.4097,1.1873,0.0,0.0,0.0,0.0,0.0,0.0,0.0,0.0,0.0,0.0,0.0,0.0,0.0,0.0,0.0,0.0,0.0,0.0,0.0,0.0,0.0,0.0,0.0,0.0,0.0,0.0,0.0,0.0,0.0,0.0,0.0,0.0,0.0,0.0,0.0,0.0,0.0,0.0,0.0,0.0,0.0,0.0,0.0,0.0,0.0,0.0,0.0,0.0,0.0,0.0,0.0,0.0,0.0,0.0,0.0,0.0,0.0,0.0,0.0,0.0,0.0,0.0,0.0,0.0,0.0,0.0,0.0,0.0,0.0,0.0,0.0,0.0,0.0,0.0,0.0,0.0,0.0,0.0,0.0,0.0,0.0,0.0,0.0,0.0,0.0,0.0,0.0,0.0,0.0,0.0,0.0,0.0,0.0,0.0,0.0,0.0,0.0,0.0,0.0,0.0,0.0,0.0,0.0,0.0,1.0436,1.3094,1.3801,1.4068,1.4028,1.4101,1.3887,1.3224,0.0,0.0,0.0,0.0,0.0,0.0,0.0,0.0,0.0,0.0,0.0,0.0,0.0,0.0,0.0,0.0,0.0,0.0,0.0,0.0,0.0,0.0,0.0,0.0,0.0,0.0,0.0,0.0,0.0,0.0,0.0,0.0,0.0,0.0,0.0,0.0,0.0,0.0,0.0,0.0,0.0,0.0,0.0,0.0,0.0,0.0,0.0,0.0,0.0,0.0,0.0,0.0,0.0,0.0,0.0,0.0,0.0,0.0,0.0,0.0,0.0,0.0,0.0,0.0,0.0,0.0,0.0,0.0,0.0,0.0,0.0,0.0,0.0,0.0,0.0,0.0,0.0,0.0,0.0,0.0,0.0,0.0,0.0,0.0,0.0,0.0,0.0,0.0,0.0,0.0,0.0,0.0,0.0,0.0,0.0,0.0,0.0,0.0,0.0,0.0,0.0,0.0,0.0,0.9868,1.1644,1.3694,1.4001,1.4082,1.4082,1.365,1.3243,1.2961,1.1567,0.0,0.0,0.0,0.0,0.0,0.0,0.0,0.0,0.0,0.0,0.0,0.0,0.0,0.0,0.0,0.0,0.0,0.0,0.0,0.0,0.0,0.0,0.0,0.0,0.0,0.0,0.0,0.0,0.0,0.0,0.0,0.0,0.0,0.0,0.0,0.0,0.0,0.0,0.0,0.0,0.0,0.0,0.0,0.0,0.0,0.0,0.0,0.0,0.0,0.0,0.0,0.0,0.0,0.0,0.0,0.0,0.0,0.0,0.0,0.0,0.0,0.0,0.0,0.0,0.0,0.0,0.0,0.0,0.0,0.0,0.0,0.0,0.0,0.0,0.0,0.0,0.0,0.0,0.0,0.0,0.0,0.0,0.0,0.0,0.0,0.0,0.0,0.0,0.0,0.0,0.0,0.0,0.0,0.0,0.0,0.0,0.0,0.0,0.0,0.0,0.0,0.0,1.1328,1.2679,1.3948,1.4082,1.4055,1.3988,1.3093,1.2594,1.2454,1.0538,0.0,0.0,0.0,0.0,0.0,0.0,0.0,0.0,0.0,0.0,0.0,0.0,0.0,0.0,0.0,0.0,0.0,0.0,0.0,0.0,0.0,0.0,0.0,0.0,0.0,0.0,0.0,0.0,0.0,0.0,0.0,0.0,0.0,0.0,0.0,0.0,0.0,0.0,0.0,0.0,0.0,0.0,0.0,0.0,0.0,0.0,0.0,0.0,0.0,0.0,0.0,0.0,0.0,0.0,0.0,0.0,0.0,0.0,0.0,0.0,0.0,0.0,0.0,0.0,0.0,0.0,0.0,0.0,0.0,0.0,0.0,0.0,0.0,0.0,0.0,0.0,0.0,0.0,0.0,0.0,0.0,0.0,0.0,0.0,0.0,0.0,0.0,0.0,0.0,0.0,0.0,0.0,0.0,0.0,0.0,0.0,0.0,0.0,0.0,0.0,0.0,0.0,1.2364,1.336,1.4015,1.4082,1.3975,1.3694,1.2599,1.2095,1.2414,1.0093,0.0,0.0,0.0,0.0,0.0,0.0,0.0,0.0,0.0,0.0,0.0,0.0,0.0,0.0,0.0,0.0,0.0,0.0,0.0,0.0,0.0,0.0,0.0,0.0,0.0,0.0,0.0,0.0,0.0,0.0,0.0,0.0,0.0,0.0,0.0,0.0,0.0,0.0,0.0,0.0,0.0,0.0,0.0,0.0,0.0,0.0,0.0,0.0,0.0,0.0,0.0,0.0,0.0,0.0,0.0,0.0,0.0,0.0,0.0,0.0,0.0,0.0,0.0,0.0,0.0,0.0,0.0,0.0,0.0,0.0,0.0,0.0,0.0,0.0,0.0,0.0,0.0,0.0,0.0,0.0,0.0,0.0,0.0,0.0,0.0,0.0,0.0,0.0,0.0,0.0,0.0,0.0,0.0,0.0,0.0,0.0,0.0,0.0,0.0,0.0,0.0,0.0,1.184,1.3013,0.0,1.4082,1.3961,1.3667,1.2719,1.2235,1.2367,0.0,0.0,0.0,0.0,0.0,0.0,0.0,0.0,0.0,0.0,0.0,0.0,0.0,0.0,0.0,0.0,0.0,0.0,0.0,0.0,0.0,0.0,0.0,0.0,0.0,0.0,0.0,0.0,0.0,0.0,0.0,0.0,0.0,0.0,0.0,0.0,0.0,0.0,0.0,0.0,0.0,0.0,0.0,0.0,0.0,0.0,0.0,0.0,0.0,0.0,0.0,0.0,0.0,0.0,0.0,0.0,0.0,0.0,0.0,0.0,0.0,0.0,0.0,0.0,0.0,0.0,0.0,0.0,0.0,0.0,0.0,0.0,0.0,0.0,0.0,0.0,0.0,0.0,0.0,0.0,0.0,0.0,0.0,0.0,0.0,0.0,0.0,0.0,0.0,0.0,0.0,0.0,0.0,0.0,0.0,0.0,0.0,0.0,0.0,0.0,0.0,0.0,1.0387,1.1814,1.2973,0.0,1.4082,1.3935,1.3534,1.2505,1.1845,1.1869,0.0,0.0,0.0,0.0,0.0,0.0,0.0,0.0,0.0,0.0,0.0,0.0,0.0,0.0,0.0,0.0,0.0,0.0,0.0,0.0,0.0,0.0,0.0,0.0,0.0,0.0,0.0,0.0,0.0,0.0,0.0,0.0,0.0,0.0,0.0,0.0,0.0,0.0,0.0,0.0,0.0,0.0,0.0,0.0,0.0,0.0,0.0,0.0,0.0,0.0,0.0,0.0,0.0,0.0,0.0,0.0,0.0,0.0,0.0,0.0,0.0,0.0,0.0,0.0,0.0,0.0,0.0,0.0,0.0,0.0,0.0,0.0,0.0,0.0,0.0,0.0,0.0,0.0,0.0,0.0,0.0,0.0,0.0,0.0,0.0,0.0,0.0,0.0,0.0,0.0,0.0,0.0,0.0,0.0,0.0,0.0,0.0,0.0,0.0,0.0,0.0,0.0,1.1101,1.2465,1.344,1.4028,1.4082,1.3841,1.3267,1.185,1.0927,0.0,0.0,0.0,0.0,0.0,0.0,0.0,0.0,0.0,0.0,0.0,0.0,0.0,0.0,0.0,0.0,0.0,0.0,0.0,0.0,0.0,0.0,0.0,0.0,0.0,0.0,0.0,0.0,0.0,0.0,0.0,0.0,0.0,0.0,0.0,0.0,0.0,0.0,0.0,0.0,0.0,0.0,0.0,0.0,0.0,0.0,0.0,0.0,0.0,0.0,0.0,0.0,0.0,0.0,0.0,0.0,0.0,0.0,0.0,0.0,0.0,0.0,0.0,0.0,0.0,0.0,0.0,0.0,0.0,0.0,0.0,0.0,0.0,0.0,0.0,0.0,0.0,0.0,0.0,0.0,0.0,0.0,0.0,0.0,0.0,0.0,0.0,0.0,0.0,0.0,0.0,0.0,0.0,0.0,0.0,0.0,0.0,0.0,0.0,0.0,0.0,0.0,0.0,1.1101,1.2465,1.344,1.4028,1.3895,1.3614,1.324,1.2037,1.1104,1.0563,0.0,0.0,0.0,0.0,0.0,0.0,0.0,0.0,0.0,0.0,0.0,0.0,0.0,0.0,0.0,0.0,0.0,0.0,0.0,0.0,0.0,0.0,0.0,0.0,0.0,0.0,0.0,0.0,0.0,0.0,0.0,0.0,0.0,0.0,0.0,0.0,0.0,0.0,0.0,0.0,0.0,0.0,0.0,0.0,0.0,0.0,0.0,0.0,0.0,0.0,0.0,0.0,0.0,0.0,0.0,0.0,0.0,0.0,0.0,0.0,0.0,0.0,0.0,0.0,0.0,0.0,0.0,0.0,0.0,0.0,0.0,0.0,0.0,0.0,0.0,0.0,0.0,0.0,0.0,0.0,0.0,0.0,0.0,0.0,0.0,0.0,0.0,0.0,0.0,0.0,0.0,0.0,0.0,0.0,0.0,0.0,0.0,0.0,0.0,0.0,0.0,0.0,1.1088,1.2465,1.344,1.4028,1.3814,1.352,1.324,1.2118,1.1111,1.048,0.0,0.0,0.0,0.0,0.0,0.0,0.0,0.0,0.0,0.0,0.0,0.0,0.0,0.0,0.0,0.0,0.0,0.0,0.0,0.0,0.0,0.0,0.0,0.0,0.0,0.0,0.0,0.0,0.0,0.0,0.0,0.0,0.0,0.0,0.0,0.0,0.0,0.0,0.0,0.0,0.0,0.0,0.0,0.0,0.0,0.0,0.0,0.0,0.0,0.0,0.0,0.0,0.0,0.0,0.0,0.0,0.0,0.0,0.0,0.0,0.0,0.0,0.0,0.0,0.0,0.0,0.0,0.0,0.0,0.0,0.0,0.0,0.0,0.0,0.0,0.0,0.0,0.0,0.0,0.0,0.0,0.0,0.0,0.0,0.0,0.0,0.0,0.0,0.0,0.0,0.0,0.0,0.0,0.0,0.0,0.0,0.0,0.0,0.0,0.0,0.0,0.0,1.1061,1.2465,1.344,1.4028,1.3801,1.3494,1.3227,1.2091,1.1032,1.0349,0.0,0.0,0.0,0.0,0.0,0.0,0.0,0.0,0.0,0.0,0.0,0.0,0.0,0.0,0.0,0.0,0.0,0.0,0.0,0.0,0.0,0.0,0.0,0.0,0.0,0.0,0.0,0.0,0.0,0.0,0.0,0.0,0.0,0.0,0.0,0.0,0.0,0.0,0.0,0.0,0.0,0.0,0.0,0.0,0.0,0.0,0.0,0.0,0.0,0.0,0.0,0.0,0.0,0.0,0.0,0.0,0.0,0.0,0.0,0.0,0.6401,0.0,0.0,0.0,0.0,0.0,0.0,0.0,0.0,0.0,0.0,0.0,0.0,0.0,0.0,0.0,0.0,0.0,0.0,0.0,0.0,0.0,0.0,0.0,0.0,0.0,0.0,0.0,0.0,0.0,0.0,0.0,0.0,0.0,0.0,0.0,0.0,0.0,0.0,0.0,0.0,0.0,1.1061,1.2465,1.344,1.4028,1.3614,1.328,1.3213,1.1904,1.0846,1.0181,0.0,0.0,0.0,0.0,0.0,0.0,0.0,0.0,0.0,0.0,0.0,0.0,0.0,0.0,0.0,0.0,0.0,0.0,0.0,0.0,0.0,0.0,0.0,0.0,0.0,0.0,0.0,0.0,0.0,0.0,0.0,0.0,0.0,0.0,0.0,0.0,0.0,0.0,0.0,0.0,0.0,0.0,0.0,0.0,0.0,0.0,0.0,0.0,0.0,0.0,0.0,0.0,0.0,0.0,0.0,0.0,0.0,0.0,0.0,0.0,0.0,0.845,0.0,0.0,0.0,0.0,0.0,0.0,0.0,0.0,0.0,0.0,0.0,0.0,0.0,0.0,0.0,0.0,0.0,0.0,0.0,0.0,0.0,0.0,0.0,0.0,0.0,0.0,0.0,0.0,0.0,0.0,0.0,0.0,0.0,0.0,0.0,0.0,0.0,0.0,0.0,0.0,1.1075,1.2465,1.344,1.4028,1.3561,1.3213,1.3213,1.2104,1.1169,1.0568,0.9299,0.0,0.0,0.0,0.0,0.0,0.0,0.0,0.0,0.0,0.0,0.0,0.0,0.0,0.0,0.0,0.0,0.0,0.0,0.0,0.0,0.0,0.0,0.0,0.0,0.0,0.0,0.0,0.0,0.0,0.0,0.0,0.0,0.0,0.0,0.0,0.0,0.0,0.0,0.0,0.0,0.0,0.0,0.0,0.0,0.0,0.0,0.0,0.0,0.0,0.0,0.0,0.0,0.0,0.1321,0.31,0.4934,0.6019,0.6797,0.747,0.9544,0.9819,0.8764,0.0,0.0,0.0,0.0,0.0,0.0,0.0,0.0,0.0,0.0,0.0,0.0,0.0,0.0,0.0,0.0,0.0,0.0,0.0,0.0,0.0,0.0,0.0,0.0,0.0,0.9138,0.8978,0.0,0.0,0.0,0.0,0.0,0.0,0.0,0.0,0.0,0.0,0.0,0.0,1.1248,1.2505,1.344,1.4028,1.3561,1.3213,1.3213,1.2385,1.1623,1.1035,1.0033,0.9017,0.0,0.0,0.0,0.0,0.0,0.0,0.0,0.0,0.0,0.0,0.0,0.0,0.0,0.0,0.0,0.0,0.0,0.0,0.0,0.0,0.0,0.0,0.0,0.0,0.0,0.0,0.0,0.0,0.0,0.0,0.0,0.0,-0.2634,-0.2995,0.0,0.0,0.0,0.0,0.0,0.0,0.0,0.0,0.0,0.0,0.0,0.0,0.0,-0.5008,-0.5247,-0.318,-0.1913,-0.1506,0.3054,0.525,0.5329,0.6085,0.7075,0.8306,0.9957,0.0,0.9803,0.9442,0.0,0.0,0.0,0.0,0.0,0.0,0.0,0.0,0.0,0.0,0.0,0.0,0.0,0.0,0.0,0.0,0.0,0.0,0.0,0.0,0.0,0.0,0.9833,0.9619,0.9593,0.9566,0.0,0.8242,0.7204,0.7036,0.5776,0.0,0.0,0.0,0.0,0.0,0.0,0.0,1.1484,1.2625,1.344,1.4028,1.3561,1.3213,1.3213,1.2385,1.1623,1.1035,1.0608,0.9993,0.9057,0.851,0.0,0.0,0.0,0.0,0.0,0.0,0.0,0.0,0.0,0.0,0.0,0.0,0.0,0.0,0.0,0.0,0.0,0.0,0.0,0.0,0.0,0.0,0.0,0.0,0.0,0.0,0.0,0.0,0.0,-0.28,-0.2818,-0.2167,-0.2921,-0.3466,0.0,0.0,0.0,0.0,0.0,0.0,0.0,0.0,0.0,-0.4685,-0.4854,-0.4877,-0.4861,-0.3806,-0.2473,-0.0745,0.2636,0.4786,0.5776,0.6441,0.7431,0.8551,0.9149,0.9639,0.9931,0.9778,0.8463,0.6481,0.0,0.0,0.0,0.0,0.3638,0.3475,0.4869,0.5827,0.0,0.7064,0.0,0.0,0.0,0.0,0.0,0.0,0.0,0.0,0.0,0.0,1.0127,1.0167,1.0241,1.0241,1.0241,0.9517,0.8664,0.0,0.7414,0.6574,0.5245,0.0,0.0,0.0,0.0,0.0,1.1872,1.2759,1.344,1.4028,1.3561,1.3213,1.3213,1.2532,1.1931,1.1516,1.1062,1.0555,1.0007,0.9259,0.8968,0.0,0.0,0.0,0.0,0.0,0.0,0.0,0.0,0.0,0.0,0.0,0.0,0.0,0.0,0.0,0.0,0.0,0.0,0.0,0.0,0.0,0.0,0.0,0.0,0.0,0.0,0.0,0.0,-0.3115,-0.306,-0.2229,-0.2881,-0.3602,0.0,0.0,0.0,0.0,0.0,0.0,-0.4577,-0.3268,-0.2755,-0.3335,-0.3991,-0.4433,-0.4697,-0.4697,-0.316,0.0,0.2126,0.4127,0.6103,0.666,0.7581,0.8724,0.8437,0.8827,0.9706,0.952,0.8126,0.6096,0.6011,0.5296,0.4364,0.5104,0.557,0.5872,0.6791,0.7026,0.7031,0.7744,0.0,0.741,0.6722,0.0,0.0,0.0,0.0,0.8628,0.9011,0.9693,1.0287,1.0577,1.0685,1.0675,1.0675,1.0555,1.0151,0.0,0.8915,0.8352,0.6679,0.0,0.0,0.0,0.0,1.0968,1.2278,1.2879,1.344,1.4028,1.3561,1.3213,1.3213,1.2652,1.2184,1.1891,1.1383,1.0969,1.0688,1.0064,0.9959,1.0412,0.0,0.0,0.0,0.0,0.0,0.0,0.0,0.0,0.0,0.0,0.0,0.0,0.0,0.0,0.0,0.0,0.0,0.0,0.0,0.0,0.0,0.0,0.0,0.0,0.0,0.0,0.0,0.0,0.0,-0.4289,-0.3119,0.0,0.0,0.0,0.0,-0.3717,-0.479,-0.5006,-0.3751,-0.2737,-0.1597,-0.0267,-0.1897,-0.3623,-0.534,-0.534,-0.3544,0.0,0.211,0.4199,0.6268,0.6325,0.7379,0.9185,0.8286,0.8318,0.9052,0.8373,0.7634,0.6798,0.6564,0.5304,0.3779,0.4935,0.6342,0.7596,0.7882,0.8365,0.9015,1.0069,0.965,0.855,0.7698,0.7365,0.0,0.0,0.8667,0.915,0.9845,1.0314,1.0604,1.0618,1.0768,1.0969,1.0969,1.1182,1.1196,0.0,0.9705,0.9039,0.9241,0.0,0.8678,0.9634,1.0135,1.0987,1.2612,1.3013,1.344,1.4028,1.3561,1.3213,1.3213,1.2652,1.2184,1.1891,1.1583,1.1276,1.0982,1.111,1.1353,1.1598,1.1247,0.0,0.0,0.0,0.0,0.0,0.0,0.0,0.0,0.0,0.0,0.0,0.0,0.0,0.0,0.0,0.0,0.0,0.0,0.0,0.0,0.0,0.0,0.0,0.0,0.0,0.0,0.0,0.0,-0.445,-0.3545,0.0,-0.4648,-0.4862,-0.4833,-0.4562,-0.2948,-0.1212,0.0639,0.2322,0.2281,0.0072,-0.059,-0.1276,-0.1912,0.0764,0.2764,0.4042,0.4804,0.552,0.6281,0.6268,0.7403,0.9226,0.7557,0.7744,0.9095,0.755,0.663,0.6205,0.6169,0.572,0.5078,0.5587,0.6495,0.7518,0.8186,0.895,0.9832,1.081,1.0718,1.0161,1.0018,0.9881,0.9769,1.02,1.0458,1.0626,1.089,1.1035,1.1116,1.1116,1.1196,1.1276,1.1276,1.1356,1.1423,1.141,1.0955,1.039,0.9855,1.011,1.0325,1.022,1.1032,1.1944,1.2959,1.3307,1.3641,1.4041,1.3561,1.3213,1.3213,1.2652,1.2184,1.1891,1.2137,1.2097,1.1768,1.2135,1.2396,1.2474,1.2096,1.1425,0.0,0.0,0.0,0.0,0.0,0.0,0.0,0.0,0.0,0.0,0.0,0.0,0.0,0.0,0.0,0.0,0.0,0.0,0.0,0.0,0.0,0.0,0.0,0.0,0.0,0.0,-0.2539,-0.3575,-0.31,-0.3339,-0.4924,-0.5006,-0.5081,-0.5213,-0.3135,-0.0755,0.1927,0.477,0.5001,0.2191,0.1446,0.1077,0.1018,0.3847,0.5593,0.6315,0.6288,0.6281,0.6274,0.6648,0.7557,0.8694,0.7403,0.7557,0.8694,0.6957,0.6152,0.5956,0.6057,0.6057,0.5956,0.605,0.6699,0.7607,0.8827,0.9868,1.0779,1.1243,1.1289,1.1169,1.1369,1.1289,1.1182,1.1369,1.1423,1.1423,1.1423,1.1423,1.1423,1.1423,1.1503,1.157,1.157,1.165,1.1784,1.1971,1.1784,1.1405,1.0817,1.1235,1.1576,1.1083,1.184,1.2639,1.3146,1.3467,1.3761,1.4055,1.3561,1.3213,1.3213,1.2559,1.2222,1.2303,1.2448,1.2518,1.2426,1.2948,1.313,1.2877,1.2622,1.2183,1.1562,0.0,0.0,0.0,0.0,0.0,0.0,0.0,0.0,0.0,0.0,0.0,0.0,0.0,0.0,0.0,0.0,0.0,0.0,0.0,0.0,0.0,0.0,0.0,-0.1542,0.0104,0.0273,-0.2041,-0.1869,-0.2552,-0.5188,-0.5452,-0.5439,-0.5519,-0.5657,-0.4138,-0.0363,0.3734,0.6016,0.6105,0.4183,0.32,0.32,0.32,0.4224,0.6295,0.6281,0.6281,0.6352,0.7334,0.7787,0.7778,0.7787,0.7787,0.771,0.6732,0.6274,0.6268,0.6308,0.6302,0.6338,0.6366,0.6964,0.8134,0.9845,1.1078,1.1837,1.1543,1.145,1.145,1.145,1.145,1.145,1.145,1.145,1.145,1.145,1.145,1.145,1.145,1.1677,1.1877,1.1877,1.2104,1.2305,1.2305,1.2078,1.1971,1.2251,1.2305,1.2305,1.2318,1.2572,0.0,1.3186,1.348,1.3774,1.4055,1.3561,1.3213,1.3213,1.2459,1.2289,1.3105,1.2617,1.2411,1.2858,1.3386,1.3474,1.2967,1.2953,1.293,1.2891,0.0,0.0,0.0,0.0,0.0,0.0,0.0,0.0,0.0,0.0,0.0,0.0,0.0,0.0,0.0,0.0,0.0,0.0,0.0,0.0,0.0,0.0,-0.2805,-0.2359,-0.2655,-0.332,-0.4409,-0.3223,-0.361,-0.6745,-0.6806,-0.6992,-0.7812,-0.7557,-0.6127,-0.3316,-0.196,-0.0306,0.1759,0.4192,0.5395,0.5449,0.5395,0.5724,0.6281,0.6281,0.6274,0.6345,0.6578,0.7111,0.7787,0.7026,0.7096,0.771,0.674,0.6281,0.6261,0.6281,0.6281,0.6416,0.7103,0.8466,1.0173,1.1378,1.1952,1.2171,1.2091,1.2064,1.2064,1.2064,1.2064,1.2064,1.2064,1.2064,1.2064,1.2064,1.2064,1.2064,1.2064,1.2118,1.2184,1.2184,1.2251,1.2305,1.2305,1.2238,1.2211,1.2291,1.2305,1.2371,1.2661,1.2893,0.0,1.348,1.3788,1.4001,1.4082,1.3561,1.3516,1.4194,1.333,1.3085,1.3795,1.36,1.3778,1.4321,1.4684,1.483,1.4716,1.4421,1.3965,0.0,0.0,0.0,0.0,0.0,0.0,0.0,0.0,0.0,0.0,0.0,0.0,0.0,0.0,0.0,0.0,0.0,0.0,0.0,0.0,0.0,0.0,-0.4844,-0.5719,-0.2893,-0.386,-0.4382,-0.327,-0.3173,-0.4634,-0.8175,-0.804,-0.8423,-0.9962,-0.9835,-0.9134,-0.7768,-0.5914,-0.4654,-0.4082,0.1537,0.4033,0.2905,0.5134,0.6281,0.6281,0.6281,0.6274,0.6338,0.6725,0.7034,0.0,0.7026,0.7026,0.7111,0.6514,0.5964,0.0,0.0,0.0,0.0,0.0,0.9064,1.0858,1.1465,1.1922,1.2305,1.2305,1.2305,1.2305,1.2305,1.2305,1.2305,1.2305,1.2586,1.2879,1.2879,1.2879,1.2879,1.2879,1.2586,1.2305,1.2305,1.2305,1.2305,1.2305,1.2305,0.0,1.2465,1.2492,1.2545,1.2795,1.312,1.3454,1.3546,1.3908,1.4082,1.4082,1.4062,1.418,1.4584,1.424,0.0,0.0,0.0,1.486,1.5364,1.5407,0.0,0.0,0.0,0.0,0.0,0.0,0.0,0.0,1.5781,1.6016,0.0,0.0,0.0,0.0,0.0,0.0,0.0,0.0,0.0,0.0,0.0,0.0,0.0,0.0,0.0,0.0,-0.9111,-1.1931,-0.5161,-0.5849,-0.561,-0.1663,-0.3115,-0.5873,-0.9466,-0.9365,-0.9904,-1.2095,-1.2356,-1.229,-1.2038,0.0,0.0,0.0,0.0,0.0385,-0.204,0.3168,0.5886,0.5957,0.6197,0.6274,0.6338,0.7249,0.7173,0.6338,0.7257,0.7111,0.6281,0.6295,0.5569,0.4535,0.5827,0.645,0.6718,0.7633,0.9216,1.0932,1.0932,0.0,0.0,1.2305,1.2305,1.2305,1.2305,1.2305,1.2305,1.2305,1.2879,1.3608,1.3665,1.3665,1.3665,1.3665,1.3098,1.2439,1.2305,1.2305,1.2305,1.2305,1.2331,1.2438,1.2782,1.2822,1.2849,1.2916,1.3307,1.3572,1.3694,1.3921,1.4082,1.4082,0.0,0.0,1.4877,1.534,1.5791,1.6193,1.598,1.6,1.6309,1.5996,1.6191,1.687,1.6986,1.7551,1.8711,1.9238,1.9707,2.0019,1.8066,1.7793,0.0,0.0,0.0,0.0,0.0,0.0,0.0,0.0,0.0,0.0,0.0,0.0,0.0,0.0,0.0,-0.8448,-1.9491,-2.4728,-1.745,-1.7193,-1.5451,-0.9285,-0.7768,-0.8302,-1.0966,-1.1112,-1.204,-1.4411,-1.4593,-1.3519,-1.1083,-1.0233,-0.935,-0.8268,-0.425,-0.2629,-0.3611,0.0696,0.3196,0.3748,0.0,0.0,0.6274,0.6507,0.65,0.6338,0.65,0.6507,0.6281,0.6308,0.6152,0.5892,0.6197,0.7257,0.877,0.8922,1.0271,1.1996,1.1996,1.2144,1.2305,1.2305,1.2305,1.2305,1.2305,1.2305,0.0,1.2305,1.2439,1.2732,1.352,1.3665,1.3665,1.3665,1.3535,1.3244,1.2452,1.2305,1.2305,1.2305,1.2492,1.2755,1.2808,1.2822,1.2906,1.34,1.3574,1.3734,1.3975,1.4055,1.4082,1.4082,1.4856,1.5587,1.6204,1.661,1.7169,1.8031,1.8023,1.7861,1.7656,1.8223,1.8457,1.8281,1.8945,1.9258,1.916,2.0312,2.0898,2.0957,2.0195,2.0156,0.0,0.0,0.0,0.0,0.0,0.0,0.0,0.0,0.0,0.0,0.0,0.1172,0.2454,0.0,-0.5732,-0.9871,-1.7395,-2.3323,-2.5076,-1.9516,-1.3748,-0.9624,-0.9248,-0.9999,-1.1817,-1.2173,-1.3667,-1.7031,-1.5945,-1.499,-1.4539,-1.1933,-1.0559,-1.098,-0.6924,-0.6777,-1.0985,-0.3044,0.1214,0.1536,0.3891,0.5445,0.6418,0.6417,0.6417,0.6478,0.6337,0.5665,0.4693,0.4732,0.5341,0.6366,0.688,0.7633,0.8618,0.915,1.0271,1.1613,1.2157,1.2305,1.2305,1.2305,1.2305,1.2305,1.2305,1.2305,1.2305,1.2305,1.2659,1.3098,1.3593,1.4099,1.4361,1.402,1.3918,1.374,1.2947,1.2759,1.2759,1.2759,1.2879,1.3026,1.3173,1.32,1.3293,1.3601,1.3774,1.3921,1.4068,1.4082,1.4082,1.4082,1.5412,1.6429,1.6711,1.7653,1.8442,1.8893,1.8965,1.8867,1.8652,1.9258,1.9609,1.9609,2.0234,2.0586,2.0586,2.1465,2.1875,2.1875,2.1855,2.1855,0.0,0.0,0.0,0.0,0.0,0.0,0.0,0.0,0.1588,0.1585,0.098,0.0688,0.1428,-0.4229,-0.9503,-1.1137,-1.3542,-1.7949,-2.5793,-1.7717,-1.0134,-0.7958,-0.9955,-1.1861,-1.2663,-1.3056,-1.4668,-1.8214,-1.6462,-1.5826,-1.7108,-1.2956,-1.0992,-1.1935,-0.7903,-0.8944,-1.5699,-0.6071,-0.0336,0.1425,0.2849,0.4699,0.6639,0.658,0.6586,0.6695,0.6009,0.4489,0.2605,0.3436,0.4841,0.6448,0.7508,0.7888,0.8035,0.9219,1.022,1.1087,1.2091,1.2478,1.239,1.2175,1.2236,1.2371,1.2096,1.2144,1.2318,1.2371,1.2977,1.3638,1.4064,1.4647,1.5017,1.4636,1.4411,1.4106,1.3382,1.3213,1.3213,1.3213,1.3253,1.3373,1.3519,1.3694,1.3734,1.3734,1.3935,1.4082,1.4082,1.4082,1.4166,1.4419,1.6124,1.7379,1.7456,1.8713,1.9531,1.9531,1.9531,1.957,1.9668,1.998,2.0371,2.082,2.125,2.166,2.2012,2.2422,2.2637,2.2637,2.2988,2.2949,0.2841,0.1424,0.0626,0.3334,0.3962,0.3551,0.0,0.0,0.4086,0.4107,0.1952,-0.179,-0.7775,-0.7724,-0.919,-1.6649,-1.781,-1.6581,-1.3105,-1.3867,-1.3023,-0.8257,-1.1957,-1.4762,-1.4471,-1.414,-1.433,-1.5186,-1.5703,-1.5114,-1.3025,-1.2214,-0.9601,-0.4511,-0.3754,-0.4794,-0.7546,-0.6268,-0.1593,0.6254,0.4453,0.4694,0.6805,0.6688,0.6681,0.6619,0.4426,0.2256,0.067,0.468,0.6446,0.6778,0.7869,0.8341,0.8559,1.0361,1.1132,1.1556,1.27,1.3106,1.2909,1.1695,1.2005,1.2487,1.1315,1.1613,1.2358,1.2701,1.2844,1.3355,1.5427,1.5279,1.4927,1.5783,1.5265,1.4307,1.3437,1.3213,1.3213,1.3213,1.3414,1.3519,1.3559,1.3868,1.4041,1.4041,1.4068,1.4082,1.4082,1.4082,1.4489,1.5462,1.6601,1.8043,2.0003,2.0372,2.041,2.041,2.041,2.0605,2.0996,2.1055,2.1289,2.1738,2.2148,2.2383,2.2441,2.2871,2.3066,2.3066,2.3125,2.3125,0.338,0.2993,0.2903,0.0,0.4491,0.4349,0.3673,0.4042,0.401,0.2284,-0.0951,-0.4709,-0.8838,-1.032,-1.2221,0.0,-1.4854,-1.2264,-0.9313,-0.7485,-0.7067,-0.8788,-1.2793,-1.5304,-1.5125,-1.4861,-1.5167,-1.621,-1.4755,-1.31,-1.155,-0.741,-0.3874,-0.14,0.0081,0.033,-0.0495,-0.0512,0.1389,0.5063,0.5497,0.6109,0.698,0.6878,0.6837,0.6668,0.4864,0.401,0.4099,0.6002,0.6729,0.6881,0.8574,0.8955,0.8796,1.0781,1.1567,1.1742,1.2803,1.3213,1.3107,1.2582,1.27,1.2908,1.2389,1.2518,1.2852,1.2986,1.3013,1.3274,1.4229,1.4491,1.4613,1.4648,1.4771,1.4685,1.3913,1.3721,1.3721,1.3721,1.3814,1.3908,1.3908,1.4001,1.4082,1.4082,1.4082,1.4082,1.4082,1.4082,1.4741,1.6437,1.7658,1.8957,2.0489,2.0566,2.0684,2.0937,2.0957,2.1152,2.1602,2.1855,2.207,2.2246,2.2656,2.2871,2.2871,2.3047,2.3144,2.3144,2.3144,2.3281,0.3552,0.4086,0.0,0.4517,0.4502,0.4379,0.3975,0.359,0.2329,-0.1038,-0.4661,-0.8493,-1.2617,-1.4657,-1.5812,-1.6217,-1.2769,-0.9453,-0.7609,-0.3113,-0.249,-0.9202,-1.3464,-1.6278,-1.7389,-1.6638,-1.6014,-1.5756,-1.3577,-1.1215,-0.8814,-0.2103,0.1717,0.1711,0.3516,0.4532,0.4532,0.4555,0.4559,0.4554,0.6269,0.7081,0.7074,0.7389,0.7253,0.6834,0.5837,0.6016,0.6914,0.6892,0.6837,0.6993,0.922,0.9721,0.9507,1.1606,1.2119,1.2038,1.3118,1.3454,1.336,1.3026,1.308,1.3227,1.2909,1.2962,1.3227,1.3307,1.3333,1.3427,1.3815,1.4149,1.4431,1.4185,1.4472,1.4707,1.421,1.4082,1.4082,1.4082,1.4082,1.4082,1.4082,1.4148,1.4202,1.4202,1.4282,1.4269,1.4108,1.4657,1.556,1.709,1.8559,1.9766,2.0566,2.0684,2.0898,2.1211,2.1348,2.1602,2.2031,2.2363,2.2559,2.2676,2.2988,2.3144,2.3144,2.3144,2.3144,2.3144,2.3262,2.3496,0.3602,0.0,0.4478,0.4511,0.451,0.4121,0.2638,0.1196,-0.1046,-0.5491,-0.8608,-1.3481,-2.2934,-2.1762,-1.9206,-1.8751,-1.4222,-0.9646,-0.6437,-0.2524,-0.2555,-0.9465,-1.4152,-1.8437,0.0,-2.0151,-1.651,-1.1943,-1.2016,-0.9669,-0.3534,0.2727,0.6074,0.6132,0.6423,0.6756,0.7014,0.696,0.7005,0.6992,0.7088,0.7074,0.7143,0.8273,0.8201,0.7074,0.7021,0.7034,0.7094,0.7081,0.7074,0.7333,0.9653,1.0595,1.0864,1.3197,1.3269,1.248,1.362,1.4055,1.3833,1.2539,1.2795,1.333,1.2147,1.2393,1.3267,1.3547,1.3627,1.3926,1.5262,1.4866,1.4391,1.5365,1.488,1.4153,1.4082,1.4082,1.4082,1.4082,1.4082,1.4082,1.4082,1.4322,1.4509,1.4509,1.475,1.4736,1.4162,1.5876,1.7253,1.7253,1.9274,2.0566,2.0566,2.0977,2.1211,2.123,2.1641,2.2051,2.248,2.25,2.2695,2.3105,2.3125,2.3144,2.3144,2.3144,2.3144,2.3144,2.3574,2.3769,0.4153,0.442,0.4496,0.4488,0.4506,0.3839,0.1356,-0.3002,-0.7205,-0.9486,-1.467,-1.918,-2.0462,-1.9566,-1.7246,-1.285,-1.0008,-0.6832,-0.2594,-0.0833,0.0243,0.0844,-0.2992,0.0,0.0,0.0,0.0,-1.6005,-0.8551,-0.4308,-0.4746,0.3127,0.7219,0.6352,0.6464,0.6614,0.6805,0.6919,0.6974,0.7061,0.7061,0.7496,0.8281,0.8719,0.8719,0.8288,0.8265,0.7834,0.7068,0.7068,0.7061,0.7326,0.9662,1.0605,1.0875,1.3209,1.3828,1.3561,1.3997,1.4082,1.4068,1.3542,1.3684,1.3838,1.34,1.3539,1.3814,1.3908,1.3935,1.4045,1.4545,1.4405,1.4166,1.4573,1.4334,1.4082,1.4082,1.4082,1.4082,1.4082,1.4242,1.4376,1.4376,1.4616,1.4816,1.4816,1.4897,1.4897,1.4696,1.6627,1.806,1.806,2.0081,2.1445,2.1445,2.1582,2.1777,2.207,2.2227,2.248,2.291,2.293,2.2988,2.3144,2.3144,2.3144,2.3144,2.3144,2.3144,2.3144,2.3594,2.3945,0.4314,0.451,0.4478,0.4481,0.3887,0.2353,-0.1205,-0.6278,-1.0848,-1.3174,-1.8258,-2.1718,-1.9804,-1.8953,-1.6545,-1.0545,-0.8244,-0.5524,-0.0665,0.0,0.0788,0.2988,0.0748,0.0,0.0,0.0,0.0,-1.2015,-0.6473,-0.1796,0.123,0.577,0.8187,0.7914,0.7014,0.6708,0.7267,0.702,0.7,0.7143,0.7061,0.776,0.8894,0.9323,0.9287,0.8879,0.9287,0.8844,0.7672,0.7291,0.7312,0.7929,0.9836,1.0605,1.0875,1.3209,1.4082,1.4082,1.4082,1.4082,1.4082,1.4082,1.4082,1.4082,1.4082,1.4082,1.4082,1.4082,1.4082,1.4082,1.4082,1.4082,1.4082,1.4082,1.4082,1.4082,1.4082,1.4082,1.4122,1.4215,1.4389,1.4549,1.4656,1.4923,1.515,1.5257,1.5636,1.5735,1.508,1.6946,1.8423,1.8423,2.0503,2.1894,2.1894,2.2031,2.2227,2.25,2.2656,2.2852,2.3125,2.3144,2.3144,2.3144,2.3144,2.3144,2.3144,2.3144,2.3223,2.3379,2.3809,2.4238,0.4172,0.4523,0.446,0.432,0.2477,-0.0481,-0.5039,-0.8641,-1.2227,-1.6354,-1.9204,-2.1011,-2.1123,0.0,-1.708,-1.1573,-0.8829,-0.5698,-0.0725,0.0,-0.0577,0.0,0.0,0.0,0.0,0.0,0.0,0.0366,0.0,-0.1736,1.2549,1.0154,0.9008,1.0427,0.7922,0.7009,0.8065,0.7267,0.6907,0.6953,0.7061,0.7672,0.8877,1.0077,0.9885,0.8802,1.0096,0.9895,0.8632,0.7512,0.7841,0.8973,1.0183,1.0605,1.0875,1.3209,1.4082,1.4082,1.4082,1.4082,1.4082,1.4082,1.4082,1.4082,1.4082,1.4082,1.4082,1.4082,1.4082,1.4082,1.4082,1.4082,1.4082,1.4082,1.4082,1.4095,1.4108,1.4108,1.4202,1.4482,1.4549,1.4656,1.495,1.5244,1.5511,1.5792,1.6857,1.7106,1.5341,1.7094,1.8559,1.8559,2.0642,2.1953,2.1953,2.2305,2.2539,2.2539,2.291,2.3144,2.3144,2.3144,2.3144,2.3144,2.3144,2.3144,2.3144,2.3144,2.3359,2.3809,2.4219,2.4648,0.4414,0.4495,0.3966,0.1793,-0.1502,-0.4935,-0.7858,-1.2478,-1.6327,-1.6979,-1.7791,-1.8202,-1.7686,0.0,0.0,-0.8553,-0.7108,0.0,-0.0645,0.0,0.0,0.0,0.0,1.2333,1.9996,1.3168,0.0,0.0,0.9015,0.3374,0.2554,0.6678,0.8542,0.7464,0.6754,0.6541,0.6929,0.6888,0.5999,0.4537,0.6121,0.7152,0.7617,0.9583,0.9828,0.8905,1.0067,0.9894,0.874,0.7562,0.7841,0.8973,1.0183,1.0605,1.0875,1.3209,1.4082,1.4082,1.4082,1.4082,1.4082,1.4082,1.4082,1.4082,1.4082,1.4082,1.4082,1.4082,1.4082,1.4082,1.4082,1.4082,1.4082,1.4082,1.4082,1.4148,1.4362,1.4402,1.4496,1.479,1.503,1.5271,1.5565,1.5671,1.5738,1.5818,1.6857,1.7531,1.7091,1.9126,2.0554,2.0554,2.1907,2.2812,2.2812,2.291,2.2988,2.2988,2.3086,2.3144,2.3144,2.3144,2.3144,2.3144,2.3144,2.3144,2.3144,2.3144,2.3359,2.3809,2.4219,2.4648,0.5246,0.4946,0.3947,0.1625,-0.3283,-0.8235,-1.1162,-1.455,-1.697,-1.6431,-1.6669,0.0,-1.5782,0.0,0.0,0.0,0.0,0.0,-0.1531,-0.1449,0.0328,0.0,0.9227,0.0,2.1236,1.4811,1.437,0.0,1.3518,0.6191,0.58,0.8031,0.9216,0.8883,0.7242,0.6414,0.6565,0.5794,0.4784,0.3585,0.4695,0.5785,0.6937,0.9202,0.9571,0.8699,0.0,1.0498,0.9413,0.8297,0.8623,0.9749,1.0356,1.0605,1.0875,1.3209,1.4082,1.4082,1.4082,1.4082,1.4082,1.4082,1.4082,1.4082,1.4082,1.4082,1.4082,1.4082,1.4082,1.4082,1.4082,1.4082,1.4122,1.4242,1.4282,1.4362,1.4656,1.471,1.4803,1.5097,1.5391,1.5631,1.5805,1.5832,1.5832,1.5832,1.7311,1.8503,1.8503,2.0116,2.1302,2.1302,2.2403,2.3144,2.3144,2.3144,2.3144,2.3144,2.3144,2.3144,2.3144,2.3144,2.3144,2.3144,2.3144,2.3144,2.3144,2.332,2.3652,2.4082,2.4512,2.4941,0.637,0.5701,0.4184,0.2263,-0.3822,-1.0297,-1.3937,-1.5119,-1.5364,-1.5009,0.0,-1.5401,-1.4559,-1.2765,-1.1042,-0.9943,0.0,-0.5063,-0.3259,-0.3632,-0.2215,0.2864,0.6228,1.1107,1.8806,1.3998,1.4922,2.591,1.3928,0.8555,1.4143,1.1403,1.0323,1.1771,0.821,0.6421,0.6585,0.455,0.3503,0.3503,0.3253,0.4325,0.6709,0.8837,0.9185,0.815,1.0767,0.0,0.9998,0.9352,0.9749,1.0616,1.0778,1.0864,1.1133,1.3307,1.4082,1.4082,1.4082,1.4082,1.4082,1.4082,1.4082,1.4082,1.4082,1.4082,1.4082,1.4082,1.4082,1.4095,1.4135,1.4148,1.4215,1.4509,1.4576,1.4656,1.4963,1.5057,1.515,1.5404,1.5658,1.5832,1.5832,1.5832,1.5832,1.5832,1.7762,1.9314,1.9497,2.0657,2.148,2.1302,2.2403,2.3057,2.2862,2.3038,2.3144,2.3144,2.3144,2.3144,2.3144,2.3144,2.3144,2.3144,2.3144,2.3164,2.3223,2.3613,2.4043,2.4512,2.4883,2.5312,0.7379,0.6466,0.4575,0.0427,-0.4835,-0.9891,-1.3286,-1.3324,0.0,0.0,-1.2163,-1.1626,-1.2681,-1.2377,0.0,-1.1664,0.0,0.0,0.0,0.0,-0.2733,0.0,0.0,0.0,0.0,0.0,0.0,0.0,0.0,1.5039,1.1218,1.1428,1.1107,0.9745,0.7532,0.6335,0.6337,0.4227,0.3177,0.3177,0.3092,0.4317,0.6694,0.8736,0.8819,0.7267,1.0491,0.0,0.9225,0.9981,1.0443,1.0692,1.1638,1.198,1.2163,1.3561,1.4082,1.4082,1.4082,1.4082,1.4082,1.4082,1.4082,1.4082,1.4082,1.4082,1.4082,1.4082,1.4082,1.4135,1.4389,1.4442,1.4522,1.4816,1.4883,1.4963,1.5257,1.5511,1.5698,1.5738,1.5792,1.5832,1.5832,1.5832,1.5832,1.5832,1.703,1.8411,1.9405,2.1409,2.2403,2.1391,2.2403,2.2687,2.1658,2.2492,2.3144,2.3144,2.3144,2.3144,2.3144,2.3144,2.3144,2.3144,2.3144,2.332,2.3672,2.375,2.4199,2.4961,2.5039,2.5312,0.7227,0.6388,0.4139,0.0941,-0.5159,-1.0824,-1.2438,0.0,0.0,0.0,-1.0761,-1.0199,-1.1574,0.0,0.0,0.0,0.0,0.0,0.0,0.0,0.0,0.0,0.0,0.0,0.0,0.0,0.0,0.0,0.0,1.1557,1.1965,1.1131,0.9788,0.7753,0.7318,0.6839,0.6304,0.5258,0.4214,0.3097,0.4214,0.5337,0.6548,0.8544,0.8769,0.7761,1.112,0.0,1.0624,1.1252,1.1466,1.1552,1.2066,1.2322,1.2419,1.3646,1.4082,1.4082,1.4082,1.4082,1.4082,1.4082,1.4082,1.4082,1.4082,1.4082,1.4122,1.4269,1.4309,1.4376,1.4669,1.475,1.483,1.5124,1.5297,1.5444,1.5591,1.5725,1.5832,1.5832,1.5832,1.5832,1.5832,1.5832,1.5832,1.5832,1.6857,1.787,1.8503,2.0133,2.1212,2.1302,2.1854,2.1943,2.1391,2.1836,2.2403,2.3057,2.3144,2.3144,2.3144,2.3144,2.2775,2.2208,2.2986,2.3306,2.2866,2.3944,2.4668,2.5078,2.5312,2.5664,0.5457,0.5111,0.332,0.1314,-0.4771,-1.0477,-1.1421,-1.1097,0.0,0.0,-1.0433,-1.0126,-1.1046,0.0,-1.1063,0.0,0.0,0.0,0.0,0.0,0.0,0.0,0.0,0.0,0.0,0.0,0.0,0.0,0.0,0.0,1.366,1.0959,0.8817,0.7905,0.7617,0.718,0.6655,0.643,0.5479,0.3826,0.5789,0.6662,0.6655,0.8694,0.9212,0.8754,1.1817,0.0,0.0,1.2421,1.2504,1.2322,1.2589,1.2674,1.2772,1.373,1.4082,1.4082,1.4082,1.4082,1.4082,1.4082,1.4082,1.4082,1.4082,1.4135,1.4229,1.4456,1.4563,1.4683,1.4977,1.5057,1.5124,1.5418,1.5658,1.5832,1.5832,1.5832,1.5832,1.5832,1.5832,1.5832,1.5832,1.5832,1.5832,1.5832,1.6669,1.7404,1.7684,1.8503,1.9497,2.0387,2.1016,2.1194,2.0926,2.1391,2.212,2.3057,2.3144,2.3144,2.3144,2.3144,2.2492,2.1302,2.264,2.2812,2.1671,2.373,2.4717,2.4813,2.5373,2.5977,0.1024,0.1758,0.2211,-0.039,-0.3199,-0.6295,-1.0187,0.0,0.0,-1.0792,-1.1258,-1.135,-1.1226,-1.2124,-1.3172,-1.3962,-1.3488,-1.2268,0.0,0.0,0.0,0.0,0.0,0.0,0.0,0.0,0.0,0.0,0.0,0.0,1.5084,1.1365,1.033,1.2825,0.8722,0.6795,0.7633,0.6732,0.619,0.6022,0.7427,0.7966,0.771,0.9734,1.0363,0.9908,1.2209,0.0,0.0,1.3027,1.3294,1.2419,1.3464,1.3913,1.3913,1.4082,1.4082,1.4082,1.4082,1.4082,1.4082,1.4082,1.4082,1.4082,1.4082,1.4269,1.4482,1.4509,1.471,1.499,1.5284,1.5351,1.5431,1.5725,1.5805,1.5832,1.5832,1.5832,1.5832,1.5832,1.5832,1.5832,1.5832,1.5832,1.5832,1.5832,1.5927,1.6386,1.7591,1.7777,1.787,1.8056,2.0025,2.0836,1.977,2.1676,2.295,2.3057,2.3144,2.3144,2.3144,2.3144,2.2492,2.1302,2.1717,2.1538,2.0712,2.239,2.3383,2.3845,2.5099,2.5977,-0.3977,-0.3048,-0.1842,-0.2923,-0.4321,-0.6326,-0.9634,0.0,-0.9122,-1.1273,-1.1505,-1.122,-1.0742,-1.1405,-1.1829,-1.1111,-1.1123,-1.0623,-0.8973,0.0,0.0,0.0,0.0,0.0,0.0,0.0,0.0,0.0,0.0,0.0,1.8847,1.4877,1.2394,1.1879,1.0444,0.9435,0.8694,0.8322,0.8093,0.8084,0.8627,0.8856,0.877,1.0351,1.0996,1.11,1.273,0.0,0.0,1.373,1.3815,1.3464,1.3913,1.4082,1.4082,1.4082,1.4082,1.4082,1.4082,1.4082,1.4122,1.4295,1.4349,1.4349,1.4349,1.4549,1.4816,1.5003,1.5137,1.5297,1.5578,1.5658,1.5685,1.5805,1.5832,1.5832,1.5832,1.5832,1.5832,1.5832,1.5832,1.6008,1.6857,1.6292,1.6008,1.6857,1.6292,1.6008,1.648,1.6574,1.6574,1.6574,1.8764,2.0025,1.9588,2.1033,2.2315,2.3057,2.3144,2.3144,2.3144,2.3144,2.2251,2.0457,2.1596,2.1414,1.9735,2.2253,2.3538,2.3701,2.5385,2.6367,-0.8977,-0.7998,-0.638,-0.638,-0.6305,-0.6831,0.0,-0.8772,-0.8634,-1.0695,-1.1317,-1.1237,-1.0447,-1.0439,-0.9968,-0.8148,-0.8375,-0.8364,-0.7216,0.0,0.0,0.0,0.0,0.0,0.0,0.0,0.0,0.0,0.0,0.0,2.2075,1.9019,1.591,1.2927,1.2032,1.1108,1.0185,0.9593,0.9301,0.9301,0.9593,0.9895,1.0185,1.1218,1.2039,1.2632,1.3345,0.0,0.0,1.4082,1.4082,1.4082,1.4082,1.4082,1.4082,1.4082,1.4082,1.4082,1.4082,1.4082,1.4135,1.4429,1.4576,1.4669,1.475,1.4923,1.5137,1.5337,1.5458,1.5658,1.6236,1.6103,1.6008,1.6749,1.6655,1.648,1.6842,1.6936,1.6936,1.6936,1.656,1.6669,1.7512,1.6669,1.6103,1.703,1.6386,1.5832,1.5832,1.5832,1.5832,1.5832,1.7669,1.9131,1.9497,2.0944,2.2031,2.258,2.2862,2.295,2.258,2.2625,2.1807,1.9931,2.0886,2.0475,1.8658,2.1678,2.3085,2.3185,2.5358,2.668,-1.3882,-1.2819,-1.1048,-1.1048,-0.8939,-0.7155,0.0,-0.7795,-0.7513,-0.8631,-1.0558,-1.1739,-1.0511,-0.9419,-0.8086,-0.6079,-0.6025,-0.5997,-0.5233,0.0,0.0,0.0,0.0,0.0,0.0,0.0,0.0,0.0,0.0,0.0,2.4089,2.3331,2.1377,1.7919,1.3215,1.1169,1.2151,1.026,0.9301,0.9301,1.0335,1.1292,1.2164,1.2585,1.3432,0.0,0.0,0.0,0.0,1.4082,1.4082,1.4082,1.4082,1.4082,1.4082,1.4082,1.4082,1.4082,1.4082,1.4082,1.4135,1.4429,1.4723,1.5017,1.5297,1.5391,1.5391,1.5391,1.5605,1.6103,1.7311,1.6763,1.6386,1.8856,1.8596,1.8056,1.9222,1.9497,1.9497,1.9497,1.8503,1.7684,1.7684,1.6669,1.5832,1.5832,1.5832,1.5832,1.5832,1.5832,1.5832,1.5832,1.6936,1.8226,1.9405,2.1676,2.258,2.1391,2.2403,2.258,2.1391,2.1608,2.1177,1.9931,1.9284,1.8455,1.7257,2.0265,2.1744,2.176,2.4939,2.6855,-1.2464,-1.078,-0.8146,-0.7307,-0.5947,-0.4984,-0.5618,-0.5651,-0.5846,-0.6894,-0.7811,-0.8086,-0.6855,-0.6322,-0.5442,-0.3414,-0.4442,-0.445,0.0,0.0,0.0,0.0,0.0,0.0,0.0,0.0,0.0,0.0,0.0,0.0,2.4413,2.3579,2.1766,1.8754,1.7293,1.5479,1.3288,1.2631,1.197,1.1329,1.2352,1.2924,1.3302,1.4516,1.537,0.0,0.0,0.0,0.0,1.5959,1.5394,1.4166,1.4894,1.4741,1.4082,1.4082,1.4082,1.4082,1.4082,1.4215,1.4429,1.4723,1.5017,1.5311,1.5605,1.5698,1.5698,1.5698,1.5752,1.5927,1.6292,1.6763,1.7311,1.8041,1.8596,1.9039,1.9405,1.9497,1.9497,1.9497,1.9222,1.8948,1.8948,1.7948,1.7124,1.7124,1.6386,1.5832,1.5832,1.5832,1.5832,1.5832,1.6951,1.8241,1.9405,2.0223,2.0854,2.1302,2.0854,2.0494,2.0133,2.0306,2.0063,1.8962,1.9024,1.8964,1.8861,2.0782,2.2926,2.5349,2.6622,2.7559,-1.0511,-0.9566,-0.7577,-0.681,-0.5071,-0.3528,-0.3398,-0.3,-0.2874,-0.3686,-0.452,-0.4906,-0.4258,-0.3285,-0.2177,-0.0939,-0.2419,-0.292,0.0,0.0,0.0,0.0,0.0,0.0,0.0,0.0,0.0,0.0,0.0,0.0,2.5198,2.423,2.2723,2.0641,1.936,1.7484,1.4799,1.4458,1.3954,1.3375,1.3954,1.4442,1.4816,1.5602,1.6246,0.0,0.0,0.0,0.0,1.7009,1.6535,1.5311,1.5628,1.5296,1.4657,1.425,1.4334,1.4741,1.4741,1.5177,1.5835,1.5641,1.5581,1.5591,1.5778,1.5832,1.5927,1.6386,1.648,1.6749,1.7654,1.8118,1.8596,1.9497,1.9951,2.0314,2.0764,2.0854,2.0854,2.0854,2.0494,2.0025,1.9588,1.8503,1.7498,1.7044,1.6292,1.5832,1.5832,1.5832,1.5832,1.5832,1.648,1.7498,1.8688,1.9222,1.9588,1.9951,1.9679,1.9379,1.8955,1.9194,1.9171,1.8736,1.8571,1.8817,1.9627,2.1689,2.414,2.7031,2.7461,2.7891,0.0,-0.8578,-0.8509,-0.8425,-0.5584,-0.2528,-0.1428,-0.0031,0.0,0.052,-0.0799,-0.2014,-0.2318,-0.0269,0.1483,0.1478,-0.0137,0.0,0.0,0.0,0.0,0.0,0.0,0.0,0.0,0.0,0.0,0.0,0.0,0.0,2.6013,2.5016,2.3951,2.2955,1.9893,1.774,1.6697,1.586,1.5296,1.5226,1.5242,1.579,1.6576,1.6041,1.6564,0.0,0.0,0.0,0.0,1.7496,1.7415,1.7172,1.6273,1.5861,1.5696,1.4741,1.4977,1.5779,1.5779,1.6771,1.7894,1.7075,1.645,1.6103,1.6103,1.6008,1.6197,1.7404,1.7777,1.8319,2.0567,2.0387,2.0223,2.2403,2.2208,2.1747,2.2862,2.3144,2.3144,2.3144,2.2208,2.1016,1.9861,1.8596,1.7404,1.6103,1.5832,1.5832,1.5832,1.5832,1.5832,1.5832,1.5832,1.6292,1.7498,1.858,1.8764,1.7777,1.8703,1.8862,1.7971,1.8213,1.8537,1.8846,1.8254,1.8499,1.9731,2.2963,2.5349,2.7031,2.75,2.793,-0.1417,0.0,-0.4624,-0.364,-0.2137,-0.0446,0.0,0.2164,0.25,0.2753,0.0,0.2092,0.2669,0.3451,0.4061,0.416,0.1491,0.0,0.0,0.0,0.0,0.0,0.0,0.0,0.0,0.0,0.0,0.0,0.0,2.514,2.42,2.3939,2.2951,2.1002,2.1081,1.9989,1.76,1.7396,1.6573,1.5242,1.593,1.6367,1.6612,1.7506,1.8275,0.0,0.0,0.0,1.8638,1.9511,1.8877,1.7334,1.798,1.7658,1.6927,1.6617,1.6683,1.6927,1.6927,1.7513,1.839,1.8677,1.8712,1.8672,1.8672,1.7948,1.7311,1.7591,1.8319,1.9222,1.977,2.0387,2.1016,2.1569,2.2208,2.2775,2.3057,2.3144,2.3144,2.3144,2.2862,2.2315,2.1123,1.9861,1.8672,1.7404,1.6386,1.5832,1.5832,1.5832,1.5832,1.5832,1.5832,1.5927,1.6197,1.6466,1.6936,1.7684,1.726,1.6952,1.6746,1.7268,1.7585,1.7654,1.9653,2.0947,2.1253,2.4692,2.6589,2.7031,2.7793,2.8203,0.1767,0.0278,-0.1082,0.0,0.0896,0.2078,0.4395,0.5083,0.5301,0.0,0.0,0.5311,0.5533,0.6508,0.7239,0.7107,0.5396,0.0,0.0,0.0,0.0,0.0,0.0,0.0,0.0,0.0,0.0,0.0,0.0,2.4918,2.4287,2.3849,2.3062,2.1789,2.211,2.1169,1.8825,1.9055,1.8429,1.7092,1.7978,1.8267,1.7833,1.8614,1.939,0.0,0.0,0.0,2.0081,2.0469,1.9923,1.8877,1.8957,1.8638,1.798,1.7496,1.7658,1.806,1.806,1.8559,1.9282,1.9866,1.9816,1.9497,1.9497,1.9405,1.9314,1.9314,1.9861,2.0477,2.1033,2.1676,2.212,2.212,2.258,2.3144,2.3144,2.3144,2.3144,2.3144,2.3144,2.2687,2.148,2.0296,1.9131,1.787,1.6574,1.5832,1.5832,1.5832,1.5832,1.5832,1.5832,1.5832,1.5832,1.5832,1.6171,1.6961,1.6566,1.6393,1.666,1.6981,1.7208,1.7341,2.024,2.1827,2.2009,2.5321,2.7109,2.7324,2.7988,2.8301,0.3103,0.2469,0.1985,0.2665,0.3405,0.4544,0.6776,0.0,0.0,0.0,0.0,0.0,0.0,0.0,0.0,0.0,0.0,0.0,0.0,0.0,0.0,0.0,0.0,0.0,0.0,0.0,0.0,0.0,0.0,2.5221,2.5221,2.4184,2.3541,2.3378,2.2839,2.1798,2.009,2.0438,2.0245,1.9507,2.0268,2.0204,1.9486,1.9486,2.0138,2.113,0.0,0.0,2.1167,2.0827,2.0663,2.0489,1.9608,1.9274,1.9116,1.8141,1.8399,1.9213,1.9268,1.9779,2.0371,2.0857,2.0536,2.0042,2.0042,2.0764,2.1569,2.1569,2.1569,2.1836,2.2862,2.3144,2.3144,2.3144,2.3144,2.3144,2.3144,2.3144,2.3144,2.3144,2.3144,2.2775,2.1747,2.0567,1.9405,1.8133,1.6936,1.6021,1.5832,1.5832,1.5832,1.5832,1.5832,1.5832,1.5832,1.5872,1.6019,1.6326,1.6339,1.6607,1.7194,1.7208,1.7328,1.7582,2.0333,2.1943,2.2324,2.5433,2.7246,2.7676,2.8105,2.832,0.3596,0.3804,0.4135,0.3929,0.4722,0.5869,0.7028,0.7623,0.0,0.0,0.0,0.0,0.0,0.0,0.0,0.0,0.0,0.0,0.0,0.0,0.0,0.0,0.0,0.0,0.0,0.0,0.0,0.0,0.0,0.0,2.5221,2.4184,2.3378,2.2838,2.2664,2.218,2.1324,2.1098,2.0726,2.0398,2.0526,2.0526,2.0398,2.0398,2.0729,2.1174,0.0,2.1038,2.1199,2.1135,2.0898,2.0566,2.0411,2.0313,2.0313,2.0157,2.0235,2.0371,2.0758,2.1202,2.1684,2.2109,2.2342,2.2599,2.2599,2.2687,2.2862,2.2862,2.2862,2.2862,2.3057,2.3144,2.3144,2.3144,2.3144,2.3144,2.3144,2.3144,2.3144,2.3144,2.3144,2.3057,2.2862,2.1854,2.0567,1.9405,1.8226,1.7044,1.5927,1.5832,1.5832,1.5832,1.5832,1.5832,1.5832,1.6059,1.6326,1.662,1.6647,1.6901,1.7488,1.7515,1.7542,1.7582,2.0333,2.1943,2.2324,2.5433,2.7246,2.7676,2.8105,2.8476,0.3647,0.4435,0.5538,0.6077,0.6484,0.7292,0.9372,0.9966,0.0,0.0,0.0,0.0,0.0,0.0,0.0,0.0,0.0,0.0,0.0,0.0,0.0,0.0,0.0,0.0,0.0,0.0,0.0,0.0,0.0,0.0,2.4225,2.3834,2.345,2.3187,2.2489,2.2095,2.215,2.1255,2.0816,2.0811,2.1587,2.1729,2.129,2.129,2.1619,2.2171,0.0,2.1643,2.2243,2.153,2.1246,2.1298,2.0779,2.0566,2.0566,2.0566,2.0566,2.0586,2.0801,2.1328,2.1914,2.2109,2.2617,2.3144,2.3144,2.3144,2.3144,2.3144,2.3144,2.3144,2.3144,2.3144,2.3144,2.3144,2.3144,2.3144,2.3144,2.3144,2.3144,2.3144,2.3144,2.3144,2.3144,2.212,2.0926,1.9679,1.8503,1.7217,1.5927,1.5832,1.5832,1.5832,1.5832,1.5832,1.5832,1.6099,1.646,1.6914,1.7088,1.7301,1.7569,1.7582,1.7582,1.7582,1.9524,2.1219,2.2606,2.4887,2.6598,2.8008,2.8203,2.8516,0.3988,0.503,0.6429,0.7762,0.0,0.8792,1.178,1.237,0.0,0.0,0.0,0.0,0.0,0.0,0.0,0.0,0.0,0.0,0.0,0.0,0.0,0.0,0.0,0.0,0.0,0.0,0.0,0.0,0.0,0.0,2.3561,2.3447,2.346,2.361,2.2529,2.215,2.2623,2.1484,2.1026,2.1332,2.2427,2.2639,2.2187,2.2187,2.2519,2.303,2.2067,2.2082,2.2724,2.1773,2.145,2.1439,2.0817,2.0566,2.0566,2.0566,2.0566,2.0566,2.0566,2.1152,2.1894,2.1894,2.2461,2.3144,2.3144,2.3144,2.3144,2.3144,2.3144,2.3144,2.3144,2.3144,2.3144,2.3144,2.3144,2.3144,2.3144,2.3144,2.3144,2.3144,2.3144,2.3144,2.3144,2.2315,2.1212,1.977,1.8688,1.7591,1.6008,1.5832,1.5832,1.5832,1.5832,1.5885,1.6019,1.6246,1.662,1.7208,1.7462,1.7582,1.7582,1.7582,1.7582,1.7582,1.8988,2.0752,2.2855,2.4421,2.6225,2.8301,2.8301,2.8574,0.5149,0.5911,0.6696,0.8042,0.8967,0.0,1.3123,1.3583,0.0,1.554,0.0,0.0,0.0,0.0,0.0,0.0,0.0,0.0,0.0,0.0,0.0,0.0,0.0,0.0,0.0,0.0,0.0,0.0,0.0,0.0,2.4015,2.3253,2.3011,2.358,2.2965,2.2678,2.2661,2.193,2.1766,2.218,2.2289,2.2589,2.3005,2.3005,2.3065,2.3065,2.2994,2.2336,2.1397,2.1685,2.1132,2.0075,2.0487,2.0566,2.0566,2.0566,2.0566,2.0566,2.0566,2.1152,2.1894,2.1894,2.2461,2.3144,2.3144,2.3144,2.3144,2.3144,2.3144,2.3144,2.3144,2.3144,2.3144,2.3144,2.3144,2.3144,2.3144,2.3144,2.3144,2.3144,2.3144,2.3144,2.3144,2.3038,2.2227,1.9861,1.9405,1.8488,1.6103,1.5832,1.5832,1.5832,1.5832,1.6046,1.6593,1.666,1.6927,1.7515,1.7569,1.7582,1.7582,1.7582,1.7582,1.7582,1.9204,2.1,2.2855,2.458,2.6398,2.8301,2.8301,2.873,0.4713,0.6368,0.8228,0.9069,1.0611,0.0,0.0,1.4773,1.5874,1.8051,1.9052,0.0,0.0,0.0,0.0,0.0,0.0,0.0,0.0,0.0,0.0,0.0,0.0,0.0,0.0,0.0,0.0,0.0,0.0,0.0,2.2942,2.3025,2.3254,2.358,2.3009,2.2694,2.2694,2.2007,2.1763,2.1869,2.2141,2.2598,2.3065,2.3065,2.3065,2.3065,2.3065,2.3059,2.2943,2.2811,2.2338,2.1533,2.0831,2.0566,2.0566,2.0566,2.0566,2.0605,2.0879,2.1387,2.1934,2.2187,2.2676,2.3144,2.3144,2.3144,2.3144,2.3144,2.3144,2.3144,2.3144,2.3144,2.3144,2.3144,2.3144,2.3144,2.3144,2.3144,2.3144,2.3144,2.3144,2.3144,2.3144,2.2492,2.1391,1.977,1.8856,1.7762,1.6008,1.5832,1.5832,1.5832,1.5832,1.6072,1.666,1.67,1.6954,1.7542,1.7582,1.7582,1.7582,1.7582,1.7582,1.7582,1.8411,2.0193,2.2855,2.3759,2.5559,2.8301,2.8555,2.9004,0.5076,0.6982,0.9148,0.9897,0.0,0.0,1.4699,1.5968,1.7518,1.9883,2.0847,0.0,0.0,0.0,0.0,0.0,0.0,0.0,0.0,0.0,0.0,0.0,0.0,0.0,0.0,0.0,0.0,0.0,0.0,0.0,0.0,2.2378,2.2738,2.3281,2.2922,2.2761,2.2965,2.2346,2.1994,2.1923,2.2452,2.2783,2.2874,2.299,2.3065,2.3065,2.3065,2.3169,2.3318,2.3269,2.2983,2.2331,2.112,2.0566,2.0566,2.0566,2.0566,2.0605,2.0918,2.1406,2.1934,2.2227,2.2695,2.3144,2.3144,2.3144,2.3144,2.3144,2.3144,2.3144,2.3144,2.3144,2.3144,2.3144,2.3144,2.3144,2.3144,2.3144,2.3144,2.3144,2.3144,2.3144,2.3144,2.212,2.0926,1.9679,1.8503,1.7217,1.5927,1.5832,1.5832,1.5832,1.5832,1.6072,1.666,1.67,1.6954,1.7542,1.7582,1.7582,1.7582,1.7582,1.7582,1.7582,1.7983,1.9758,2.2855,2.3336,2.5125,2.8301,2.873,2.916,0.6578,0.7834,0.9218,0.0,0.0,0.0,1.555,1.7093,1.8647,2.0793,0.0,0.0,0.0,0.0,0.0,0.0,0.0,0.0,0.0,0.0,0.0,0.0,0.0,0.0,0.0,0.0,0.0,0.0,0.0,0.0,0.0,2.1167,2.1306,2.2694,2.2724,2.2981,2.358,2.3009,2.2686,2.26,2.3285,2.3098,2.2322,2.2874,2.3125,2.3065,2.3065,2.2641,2.1949,2.293,2.2818,2.1962,2.1011,2.0644,2.0644,2.0566,2.0566,2.0566,2.0566,2.1152,2.1894,2.1894,2.2461,2.3144,2.3144,2.3144,2.3144,2.3144,2.3144,2.3144,2.3144,2.3144,2.3144,2.3144,2.3144,2.3144,2.3144,2.3144,2.3144,2.3144,2.3144,2.3144,2.3144,2.212,2.0926,1.9679,1.8503,1.7217,1.5927,1.5832,1.5832,1.5832,1.5832,1.6072,1.666,1.6714,1.6954,1.7542,1.7582,1.7582,1.7582,1.7582,1.7582,1.7582,1.8183,1.999,2.2855,2.3475,2.5388,2.8301,2.873,2.916,0.6021,0.7894,0.0,1.0971,0.0,0.0,0.0,1.7933,0.0,0.0,0.0,0.0,0.0,0.0,0.0,0.0,0.0,0.0,0.0,0.0,0.0,0.0,0.0,0.0,0.0,0.0,0.0,0.0,0.0,0.0,0.0,2.1459,2.1592,2.2664,2.2724,2.2981,2.358,2.3009,2.2431,2.1987,2.2123,2.2243,2.2322,2.3463,2.3662,2.3065,2.3065,2.2944,2.2776,2.3125,2.3395,2.3413,2.2136,2.1583,2.1507,2.0857,2.0566,2.0605,2.0918,2.1406,2.1934,2.2227,2.2695,2.3144,2.3144,2.3144,2.3144,2.3144,2.3144,2.3144,2.3144,2.3144,2.3144,2.3144,2.3144,2.3144,2.3144,2.3144,2.3144,2.3144,2.3144,2.3144,2.3144,2.212,2.0926,1.9679,1.8503,1.7217,1.5927,1.5832,1.5832,1.5832,1.6019,1.6299,1.6673,1.6901,1.7181,1.7555,1.7582,1.7582,1.7582,1.7582,1.7582,1.7582,1.8183,1.9442,2.1356,2.3035,2.482,2.6844,2.8584,2.9453,0.6773,0.893,0.0,0.0,0.0,0.0,0.0,0.0,0.0,0.0,0.0,0.0,0.0,0.0,0.0,0.0,0.0,0.0,0.0,0.0,0.0,0.0,0.0,0.0,0.0,0.0,0.0,0.0,0.0,0.0,0.0,2.1019,2.1038,2.1874,2.2143,2.2592,2.3221,2.2892,2.2346,2.171,2.2199,2.2299,2.1995,2.3071,2.3398,2.3065,2.3065,2.3276,2.3491,2.3352,2.3461,2.349,2.2444,2.1735,2.1375,2.0779,2.0566,2.0605,2.0879,2.1367,2.1934,2.2187,2.2656,2.3144,2.3144,2.3144,2.3144,2.3144,2.3144,2.3144,2.3144,2.3144,2.3144,2.3144,2.3144,2.3144,2.3144,2.3144,2.3144,2.3144,2.3144,2.3144,2.3144,2.212,2.0926,1.9679,1.8041,1.6669,1.5927,1.5832,1.5872,1.5992,1.6166,1.6433,1.6847,1.7048,1.7275,1.7569,1.7582,1.7582,1.7582,1.7582,1.7582,1.7582,1.8183,1.9236,2.0708,2.2814,2.4599,2.6173,2.8477,2.957,0.8149,0.0,0.0,0.0,0.0,0.0,0.0,0.0,0.0,0.0,0.0,0.0,0.0,0.0,0.0,0.0,0.0,0.0,0.0,0.0,0.0,0.0,0.0,0.0,0.0,0.0,0.0,0.0,0.0,0.0,0.0,2.0154,2.0019,2.0707,2.1365,2.2024,2.2694,2.2717,2.2392,2.1805,2.2914,2.2748,2.1605,2.2217,2.2715,2.3065,2.3065,2.3427,2.3891,2.3555,2.3164,2.2835,2.2305,2.1562,2.0857,2.0644,2.0566,2.0566,2.0566,2.1152,2.1894,2.1894,2.2461,2.3144,2.3144,2.3144,2.3144,2.3144,2.3144,2.3144,2.3144,2.3144,2.3144,2.3144,2.3144,2.3144,2.3144,2.3144,2.3144,2.3144,2.3144,2.3144,2.3144,2.2208,2.1033,1.9679,1.739,1.5832,1.5832,1.594,1.6157,1.6441,1.6508,1.6765,1.7306,1.7271,1.7301,1.7569,1.7582,1.7582,1.7582,1.7582,1.7595,1.7622,1.8196,1.914,2.055,2.272,2.4488,2.5954,2.8477,2.957,0.7477,0.9351,0.0,0.0,0.0,0.0,0.0,0.0,0.0,0.0,0.0,0.0,0.0,0.0,0.0,0.0,0.0,0.0,0.0,0.0,0.0,0.0,0.0,0.0,0.0,0.0,0.0,0.0,0.0,0.0,2.0467,1.998,2.0019,2.0707,2.1365,2.2024,2.2694,2.2717,2.2649,0.0,2.178,2.1712,2.2239,2.3446,2.3642,2.3065,2.3065,2.314,2.329,2.3679,2.4033,2.422,2.3024,2.2659,2.2713,2.1165,2.0566,2.0566,2.0566,2.1152,2.1894,2.1894,2.2461,2.3144,2.3144,2.3144,2.3144,2.3144,2.3144,2.3144,2.3144,2.3144,2.3144,2.3144,2.3144,2.3144,2.3144,2.3144,2.3144,2.3144,2.3144,2.3144,2.3144,2.2862,2.1943,1.9861,1.739,1.5832,1.5832,1.6961,1.7802,1.7875,1.8331,1.8599,1.873,1.7964,1.7515,1.7582,1.7582,1.7582,1.7582,1.7582,1.7702,1.7943,1.8303,1.8709,1.9261,2.2289,2.3933,2.4394,2.7902,2.957,0.781,0.0,0.0,0.0,0.0,0.0,0.0,0.0,0.0,0.0,0.0,0.0,0.0,0.0,0.0,0.0,0.0,0.0,0.0,0.0,0.0,0.0,0.0,0.0,0.0,0.0,0.0,0.0,0.0,2.0797,2.033,1.9909,1.9839,2.0198,2.1186,2.1874,2.2203,2.2233,2.2207,2.2207,2.1259,2.1351,2.2456,2.3352,2.3528,2.3065,2.3065,2.3065,2.3175,2.3753,2.4052,2.3959,2.3074,2.2717,2.2616,2.1165,2.0566,2.0566,2.0566,2.1152,2.1894,2.1894,2.2461,2.3144,2.3144,2.3144,2.3144,2.3144,2.3144,2.3144,2.3144,2.3144,2.3144,2.3144,2.3144,2.3144,2.3144,2.3144,2.3144,2.3144,2.3144,2.3144,2.3144,2.258,2.1587,1.977,1.7948,1.6805,1.6961,1.7787,1.8667,1.9555,1.9422,1.9209,1.9358,1.831,1.7582,1.7582,1.7582,1.7582,1.7582,1.7729,1.7876,1.805,1.8343,1.8637,1.8918,2.2209,2.3822,2.3838,2.7791,2.957,0.8293,0.0,1.2905,1.6765,0.0,0.0,0.0,0.0,0.0,0.0,0.0,0.0,0.0,0.0,0.0,0.0,0.0,0.0,0.0,0.0,0.0,0.0,0.0,0.0,0.0,0.0,0.0,0.0,0.0,2.0764,2.0227,1.9874,1.969,1.969,2.1006,2.1695,2.1695,2.1899,2.2039,2.2039,2.1415,2.1559,2.2402,2.2814,2.299,2.3065,2.3065,2.3065,2.3115,2.3653,2.3762,2.3537,2.2983,2.2578,2.2113,2.1145,2.0722,2.0566,2.0566,2.1152,2.1894,2.1894,2.2461,2.3144,2.3144,2.3144,2.3144,2.3144,2.3144,2.3144,2.3144,2.3144,2.3144,2.3144,2.3144,2.3144,2.3144,2.3144,2.3144,2.3144,2.3144,2.3144,2.3144,2.212,2.0926,1.9679,1.8688,1.8085,1.8308,1.8686,1.9718,2.1425,2.0384,1.9735,1.9907,1.8499,1.7582,1.7582,1.7582,1.7582,1.7582,1.7876,1.8076,1.8116,1.841,1.8816,1.9326,2.2352,2.3966,2.4384,2.794,2.9609,0.0,0.0,1.3941,0.0,0.0,0.0,0.0,0.0,0.0,0.0,0.0,0.0,0.0,0.0,0.0,0.0,0.0,0.0,0.0,0.0,0.0,0.0,0.0,0.0,0.0,0.0,0.0,0.0,2.1023,2.0632,1.9803,1.9726,1.969,1.969,2.1006,2.1695,2.1695,2.2782,2.3363,2.3319,2.2696,2.2393,2.2402,2.2407,2.2673,2.3065,2.3065,2.3065,2.309,2.3165,2.3729,2.4484,2.3561,2.3259,2.3136,2.2188,2.1298,2.0566,2.0566,2.1152,2.1894,2.1894,2.2461,2.3144,2.3144,2.3144,2.3144,2.3144,2.3144,2.3144,2.3144,2.3144,2.3144,2.3144,2.3144,2.3144,2.3144,2.3144,2.3144,2.3144,2.3144,2.3144,2.3144,2.212,2.0926,1.9679,1.9405,1.8983,1.8404,2.0512,2.2316,2.2955,2.1994,2.1391,2.144,1.9109,1.7582,1.7582,1.7582,1.7582,1.7582,1.7876,1.817,1.8424,1.8718,1.9666,2.1185,2.2911,2.4658,2.6363,2.8537,2.9766,0.9046,1.1415,0.0,0.0,0.0,0.0,0.0,0.0,0.0,0.0,0.0,0.0,0.0,0.0,0.0,0.0,0.0,0.0,0.0,0.0,0.0,0.0,0.0,0.0,0.0,0.0,0.0,0.0,2.0991,2.0599,1.9762,1.969,1.969,1.969,2.1006,2.1695,2.1695,2.2612,2.274,2.2021,2.1724,2.1691,2.1911,2.1832,2.2322,2.3065,2.3065,2.3065,2.3065,2.3065,2.3803,2.4678,2.3688,2.3352,2.3379,2.2392,2.1451,2.0566,2.0566,2.1152,2.1894,2.1894,2.2461,2.3144,2.3144,2.3144,2.3144,2.3144,2.3144,2.3144,2.3144,2.3144,2.3144,2.3144,2.3144,2.3144,2.3144,2.3144,2.3144,2.3144,2.3144,2.3144,2.3144,2.2687,2.1943,2.0657,2.0776,2.087,2.0779,2.2013,2.34,2.4503,2.3574,2.2567,2.1744,1.9819,1.8408,1.7687,1.7582,1.7582,1.7582,1.887,1.9613,1.9757,1.996,2.0598,2.1586,2.3933,2.5692,2.6788,2.8668,2.9805,0.0,0.0,0.0,0.0,0.0,0.0,0.0,0.0,0.0,0.0,0.0,0.0,0.0,0.0,0.0,0.0,0.0,0.0,0.0,0.0,0.0,0.0,0.0,0.0,0.0,0.0,0.0,0.0,2.0991,2.0599,1.9762,1.969,1.969,1.969,2.0827,2.1515,2.1695,2.2353,2.2235,2.1286,2.0944,2.1121,2.169,2.1605,2.2096,2.3065,2.3065,2.3065,2.3065,2.3065,2.3803,2.4743,2.3976,2.3629,2.3452,2.2616,2.1603,2.0566,2.0566,2.1152,2.1894,2.1894,2.2461,2.3144,2.3144,2.3144,2.3144,2.3144,2.3144,2.3144,2.3144,2.3144,2.3144,2.3144,2.3144,2.3144,2.3144,2.3144,2.3144,2.3144,2.3144,2.3144,2.3144,2.3144,2.2687,2.148,2.1934,2.2447,2.2568,2.3253,2.4256,2.5586,2.451,2.3285,2.2265,2.0641,1.9213,1.8199,1.7793,1.782,1.831,1.9886,2.097,2.1372,2.2025,2.2434,2.2702,2.5041,2.6536,2.7493,2.8949,2.9863,0.0,0.0,0.0,0.0,0.0,0.0,0.0,0.0,0.0,0.0,0.0,0.0,0.0,0.0,0.0,0.0,0.0,0.0,0.0,0.0,0.0,0.0,0.0,0.0,0.0,0.0,0.0,0.0,2.0991,2.0599,1.9762,1.969,1.969,1.969,2.0378,2.1066,2.1695,2.2353,2.2649,2.2603,2.1382,2.1351,2.2322,2.1746,2.2096,2.3065,2.3065,2.3065,2.3065,2.3065,2.3803,2.4808,2.4743,2.4226,2.3526,2.3452,2.2188,2.0566,2.0566,2.1152,2.1894,2.1894,2.2461,2.3144,2.3144,2.3144,2.3144,2.3144,2.3144,2.3144,2.3144,2.3144,2.3144,2.3144,2.3144,2.3144,2.3144,2.3144,2.3144,2.3144,2.3144,2.3144,2.3144,2.3144,2.2687,2.148,2.2674,2.3472,2.2738,2.4013,2.5139,2.5684,2.451,2.3683,2.3583,2.1151,1.9524,1.9524,1.8304,1.8323,2.0076,2.0527,2.1511,2.326,2.4924,2.5809,2.5827,2.6045,2.7233,2.942,2.9551,3.0019,0.0,0.0,0.0,0.0,0.0,0.0,0.0,0.0,0.0,0.0,0.0,0.0,0.0,0.0,0.0,0.0,0.0,0.0,0.0,0.0,0.0,0.0,0.0,0.0,0.0,0.0,0.0,0.0,0.0,2.0731,2.0124,1.9839,1.969,1.969,2.0767,2.1844,2.2921,2.3155,2.2846,2.2039,2.1568,2.1528,2.1801,2.1605,2.2096,2.3065,2.3065,2.3065,2.3065,2.3065,2.3803,2.4833,2.4833,2.4294,2.3526,2.3526,2.2264,2.0605,2.0898,2.1387,2.1934,2.2207,2.2676,2.3144,2.3144,2.3144,2.3144,2.3144,2.3144,2.3144,2.3144,2.3144,2.3144,2.3144,2.3144,2.3144,2.3144,2.3144,2.3144,2.3144,2.3144,2.3144,2.3144,2.3144,2.295,2.2492,2.3461,2.4055,2.382,2.4755,2.5566,2.5723,2.5235,2.4609,2.3782,2.2767,2.1862,2.1049,2.0538,2.0592,2.1579,2.2761,2.3874,2.4791,2.6621,2.706,2.6155,2.7303,2.8526,2.957,2.9844,3.0293,0.9877,0.0,0.0,0.0,0.0,0.0,0.0,0.0,0.0,0.0,0.0,0.0,0.0,0.0,0.0,0.0,0.0,0.0,0.0,0.0,0.0,0.0,0.0,0.0,0.0,0.0,0.0,0.0,0.0,0.0,2.0124,1.9839,1.9779,2.0019,2.1126,2.2203,2.3281,2.3069,2.2546,2.171,2.128,2.1223,2.1493,2.1493,2.2096,2.3065,2.3065,2.3065,2.309,2.3351,2.3979,2.4833,2.5008,2.4643,2.4036,2.4036,2.2787,2.1148,2.1982,2.205,2.2036,2.2868,2.3031,2.3144,2.3144,2.3144,2.3144,2.3144,2.3144,2.3144,2.3144,2.3144,2.3144,2.3144,2.3144,2.3144,2.3144,2.3144,2.3144,2.3144,2.3144,2.3144,2.3144,2.3144,2.3184,2.334,2.3965,2.4473,2.4609,2.5273,2.5742,2.5742,2.5742,2.5333,2.4412,2.3998,2.3285,2.2466,2.208,2.2314,2.3203,2.4524,2.5569,2.6523,2.7699,2.791,2.7029,2.8314,2.9141,2.959,3.0,3.0449,0.0,0.0,0.0,0.0,0.0,0.0,0.0,0.0,0.0,0.0,0.0,0.0,0.0,0.0,0.0,0.0,0.0,0.0,0.0,0.0,0.0,0.0,0.0,0.0,0.0,0.0,0.0,0.0,2.0599,2.0124,1.9762,1.9726,2.0019,2.0707,2.1365,2.2024,2.2682,2.2033,2.171,2.1663,2.0446,2.0413,2.1493,2.1518,2.2096,2.3065,2.3065,2.3065,2.3175,2.3753,2.433,2.4883,2.5385,2.5369,2.5016,2.5016,2.3745,2.2273,2.3807,2.3303,2.2284,2.3763,2.3693,2.3144,2.3144,2.3144,2.3144,2.3144,2.3144,2.3144,2.3144,2.3144,2.3144,2.3144,2.3144,2.3144,2.3144,2.3144,2.3144,2.3144,2.3144,2.3144,2.3144,2.3144,2.3281,2.373,2.4141,2.457,2.5019,2.5449,2.5742,2.5742,2.5742,2.5742,2.5742,2.451,2.38,2.38,2.2945,2.322,2.4977,2.5463,2.6505,2.8281,2.8301,2.8496,2.8926,2.8926,2.916,2.959,3.0019,3.0449,0.9781,0.0,0.0,0.0,0.0,0.0,0.0,0.0,0.0,0.0,0.0,0.0,0.0,0.0,0.0,0.0,0.0,0.0,0.0,0.0,0.0,0.0,0.0,0.0,0.0,0.0,0.0,0.0,2.0732,2.023,2.0158,1.9874,2.0228,2.1395,2.1605,2.2028,2.2702,2.2517,2.1974,2.1015,2.1066,2.1247,2.1493,2.1895,2.2472,2.3065,2.3065,2.3065,2.3175,2.3753,2.433,2.4883,2.5385,2.5369,2.5016,2.5016,2.4411,2.3731,2.4547,2.4802,2.4724,2.4619,2.4513,2.4211,2.3387,2.3144,2.3144,2.3144,2.3144,2.3144,2.3144,2.3144,2.3144,2.3144,2.3144,2.3144,2.3144,2.3144,2.3144,2.3144,2.3144,2.3144,2.3144,2.3144,2.3281,2.373,2.4141,2.457,2.5019,2.5449,2.5742,2.5742,2.5742,2.5742,2.5742,2.5333,2.5252,2.5657,2.539,2.5767,2.6902,2.7055,2.7516,2.8281,2.8301,2.8496,2.8926,2.9238,2.9609,3.0039,3.0488,3.0762,0.0,0.0,0.0,0.0,0.0,0.0,0.0,1.2693,0.0,0.0,0.0,0.0,0.0,0.0,0.0,0.0,0.0,0.0,0.0,0.0,0.0,0.0,0.0,0.0,0.0,2.1735,2.1337,2.1337,2.0565,2.0054,2.0054,2.0074,2.0587,2.1665,2.1964,2.2426,2.3054,2.283,2.2161,2.1161,2.1478,2.1561,2.1518,2.2071,2.2623,2.3065,2.3065,2.3215,2.3552,2.4104,2.4531,2.4908,2.5661,2.5797,2.5652,2.5652,2.5325,2.5061,2.5972,2.6101,2.573,2.5561,2.521,2.4617,2.3474,2.3144,2.3144,2.3144,2.3144,2.3144,2.3144,2.3144,2.3144,2.3144,2.3144,2.3144,2.3144,2.3144,2.3144,2.3144,2.3144,2.3144,2.3144,2.3301,2.3555,2.3984,2.4414,2.4844,2.5293,2.5566,2.5742,2.5742,2.5742,2.5742,2.5742,2.5742,2.5918,2.6367,2.6562,2.6953,2.7637,2.7832,2.8047,2.8281,2.8457,2.8848,2.9453,2.9531,2.9883,3.0488,3.0762,3.0898,0.0,0.0,0.0,0.0,0.0,0.0,1.2076,1.2574,0.0,0.0,0.0,0.0,0.0,0.0,0.0,0.0,0.0,0.0,0.0,0.0,0.0,0.0,0.0,0.0,2.2237,2.1493,2.0959,2.0926,2.0154,1.969,1.969,2.0348,2.1006,2.1665,2.2323,2.2981,2.3493,2.2875,2.2282,2.1678,2.1608,2.1611,2.1594,2.2146,2.2673,2.3065,2.3065,2.3452,2.4029,2.4582,2.4858,2.5008,2.6063,2.6533,2.6533,2.6533,2.63,2.6287,2.7605,2.7324,2.628,2.6572,2.5964,2.4957,2.3627,2.3299,2.3212,2.3144,2.3144,2.3144,2.3144,2.3144,2.3144,2.3144,2.3144,2.3144,2.3144,2.3144,2.3144,2.3144,2.3144,2.3144,2.3144,2.3496,2.3926,2.4355,2.4785,2.5234,2.5684,2.5742,2.5742,2.5742,2.5742,2.5742,2.5742,2.5781,2.5996,2.6426,2.6855,2.7285,2.7715,2.8086,2.832,2.8359,2.8828,2.9434,3.0195,2.9863,3.0117,3.0898,3.0898,3.0898,0.0,0.0,0.0,0.0,0.0,0.0,0.0,1.1775,0.0,0.0,0.0,0.0,0.0,0.0,0.0,0.0,0.0,0.0,0.0,0.0,0.0,0.0,0.0,0.0,2.1761,2.1275,2.0829,2.0434,1.998,1.969,1.969,2.0348,2.1006,2.1665,2.2323,2.277,2.2875,2.2253,2.1815,2.1635,2.1557,2.1731,2.2171,2.2723,2.2965,2.3065,2.3065,2.3452,2.4029,2.4582,2.5059,2.5511,2.6189,2.6533,2.6533,2.6533,2.7022,2.7728,2.7999,2.8525,2.8905,2.806,2.7683,2.7093,2.5126,2.4447,2.4296,2.3387,2.3144,2.3144,2.3144,2.3144,2.3144,2.3144,2.3144,2.3144,2.3144,2.3144,2.3144,2.3144,2.3144,2.3144,2.3144,2.3496,2.3926,2.4355,2.4785,2.5234,2.5684,2.5742,2.5742,2.5742,2.5742,2.5742,2.5742,2.6055,2.6445,2.6875,2.7305,2.7734,2.8144,2.8242,2.8457,2.8789,2.9551,3.0019,3.0195,3.0488,3.0723,3.0898,3.0898,3.0898,0.0,0.0,0.0,1.2812,0.0,0.0,0.0,0.0,1.2926,0.0,0.0,0.0,0.0,0.0,0.0,0.0,0.0,0.0,0.0,0.0,0.0,0.0,0.0,0.0,2.1114,2.105,2.0731,2.0054,1.9803,1.969,1.969,2.0647,2.1365,2.1695,2.2622,2.3023,2.2694,2.2346,2.1994,2.1615,2.1846,2.2082,2.2322,2.2874,2.3065,2.3065,2.3065,2.3627,2.4431,2.4707,2.5285,2.6063,2.6339,2.6533,2.6559,2.6766,2.7394,2.8147,2.8423,2.9076,2.9624,2.8426,2.8084,2.7763,2.613,2.521,2.4532,2.3387,2.3144,2.3144,2.3144,2.3144,2.3144,2.3144,2.3144,2.3144,2.3144,2.3144,2.3144,2.3144,2.332,2.3457,2.3457,2.3828,2.4258,2.4668,2.5117,2.5488,2.5703,2.5742,2.5742,2.5742,2.5742,2.582,2.6055,2.6269,2.666,2.7305,2.7539,2.7851,2.8281,2.8301,2.8594,2.9238,2.9883,3.0312,3.0547,3.0781,3.0898,3.0898,3.0898,3.0898,0.0,0.0,0.0,0.0,0.0,1.3749,0.0,0.0,0.0,1.4647,0.0,0.0,0.0,0.0,0.0,0.0,0.0,0.0,0.0,0.0,0.0,0.0,0.0,0.0,0.0,2.0564,2.0316,1.9732,1.9521,1.9491,1.9696,2.0976,2.1695,2.1695,2.2921,2.3319,2.2694,2.2694,2.2412,2.1773,2.2193,2.2411,2.2498,2.2924,2.3065,2.309,2.319,2.3879,2.4833,2.4933,2.5561,2.6533,2.6533,2.6533,2.6584,2.7067,2.762,2.8197,2.8725,2.9302,2.9624,2.8767,2.8267,2.7924,2.6812,2.5714,2.4532,2.3387,2.3212,2.3387,2.3144,2.3212,2.3387,2.3125,2.3144,2.3144,2.3144,2.3144,2.3164,2.3242,2.3555,2.3789,2.3789,2.4199,2.4668,2.5019,2.5449,2.5742,2.5742,2.5742,2.5742,2.5742,2.582,2.5996,2.6367,2.6543,2.6934,2.7617,2.7734,2.793,2.8281,2.8457,2.8906,2.9668,3.0117,3.0508,3.0898,3.0898,3.0898,3.0898,3.0898,3.0898,0.0,0.0,0.0,0.0,1.5048,0.0,0.0,0.0,1.4645,1.3272,0.0,0.0,0.0,0.0,0.0,0.0,0.0,0.0,0.0,0.0,0.0,0.0,0.0,0.0,0.0,1.9772,1.9249,1.9671,1.8818,1.87,1.9666,2.0976,2.1695,2.1695,2.2921,2.3319,2.2694,2.2694,2.256,2.2325,2.2377,2.2618,2.299,2.304,2.3065,2.309,2.3678,2.4255,2.4858,2.531,2.5887,2.6533,2.6533,2.6533,2.6584,2.7067,2.762,2.8197,2.8725,2.9302,2.9779,2.9624,2.8949,2.7924,2.6812,2.5714,2.4532,2.3387,2.38,2.4382,2.3387,2.3887,2.4382,2.3299,2.3144,2.3144,2.3144,2.3144,2.3242,2.3633,2.375,2.3789,2.3789,2.4453,2.5,2.5059,2.5449,2.5742,2.5742,2.5742,2.5742,2.5742,2.6074,2.6328,2.6387,2.709,2.7559,2.7656,2.8008,2.8242,2.8301,2.9023,2.9648,3.0117,3.0586,3.084,3.0898,3.0898,3.0898,3.0898,3.0898,3.0898,0.0,0.0,0.0,0.0,0.0,0.0,0.0,0.0,1.4629,0.0,0.0,0.0,0.0,0.0,0.0,0.0,0.0,0.0,0.0,0.0,0.0,0.0,0.0,0.0,0.0,0.0,0.0,0.0,1.8864,1.8551,1.9636,2.0976,2.1695,2.1695,2.2921,2.3319,2.2694,2.2668,2.2556,2.243,2.233,2.2578,2.3065,2.3065,2.3326,2.3653,2.3904,2.4481,2.5285,2.5511,2.5937,2.6533,2.6533,2.6666,2.6992,2.7544,2.8097,2.8674,2.9227,2.9578,2.9804,2.9804,2.9443,2.887,2.7787,2.7116,2.6521,2.5378,2.4957,2.4702,2.4211,2.3973,2.3714,2.3212,2.3144,2.3144,2.3144,2.334,2.3574,2.375,2.4199,2.4531,2.4531,2.4824,2.5156,2.541,2.5605,2.5742,2.5742,2.5742,2.584,2.6094,2.6289,2.6582,2.709,2.7461,2.7773,2.8008,2.8203,2.8398,2.8652,2.9238,2.9766,3.0195,3.0644,3.0898,3.0898,3.0898,3.0898,3.0898,3.0898,3.0898,1.6487,0.0,0.0,0.0,0.0,0.0,0.0,0.0,0.0,0.0,0.0,0.0,0.0,0.0,0.0,0.0,0.0,0.0,0.0,0.0,0.0,0.0,0.0,0.0,0.0,0.0,0.0,0.0,0.0,1.8251,1.9636,2.0976,2.1695,2.1695,2.2921,2.3231,2.2438,2.2684,2.26,2.2159,2.2419,2.2774,2.3065,2.3065,2.3452,2.4004,2.4155,2.4732,2.5611,2.5762,2.6088,2.6533,2.6684,2.7017,2.7544,2.7971,2.8448,2.9026,2.9603,2.9804,2.9804,2.9804,2.9804,2.9624,2.8426,2.8084,2.7844,2.6789,2.613,2.5525,2.4957,2.4382,2.3887,2.3212,2.3144,2.3184,2.3301,2.3574,2.3867,2.4102,2.4648,2.5117,2.5234,2.5254,2.5371,2.5684,2.5742,2.5742,2.5742,2.584,2.6035,2.6348,2.6602,2.6992,2.7617,2.7773,2.7969,2.8281,2.8398,2.8652,2.9082,2.9512,2.9941,3.0371,3.0723,3.0898,3.0898,3.0898,3.0898,3.0898,3.0898,3.0898,0.0,0.0,0.0,1.5322,0.0,0.0,0.0,0.0,1.6761,0.0,0.0,0.0,0.0,0.0,0.0,1.4879,0.0,0.0,0.0,0.0,0.0,0.0,0.0,0.0,0.0,0.0,0.0,0.0,0.0,0.0,1.9576,2.0976,2.1695,2.1695,2.2921,2.298,2.1758,2.2875,2.2803,2.1549,2.273,2.3186,2.3065,2.3065,2.3452,2.4029,2.4556,2.5109,2.5636,2.6189,2.6508,2.6584,2.7042,2.7595,2.8072,2.8097,2.8448,2.9026,2.9603,2.9804,2.9804,2.9804,2.9804,2.9624,2.8426,2.8084,2.7844,2.6789,2.7197,2.7522,2.5357,2.5546,2.5819,2.3647,2.3144,2.3262,2.3672,2.3769,2.4043,2.4863,2.5059,2.5215,2.5644,2.5723,2.5723,2.5742,2.5742,2.5742,2.5742,2.6113,2.6367,2.6387,2.7129,2.7637,2.7676,2.8047,2.8281,2.8301,2.8672,2.9101,2.9531,2.9961,3.0391,3.0859,3.0879,3.0898,3.0898,3.0898,3.0898,3.0898,3.0898,3.0898,0.0,0.0,1.7274,1.6653,0.0,0.0,0.0,0.0,0.0,0.0,0.0,0.0,0.0,0.0,1.5502,1.4994,1.4816,0.0,0.0,0.0,0.0,0.0,0.0,0.0,0.0,0.0,0.0,0.0,1.7659,0.0,0.0,2.0976,2.1695,2.1695,2.2921,2.3393,2.2923,2.3224,2.3198,2.2674,2.3039,2.3103,2.309,2.3527,2.4004,2.4582,2.5109,2.5661,2.6189,2.6458,2.6735,2.7017,2.7218,2.7846,2.8649,2.8649,2.9026,2.9528,2.9729,2.9804,2.9804,2.9804,2.9804,2.9702,2.9365,2.9209,2.9106,2.8791,2.845,2.7763,2.6295,2.563,2.4957,2.3474,2.3359,2.3613,2.3769,2.4238,2.4727,2.5,2.5312,2.5566,2.5703,2.5742,2.5742,2.5742,2.5742,2.5742,2.5742,2.6113,2.6504,2.6777,2.7324,2.7773,2.8066,2.8203,2.8418,2.8691,2.8848,2.9238,2.9961,3.0117,3.041,3.0879,3.0898,3.0898,3.0898,3.0898,3.0898,3.0898,3.0898,3.0898,1.8199,1.8119,0.0,1.8136,1.7695,0.0,1.6157,0.0,0.0,0.0,0.0,0.0,0.0,0.0,0.0,1.5896,1.5101,0.0,0.0,0.0,0.0,0.0,0.0,0.0,0.0,0.0,1.658,1.8458,1.7259,0.0,0.0,0.0,2.1695,2.1695,2.2921,2.3436,2.3186,2.3358,2.3232,2.2959,2.3027,2.3065,2.309,2.3728,2.4305,2.4858,2.5385,2.5912,2.6533,2.6533,2.6791,2.7293,2.7494,2.8122,2.8925,2.8925,2.9302,2.9804,2.9804,2.9804,2.9804,2.9804,2.9804,2.9804,2.9804,2.9804,2.9804,2.9804,2.9287,2.8426,2.736,2.6213,2.5168,2.4176,2.3841,2.3867,2.418,2.4668,2.5117,2.5273,2.5547,2.5742,2.5742,2.5742,2.5742,2.5742,2.5742,2.5801,2.5957,2.6348,2.6777,2.7207,2.7637,2.7988,2.8262,2.8301,2.8476,2.8887,2.9062,2.9473,3.0176,3.0351,3.0586,3.0879,3.0898,3.0898,3.0898,3.0898,3.0898,3.0898,3.0898,3.0976]}]]